[[{"header":{"parameterUnit":"m.s-1","parameterCategory":1,"la1":30.6,"la2":29.2853,"lo1":-89.7004,"lo2":-87.6739,"dy":0.0162,"dx":0.0183,"nx":112,"ny":82,"refTime":"2024-02-27T18:00:00:Z","depth":0,"parameterNumber":2,"parameterNumberName":"U-component_of_WINDS"},"data":[0.0,0.0,0.0,0.0,0.0,0.0,0.0,0.0,0.0,0.0,0.0,0.0,0.0,0.0,0.0,0.0,0.0,0.0,0.0,0.0,0.0,0.0,0.0,0.0,0.0,0.0,0.0,0.0,0.0,0.0,0.0,0.0,0.0,0.0,0.0,0.0,0.0,0.0,0.0,0.0,0.0,0.0,0.0,0.0,0.0,0.0,0.0,0.0,0.0,0.0,0.0,0.0,0.0,0.0,0.0,0.0,0.0,0.0,0.0,0.0,0.0,0.0,0.0,0.0,0.0,0.0,0.0,0.0,0.0,0.0,0.0,0.0,0.0,0.0,0.0,0.0,0.0,0.0,0.0,0.0,0.0,0.0,0.0,0.0,0.0,0.0,0.0,0.0,0.0,0.0,-6.1914,-6.4765,-7.0547,-7.4609,-7.5625,-7.6562,-7.4844,-6.9531,0.0,0.0,0.0,0.0,0.0,0.0,0.0,0.0,0.0,0.0,0.0,0.0,0.0,0.0,0.0,0.0,0.0,0.0,0.0,0.0,0.0,0.0,0.0,0.0,0.0,0.0,0.0,0.0,0.0,0.0,0.0,0.0,0.0,0.0,0.0,0.0,0.0,0.0,0.0,0.0,0.0,0.0,0.0,0.0,0.0,0.0,0.0,0.0,0.0,0.0,0.0,0.0,0.0,0.0,0.0,0.0,0.0,0.0,0.0,0.0,0.0,0.0,0.0,0.0,0.0,0.0,0.0,0.0,0.0,0.0,0.0,0.0,0.0,0.0,0.0,0.0,0.0,0.0,0.0,0.0,0.0,0.0,0.0,0.0,0.0,0.0,0.0,0.0,0.0,0.0,0.0,0.0,0.0,0.0,0.0,0.0,0.0,0.0,0.0,0.0,0.0,0.0,0.0,0.0,-6.414,-6.8203,-7.0898,-7.3047,-7.4648,-7.2383,-7.0156,-6.8476,0.0,0.0,0.0,0.0,0.0,0.0,0.0,0.0,0.0,0.0,0.0,0.0,0.0,0.0,0.0,0.0,0.0,0.0,0.0,0.0,0.0,0.0,0.0,0.0,0.0,0.0,0.0,0.0,0.0,0.0,0.0,0.0,0.0,0.0,0.0,0.0,0.0,0.0,0.0,0.0,0.0,0.0,0.0,0.0,0.0,0.0,0.0,0.0,0.0,0.0,0.0,0.0,0.0,0.0,0.0,0.0,0.0,0.0,0.0,0.0,0.0,0.0,0.0,0.0,0.0,0.0,0.0,0.0,0.0,0.0,0.0,0.0,0.0,0.0,0.0,0.0,0.0,0.0,0.0,0.0,0.0,0.0,0.0,0.0,0.0,0.0,0.0,0.0,0.0,0.0,0.0,0.0,0.0,0.0,0.0,0.0,0.0,0.0,0.0,0.0,0.0,0.0,0.0,-6.1788,-6.3594,-6.6992,-6.9297,-7.1094,-7.2383,-6.9765,-6.793,-6.7539,-6.6875,0.0,0.0,0.0,0.0,0.0,0.0,0.0,0.0,0.0,0.0,0.0,0.0,0.0,0.0,0.0,0.0,0.0,0.0,0.0,0.0,0.0,0.0,0.0,0.0,0.0,0.0,0.0,0.0,0.0,0.0,0.0,0.0,0.0,0.0,0.0,0.0,0.0,0.0,0.0,0.0,0.0,0.0,0.0,0.0,0.0,0.0,0.0,0.0,0.0,0.0,0.0,0.0,0.0,0.0,0.0,0.0,0.0,0.0,0.0,0.0,0.0,0.0,0.0,0.0,0.0,0.0,0.0,0.0,0.0,0.0,0.0,0.0,0.0,0.0,0.0,0.0,0.0,0.0,0.0,0.0,0.0,0.0,0.0,0.0,0.0,0.0,0.0,0.0,0.0,0.0,0.0,0.0,0.0,0.0,0.0,0.0,0.0,0.0,0.0,0.0,0.0,0.0,-6.1758,-6.2265,-6.5232,-6.7301,-6.8786,-6.9646,-6.7418,-6.6014,-6.6289,-6.3828,0.0,0.0,0.0,0.0,0.0,0.0,0.0,0.0,0.0,0.0,0.0,0.0,0.0,0.0,0.0,0.0,0.0,0.0,0.0,0.0,0.0,0.0,0.0,0.0,0.0,0.0,0.0,0.0,0.0,0.0,0.0,0.0,0.0,0.0,0.0,0.0,0.0,0.0,0.0,0.0,0.0,0.0,0.0,0.0,0.0,0.0,0.0,0.0,0.0,0.0,0.0,0.0,0.0,0.0,0.0,0.0,0.0,0.0,0.0,0.0,0.0,0.0,0.0,0.0,0.0,0.0,0.0,0.0,0.0,0.0,0.0,0.0,0.0,0.0,0.0,0.0,0.0,0.0,0.0,0.0,0.0,0.0,0.0,0.0,0.0,0.0,0.0,0.0,0.0,0.0,0.0,0.0,0.0,0.0,0.0,0.0,0.0,0.0,0.0,0.0,0.0,0.0,-6.039,-6.0934,-6.4997,-6.5577,-6.6006,-6.6829,-6.4559,-6.349,-6.4414,-6.2031,0.0,0.0,0.0,0.0,0.0,0.0,0.0,0.0,0.0,0.0,0.0,0.0,0.0,0.0,0.0,0.0,0.0,0.0,0.0,0.0,0.0,0.0,0.0,0.0,0.0,0.0,0.0,0.0,0.0,0.0,0.0,0.0,0.0,0.0,0.0,0.0,0.0,0.0,0.0,0.0,0.0,0.0,0.0,0.0,0.0,0.0,0.0,0.0,0.0,0.0,0.0,0.0,0.0,0.0,0.0,0.0,0.0,0.0,0.0,0.0,0.0,0.0,0.0,0.0,0.0,0.0,0.0,0.0,0.0,0.0,0.0,0.0,0.0,0.0,0.0,0.0,0.0,0.0,0.0,0.0,0.0,0.0,0.0,0.0,0.0,0.0,0.0,0.0,0.0,0.0,0.0,0.0,0.0,0.0,0.0,0.0,0.0,0.0,0.0,0.0,0.0,0.0,-5.9883,-6.0386,-6.3467,-6.4281,-6.471,-6.5022,-6.3185,-6.2432,-6.3437,0.0,0.0,0.0,0.0,0.0,0.0,0.0,0.0,0.0,0.0,0.0,0.0,0.0,0.0,0.0,0.0,0.0,0.0,0.0,0.0,0.0,0.0,0.0,0.0,0.0,0.0,0.0,0.0,0.0,0.0,0.0,0.0,0.0,0.0,0.0,0.0,0.0,0.0,0.0,0.0,0.0,0.0,0.0,0.0,0.0,0.0,0.0,0.0,0.0,0.0,0.0,0.0,0.0,0.0,0.0,0.0,0.0,0.0,0.0,0.0,0.0,0.0,0.0,0.0,0.0,0.0,0.0,0.0,0.0,0.0,0.0,0.0,0.0,0.0,0.0,0.0,0.0,0.0,0.0,0.0,0.0,0.0,0.0,0.0,0.0,0.0,0.0,0.0,0.0,0.0,0.0,0.0,0.0,0.0,0.0,0.0,0.0,0.0,0.0,0.0,0.0,0.0,-5.9687,-5.9021,-5.9355,-6.2056,-6.2799,-6.3015,-6.2742,-6.0932,-6.0318,-6.1541,0.0,0.0,0.0,0.0,0.0,0.0,0.0,0.0,0.0,0.0,0.0,0.0,0.0,0.0,0.0,0.0,0.0,0.0,0.0,0.0,0.0,0.0,0.0,0.0,0.0,0.0,0.0,0.0,0.0,0.0,0.0,0.0,0.0,0.0,0.0,0.0,0.0,0.0,0.0,0.0,0.0,0.0,0.0,0.0,0.0,0.0,0.0,0.0,0.0,0.0,0.0,0.0,0.0,0.0,0.0,0.0,0.0,0.0,0.0,0.0,0.0,0.0,0.0,0.0,0.0,0.0,0.0,0.0,0.0,0.0,0.0,0.0,0.0,0.0,0.0,0.0,0.0,0.0,0.0,0.0,0.0,0.0,0.0,0.0,0.0,0.0,0.0,0.0,0.0,0.0,0.0,0.0,0.0,0.0,0.0,0.0,0.0,0.0,0.0,0.0,0.0,0.0,-5.8827,-5.7557,-5.7634,-6.0912,-6.1089,-6.0657,-5.9844,-5.7501,-5.6825,0.0,0.0,0.0,0.0,0.0,0.0,0.0,0.0,0.0,0.0,0.0,0.0,0.0,0.0,0.0,0.0,0.0,0.0,0.0,0.0,0.0,0.0,0.0,0.0,0.0,0.0,0.0,0.0,0.0,0.0,0.0,0.0,0.0,0.0,0.0,0.0,0.0,0.0,0.0,0.0,0.0,0.0,0.0,0.0,0.0,0.0,0.0,0.0,0.0,0.0,0.0,0.0,0.0,0.0,0.0,0.0,0.0,0.0,0.0,0.0,0.0,0.0,0.0,0.0,0.0,0.0,0.0,0.0,0.0,0.0,0.0,0.0,0.0,0.0,0.0,0.0,0.0,0.0,0.0,0.0,0.0,0.0,0.0,0.0,0.0,0.0,0.0,0.0,0.0,0.0,0.0,0.0,0.0,0.0,0.0,0.0,0.0,0.0,0.0,0.0,0.0,0.0,0.0,-5.7851,-5.6113,-5.5844,-5.9127,-5.935,-5.9146,-5.8914,-5.7095,-5.6724,-5.8576,0.0,0.0,0.0,0.0,0.0,0.0,0.0,0.0,0.0,0.0,0.0,0.0,0.0,0.0,0.0,0.0,0.0,0.0,0.0,0.0,0.0,0.0,0.0,0.0,0.0,0.0,0.0,0.0,0.0,0.0,0.0,0.0,0.0,0.0,0.0,0.0,0.0,0.0,0.0,0.0,0.0,0.0,0.0,0.0,0.0,0.0,0.0,0.0,0.0,0.0,0.0,0.0,0.0,0.0,0.0,0.0,0.0,0.0,0.0,0.0,0.0,0.0,0.0,0.0,0.0,0.0,0.0,0.0,0.0,0.0,0.0,0.0,0.0,0.0,0.0,0.0,0.0,0.0,0.0,0.0,0.0,0.0,0.0,0.0,0.0,0.0,0.0,0.0,0.0,0.0,0.0,0.0,0.0,0.0,0.0,0.0,0.0,0.0,0.0,0.0,0.0,0.0,-5.7461,-5.5487,-5.506,-5.8348,-5.8566,-5.8329,-5.793,-5.6369,-5.5746,-5.6473,0.0,0.0,0.0,0.0,0.0,0.0,0.0,0.0,0.0,0.0,0.0,0.0,0.0,0.0,0.0,0.0,0.0,0.0,0.0,0.0,0.0,0.0,0.0,0.0,0.0,0.0,0.0,0.0,0.0,0.0,0.0,0.0,0.0,0.0,0.0,0.0,0.0,0.0,0.0,0.0,0.0,0.0,0.0,0.0,0.0,0.0,0.0,0.0,0.0,0.0,0.0,0.0,0.0,0.0,0.0,0.0,0.0,0.0,0.0,0.0,0.0,0.0,0.0,0.0,0.0,0.0,0.0,0.0,0.0,0.0,0.0,0.0,0.0,0.0,0.0,0.0,0.0,0.0,0.0,0.0,0.0,0.0,0.0,0.0,0.0,0.0,0.0,0.0,0.0,0.0,0.0,0.0,0.0,0.0,0.0,0.0,0.0,0.0,0.0,0.0,0.0,0.0,-5.7226,-5.5251,-5.4784,-5.7998,-5.821,-5.7794,-5.6967,-5.5441,-5.4203,-5.3367,0.0,0.0,0.0,0.0,0.0,0.0,0.0,0.0,0.0,0.0,0.0,0.0,0.0,0.0,0.0,0.0,0.0,0.0,0.0,0.0,0.0,0.0,0.0,0.0,0.0,0.0,0.0,0.0,0.0,0.0,0.0,0.0,0.0,0.0,0.0,0.0,0.0,0.0,0.0,0.0,0.0,0.0,0.0,0.0,0.0,0.0,0.0,0.0,0.0,0.0,0.0,0.0,0.0,0.0,0.0,0.0,0.0,0.0,0.0,0.0,-7.6676,0.0,0.0,0.0,0.0,0.0,0.0,0.0,0.0,0.0,0.0,0.0,0.0,0.0,0.0,0.0,0.0,0.0,0.0,0.0,0.0,0.0,0.0,0.0,0.0,0.0,0.0,0.0,0.0,0.0,0.0,0.0,0.0,0.0,0.0,0.0,0.0,0.0,0.0,0.0,0.0,0.0,-5.5586,-5.3455,-5.2756,-5.5418,-5.5603,-5.562,-5.5966,-5.4485,-5.3725,-5.4203,-5.2685,0.0,0.0,0.0,0.0,0.0,0.0,0.0,0.0,0.0,0.0,0.0,0.0,0.0,0.0,0.0,0.0,0.0,0.0,0.0,0.0,0.0,0.0,0.0,0.0,0.0,0.0,0.0,0.0,0.0,0.0,0.0,0.0,0.0,0.0,0.0,0.0,0.0,0.0,0.0,0.0,0.0,0.0,0.0,0.0,0.0,0.0,0.0,0.0,0.0,0.0,0.0,0.0,0.0,0.0,0.0,0.0,0.0,0.0,0.0,0.0,-7.4513,0.0,0.0,0.0,0.0,0.0,0.0,0.0,0.0,0.0,0.0,0.0,0.0,0.0,0.0,0.0,0.0,0.0,0.0,0.0,0.0,0.0,0.0,0.0,0.0,0.0,0.0,0.0,0.0,0.0,0.0,0.0,0.0,0.0,0.0,0.0,0.0,0.0,0.0,0.0,0.0,-5.5078,-5.2963,-5.2073,-5.4142,-5.4305,-5.4356,-5.4571,-5.3415,-5.2675,-5.2674,-5.1874,0.0,0.0,0.0,0.0,0.0,0.0,0.0,0.0,0.0,0.0,0.0,0.0,0.0,0.0,0.0,0.0,0.0,0.0,0.0,0.0,0.0,0.0,0.0,0.0,0.0,0.0,0.0,0.0,0.0,0.0,0.0,0.0,0.0,0.0,0.0,0.0,0.0,0.0,0.0,0.0,0.0,0.0,0.0,0.0,0.0,0.0,0.0,0.0,0.0,0.0,0.0,0.0,0.0,-7.8207,-7.8454,-7.9506,-7.743,-7.5534,-7.3865,-7.373,-7.2057,-6.9566,-7.0302,0.0,0.0,0.0,0.0,0.0,0.0,0.0,0.0,0.0,0.0,0.0,0.0,0.0,0.0,0.0,0.0,0.0,0.0,0.0,0.0,0.0,0.0,0.0,0.0,-6.2187,-6.1445,-6.2851,0.0,0.0,0.0,0.0,0.0,0.0,0.0,0.0,0.0,0.0,0.0,-5.4453,-5.2734,-5.1949,-5.3426,-5.3574,-5.3541,-5.339,-5.2585,-5.1763,-5.0952,-5.1279,-5.1318,0.0,0.0,0.0,0.0,0.0,0.0,0.0,0.0,0.0,0.0,0.0,0.0,0.0,0.0,0.0,0.0,0.0,0.0,0.0,0.0,0.0,0.0,0.0,0.0,0.0,0.0,0.0,0.0,0.0,0.0,0.0,0.0,-7.6079,-7.602,0.0,0.0,0.0,0.0,0.0,0.0,0.0,0.0,0.0,0.0,0.0,0.0,0.0,-7.9423,-8.017,-7.9423,-7.8698,-7.8044,-7.8101,-7.7489,-7.6244,-7.6074,-7.5033,-7.3354,-7.2573,0.0,-6.7949,-6.8203,0.0,0.0,0.0,0.0,0.0,0.0,0.0,0.0,0.0,0.0,0.0,0.0,0.0,0.0,0.0,0.0,0.0,0.0,0.0,0.0,0.0,0.0,-6.0586,-6.0,-5.9101,-5.8476,0.0,-5.914,-5.9061,-5.7538,-5.7147,0.0,0.0,0.0,0.0,0.0,0.0,0.0,-5.207,-5.1601,-5.1715,-5.2567,-5.2676,-5.2875,-5.3351,-5.2585,-5.1995,-5.1751,-5.0471,-5.0317,-5.1692,-5.2931,0.0,0.0,0.0,0.0,0.0,0.0,0.0,0.0,0.0,0.0,0.0,0.0,0.0,0.0,0.0,0.0,0.0,0.0,0.0,0.0,0.0,0.0,0.0,0.0,0.0,0.0,0.0,0.0,0.0,-7.5528,-7.6455,-7.4949,-7.7571,-7.8962,0.0,0.0,0.0,0.0,0.0,0.0,0.0,0.0,0.0,-8.007,-7.9902,-7.9524,-7.8956,-7.8867,-7.8852,-7.8894,-7.9001,-7.8567,-7.7706,-7.6839,-7.5523,-7.3805,-7.2944,-7.106,-6.8544,-6.7556,-6.6785,-6.6134,0.0,0.0,0.0,0.0,-6.5774,-6.5628,-6.5282,-6.4859,-6.4576,-6.5434,0.0,0.0,0.0,0.0,0.0,0.0,0.0,0.0,0.0,0.0,-5.9492,-5.8672,-5.7812,-5.7031,-5.6523,-5.6367,-5.6328,0.0,-5.6992,-5.7187,-5.668,0.0,0.0,0.0,0.0,-5.1758,-5.1445,-5.1016,-5.1015,-5.1787,-5.1864,-5.1954,-5.2139,-5.1781,-5.1463,-5.1344,-5.0595,-5.0664,-5.1846,-5.3253,-5.4737,0.0,0.0,0.0,0.0,0.0,0.0,0.0,0.0,0.0,0.0,0.0,0.0,0.0,0.0,0.0,0.0,0.0,0.0,0.0,0.0,0.0,0.0,0.0,0.0,0.0,0.0,0.0,0.0,-7.5419,-7.6361,-7.376,-7.726,-7.8974,0.0,0.0,0.0,0.0,0.0,0.0,-8.117,-8.2128,-8.2143,-8.0961,-8.0805,-8.0217,-7.9143,-7.9256,-7.9635,-8.0307,-8.0307,-7.9981,-7.9346,-7.8089,-7.6435,-7.4498,-7.37,-7.2185,-7.0151,-6.7906,-6.6457,-6.5484,-6.4504,-6.4076,-6.4011,-6.43,-6.42,-6.3935,-6.3705,-6.3205,-6.2779,-6.3338,-6.2984,-6.2418,-6.2976,0.0,0.0,0.0,0.0,-6.0872,-6.0741,-5.9805,-5.8633,-5.7773,-5.6914,-5.6094,-5.543,-5.4961,-5.4922,0.0,-5.6289,-5.6445,-5.6015,0.0,0.0,0.0,0.0,-5.0586,-5.0742,-5.043,-5.043,-5.1016,-5.1289,-5.1363,-5.1208,-5.1121,-5.1031,-5.0903,-5.0764,-5.0971,-5.1587,-5.3241,-5.4549,-5.5395,0.0,0.0,0.0,0.0,0.0,0.0,0.0,0.0,0.0,0.0,0.0,0.0,0.0,0.0,0.0,0.0,0.0,0.0,0.0,0.0,0.0,0.0,0.0,0.0,0.0,0.0,0.0,0.0,0.0,-7.2899,-7.8053,0.0,0.0,0.0,0.0,-8.0248,-8.182,-8.3126,-8.3943,-8.3295,-8.3209,-8.3947,-8.2457,-8.1975,-8.2715,-8.1929,-8.1643,-8.1883,-8.1883,-8.102,-7.9381,-7.9303,-7.7799,-7.5209,-7.4528,-7.3719,-7.2564,-6.9408,-6.7617,-6.6676,-6.5519,-6.5019,-6.4902,-6.3791,-6.287,-6.2101,-6.1281,-6.0973,-6.1166,-6.2793,-6.286,-6.2206,-6.1616,-6.036,0.0,0.0,-5.9864,-5.914,-5.8281,-5.8047,-5.7734,-5.6875,-5.6015,-5.5351,-5.5312,-5.5937,-5.6015,0.0,-5.3516,-5.3203,-5.3984,0.0,-5.2422,-5.1641,-5.1406,-5.0781,-4.9219,-4.9726,-5.0234,-5.0273,-5.0937,-5.1363,-5.1208,-5.1121,-5.1031,-5.0903,-5.0764,-5.0712,-5.075,-5.2356,-5.3664,-5.4549,-5.5599,0.0,0.0,0.0,0.0,0.0,0.0,0.0,0.0,0.0,0.0,0.0,0.0,0.0,0.0,0.0,0.0,0.0,0.0,0.0,0.0,0.0,0.0,0.0,0.0,0.0,0.0,0.0,0.0,-7.764,-8.1785,0.0,-8.1334,-8.2425,-8.305,-8.2503,-8.3878,-8.4871,-8.5018,-8.5621,-8.5316,-8.385,-8.3882,-8.3324,-8.1988,-8.1809,-8.1757,-8.1786,-8.124,-8.0284,-7.8984,-7.7912,-7.6268,-7.4237,-7.3554,-7.2867,-7.2011,-6.9839,-6.8394,-6.7392,-6.5812,-6.4777,-6.4075,-6.3671,-6.2905,-6.2062,-6.1755,-6.1281,-6.0816,-6.1,-6.0996,-6.0804,-5.9997,-5.9446,-5.9172,-5.9484,-5.8982,-5.8281,-5.7969,-5.7461,-5.6992,-5.668,-5.5508,-5.4609,-5.5195,-5.4648,-5.4062,-5.4023,-5.4219,-5.4101,-5.3281,-5.1992,-5.1172,-5.1367,-5.0469,-4.9766,-4.9726,-5.0,-5.0391,-5.0937,-5.1211,-5.1367,-5.1323,-5.1197,-5.1069,-5.102,-5.0811,-5.0933,-5.1471,-5.2038,-5.3049,-5.4472,-5.4314,-5.5177,0.0,0.0,0.0,0.0,0.0,0.0,0.0,0.0,0.0,0.0,0.0,0.0,0.0,0.0,0.0,0.0,0.0,0.0,0.0,0.0,0.0,0.0,0.0,0.0,0.0,0.0,-8.0245,-8.0776,-8.4759,-8.6797,-8.5078,-8.5664,-8.6054,-8.5781,-8.6538,-8.7176,-8.7634,-8.7897,-8.7209,-8.5379,-8.4894,-8.3861,-8.2161,-8.1724,-8.1524,-8.1609,-8.0715,-7.9777,-7.8746,-7.7052,-7.5332,-7.3593,-7.2988,-7.2283,-7.153,-7.0288,-6.9186,-6.8054,-6.633,-6.498,-6.3999,-6.3941,-6.3147,-6.2062,-6.1755,-6.1293,-6.0734,-6.0395,-6.0221,-6.0102,-5.9887,-5.9329,-5.8828,-5.9101,-5.8359,-5.7461,-5.7461,-5.6797,-5.625,-5.6523,-5.5273,-5.4141,-5.4726,-5.3945,-5.3125,-5.3125,-5.4062,-5.4414,-5.2969,-5.1797,-5.1211,-5.1758,-5.0391,-4.9648,-5.0508,-5.0351,-5.0391,-5.0937,-5.125,-5.1406,-5.1406,-5.1447,-5.14,-5.1128,-5.0851,-5.0933,-5.1471,-5.1769,-5.2577,-5.4049,-5.351,-5.4063,-5.5861,0.0,0.0,0.0,0.0,0.0,0.0,0.0,0.0,0.0,0.0,0.0,0.0,0.0,0.0,0.0,0.0,0.0,0.0,0.0,0.0,0.0,0.0,0.0,-7.1143,-7.7254,-8.1771,-8.1881,-8.6756,-8.9414,-8.7773,-8.8359,-8.914,-8.9961,-8.9627,-9.0107,-9.1789,-8.987,-8.8709,-8.8671,-8.5401,-8.3593,-8.3555,-8.19,-8.1172,-8.1356,-8.0466,-7.9575,-7.8657,-7.6964,-7.5217,-7.3427,-7.2879,-7.2217,-7.142,-7.0754,-6.9844,-6.8702,-6.7087,-6.5763,-6.4832,-6.4671,-6.3551,-6.1985,-6.1089,-6.0781,-6.0845,-6.1165,-6.0694,-6.0204,-6.1278,-5.9883,-5.8125,-5.8945,-5.793,-5.664,-5.6601,-5.5937,-5.5508,-5.6406,-5.5273,-5.3984,-5.3984,-5.3984,-5.3437,-5.1719,-5.2773,-5.3672,-5.2812,-5.2656,-5.2656,-5.2656,-5.1289,0.0,-5.1289,-5.0742,-5.0273,-5.0273,-5.1016,-5.1484,-5.1445,-5.1951,-5.194,-5.1167,-5.0851,-5.0712,-5.0712,-5.1471,-5.2269,-5.3126,-5.3164,-5.3203,-5.3203,0.0,0.0,0.0,0.0,0.0,0.0,0.0,0.0,0.0,0.0,0.0,0.0,0.0,0.0,0.0,0.0,0.0,0.0,0.0,0.0,0.0,-7.3283,-7.5089,-7.6514,-8.0124,-8.3617,-8.6249,-8.9709,-9.1445,-9.0351,-9.1015,-9.1285,-9.0778,-9.1009,-9.1326,-9.1587,-9.0327,-8.9017,-8.7786,-8.567,-8.3939,-8.267,-8.1631,-8.0808,-8.0218,-7.9369,-7.8188,-7.671,-7.5027,-7.3663,-7.2517,-7.2034,-7.1361,-7.0518,-6.9818,-6.8943,-6.7982,-6.737,-6.6496,-6.5519,-6.4857,-6.3551,-6.1985,-6.1089,-6.0781,-6.0734,-6.0339,-6.0137,-5.995,-5.975,-5.9289,-5.875,-5.8359,-5.789,-5.7383,-5.6758,-5.5937,-5.5508,-5.6406,-5.5273,-5.3984,-5.3984,-5.3516,-5.2734,-5.1601,-5.2305,-5.2773,-5.1914,-5.1758,-5.1758,-5.1758,-5.1367,0.0,-5.1367,-5.1758,-5.1992,-5.1992,-5.2773,-5.3047,-5.2383,-5.2308,-5.195,-5.1172,-5.0851,-5.0712,-5.0712,-5.0894,-5.1125,-5.1395,-5.2587,-5.3203,0.0,0.0,0.0,0.0,0.0,0.0,0.0,0.0,0.0,0.0,0.0,0.0,0.0,0.0,0.0,0.0,0.0,0.0,0.0,0.0,0.0,0.0,-7.5361,-7.8521,-8.1186,-8.3308,-8.5779,-8.8986,-9.1616,-9.3086,-9.2969,-9.3047,-9.3157,-9.3123,-9.2384,-9.2112,-9.2548,-9.0866,-8.9286,-8.7979,-8.5978,-8.4247,-8.2862,-8.167,-8.0669,-7.9785,-7.89,-7.763,-7.5938,-7.4245,-7.3014,-7.2132,-7.1335,-7.0611,-7.0005,-6.8995,-6.8193,0.0,0.0,0.0,0.0,0.0,-6.2935,-6.1985,-6.1089,-6.0834,-6.0817,-6.0522,-6.052,-6.0577,-6.02,-5.9917,-5.9531,-5.8672,-5.8164,-5.7695,-5.6836,-5.5937,-5.5508,-5.6406,-5.5547,-5.4453,-5.4062,-5.3594,-5.2891,-5.1641,-5.1797,0.0,-5.1484,-5.1719,-5.1953,-5.1953,-5.1641,-5.1641,-5.2383,-5.2617,-5.2851,-5.3203,-5.3711,-5.3789,-5.3281,-5.3322,0.0,0.0,0.0,-5.1048,-5.0712,-5.101,0.0,0.0,0.0,-5.3203,-5.3203,0.0,0.0,0.0,-5.6737,-5.7348,0.0,0.0,0.0,0.0,0.0,0.0,0.0,0.0,0.0,0.0,0.0,0.0,0.0,0.0,0.0,0.0,-7.7938,-8.1345,-8.4946,-8.6467,-8.8117,-9.0571,-9.2561,-9.4023,-9.4844,-9.4179,-9.4243,-9.5524,-9.329,-9.242,-9.3695,0.0,0.0,0.0,0.0,-8.4324,-8.3439,-8.19,-8.0592,-7.9631,-7.8861,-7.7515,-7.5668,-7.4168,-7.2976,-7.1978,-7.0834,-7.0097,-6.9653,-6.8358,-6.7542,-6.6942,-6.5374,-6.4602,-6.4128,-6.2639,-6.2062,-6.1831,-6.105,0.0,0.0,-6.1234,-6.1383,-6.1517,-6.1677,-6.1094,-6.0234,-5.9414,-5.8555,-5.7695,-5.6836,-5.5937,-5.5508,-5.6406,-5.5937,-5.5078,-5.4297,-5.4141,-5.3633,-5.1875,-5.1562,-5.1562,-5.1562,-5.2187,-5.2695,-5.2695,-5.2148,-5.2266,-5.3789,-5.3398,-5.3281,-5.4062,0.0,0.0,-5.4141,-5.4606,-5.4202,-5.2539,-5.2205,-5.1741,-5.102,-5.1664,-5.2423,-5.3203,-5.3203,-5.3241,-5.3356,-5.3356,-5.378,-5.4703,-5.6857,-5.7511,0.0,0.0,0.0,0.0,0.0,0.0,0.0,0.0,0.0,0.0,0.0,0.0,0.0,0.0,0.0,-7.74,-8.0054,-8.3009,-8.6492,-8.8505,-9.0177,-9.1727,-9.2264,-9.2663,-9.3085,-9.2753,-9.2593,-9.2698,-9.2021,-9.1616,-9.1749,-8.9953,-8.8517,-8.7671,-8.517,-8.3439,-8.2554,-8.1593,-8.0323,-7.8746,0.0,0.0,-7.3976,-7.3668,-7.2629,-7.1156,-7.1031,-7.0176,-6.8849,-6.8607,-6.7173,-6.511,-6.4763,-6.3803,-6.2563,-6.2216,-6.1678,-6.1012,-6.0858,-6.0902,-6.104,-6.1234,-6.1383,-6.1517,-6.1677,-6.1094,0.0,-5.9414,-5.8555,-5.7695,-5.6836,-5.5937,-5.5508,-5.6406,-5.5937,-5.5234,-5.5078,-5.5039,-5.4531,-5.2773,-5.2461,-5.2461,-5.2461,-5.2578,-5.2695,-5.2695,-5.3164,-5.3633,-5.3945,-5.4453,-5.4844,-5.5039,-5.5664,-5.582,-5.5117,-5.496,-5.4446,-5.3429,-5.3086,-5.2895,-5.2702,-5.2856,-5.3049,-5.3203,-5.3203,-5.3549,-5.4241,-5.4241,-5.4664,-5.5472,-5.5318,-5.5472,0.0,0.0,0.0,0.0,0.0,0.0,0.0,0.0,0.0,0.0,0.0,-7.5592,-7.4322,0.0,-7.7823,-7.9515,-8.2631,-8.5593,-8.7748,-8.9601,-9.1022,-9.1752,-9.1973,-9.2105,-9.2251,-9.2117,-9.2145,-9.236,-9.1837,-9.162,-9.1843,-9.0248,-8.8709,-8.744,-8.5363,-8.3632,-8.2324,-8.1516,-8.0208,-7.8477,-7.8477,-7.6746,-7.3514,-7.3514,-7.2552,-7.0887,-7.0656,-7.0004,-6.9096,-6.827,-6.6595,-6.4551,-6.4128,-6.3205,-6.2062,-6.1601,-6.1166,-6.0781,-6.0781,-6.0945,-6.1172,-6.1259,-6.146,-6.1629,-6.1679,-6.1094,-6.0234,-5.9414,-5.8555,-5.7695,-5.6836,-5.6289,-5.6055,-5.6484,-5.6289,-5.582,-5.539,-5.5312,-5.4765,-5.3047,-5.2695,-5.2695,-5.2695,-5.3047,-5.3359,-5.3359,-5.3711,-5.4141,-5.4609,-5.5039,-5.5469,-5.5898,-5.6328,-5.6406,-5.5976,-5.5389,-5.4738,-5.408,-5.358,-5.3272,-5.3203,-5.3203,-5.3395,-5.3857,-5.3857,-5.4241,-5.5088,-5.5088,-5.5318,-5.5703,-5.528,-5.5318,0.0,0.0,0.0,0.0,0.0,0.0,0.0,0.0,-7.6015,-7.513,-7.6476,-7.7476,-7.6438,-7.8477,-8.0631,-8.167,-8.5093,-8.8017,-8.9017,-9.0364,-9.1308,-9.1634,-9.1789,-9.183,-9.1875,-9.1839,-9.2021,-9.2496,-9.1873,-9.1685,-9.2228,-9.0594,-8.8902,-8.7209,-8.5517,-8.3824,-8.2093,-8.14,-8.0208,-7.8477,-7.8323,-7.6592,-7.35,-7.3322,-7.2399,-7.0873,-7.0162,-6.9598,-6.909,-6.7667,-6.609,-6.4512,-6.3628,-6.282,-6.1985,-6.1127,-6.0781,-6.0781,-6.0781,-6.103,-6.1283,-6.1283,-6.1491,-6.168,-6.1484,-6.0859,-6.0,-5.918,-5.832,-5.75,-5.6797,-5.6601,-5.6601,-5.6601,-5.6484,-5.6172,-5.5469,-5.5156,-5.4648,-5.3242,-5.2969,-5.3008,-5.3164,-5.3789,-5.4258,-5.4258,-5.4414,-5.4765,-5.5469,-5.5547,-5.582,-5.6523,-5.6601,-5.6601,-5.6561,-5.5837,-5.519,-5.4796,-5.4207,-5.3821,-5.3674,-5.3703,-5.401,-5.4703,-5.4741,-5.5049,-5.5703,-5.5703,-5.5703,-5.5703,-5.5703,-5.5703,-6.7782,-6.7568,-6.846,-7.0627,-7.1334,-7.2247,0.0,0.0,-7.6899,-7.6015,-7.7823,-7.9054,-7.7438,-7.9823,-8.2554,-8.4209,-8.6786,-8.9094,-9.071,-9.1095,-9.1497,-9.228,-9.189,-9.1649,-9.1897,-9.1695,-9.1592,-9.1631,-9.1392,-9.1262,-9.1325,-8.9748,-8.8055,-8.6286,-8.4632,-8.2939,-8.1246,-8.1131,-8.0208,-7.8477,-7.7784,-7.6053,-7.3476,-7.2706,-7.1822,-7.086,-7.0054,-6.886,-6.7359,-6.7167,-6.609,-6.4512,-6.3628,-6.282,-6.1985,-6.1127,-6.0781,-6.0781,-6.0781,-6.103,-6.1283,-6.1283,-6.1491,-6.1562,-6.0781,-5.9961,-5.914,-5.8281,-5.7422,-5.6719,-5.664,-5.6601,-5.6601,-5.6601,-5.6015,-5.543,-5.5312,-5.4687,-5.4101,-5.3906,-5.3867,-5.4101,-5.4883,-5.5078,-5.5156,-5.5156,-5.582,-5.6328,-5.6445,-5.6445,-5.6484,-5.6601,-5.6601,-5.6559,-5.6445,-5.6316,-5.6113,-5.5761,-5.5675,-5.5552,-5.5444,-5.5434,-5.5472,-5.5549,-5.5549,-5.5588,-5.5703,-5.5703,-5.5703,-5.5703,-5.5703,-5.5703,-6.8687,-6.8959,-7.0051,-7.0351,-7.2017,-7.4005,-7.5642,-7.7438,-7.8515,-7.763,-7.9862,-8.1785,-8.1093,-8.2901,-8.5093,0.0,-8.8402,-8.9825,-9.1018,-9.0748,-9.0402,-9.0287,-8.9607,-8.974,-9.1329,-9.0928,-9.0551,-9.0551,-9.0042,-8.9748,-8.9748,-8.8132,-8.6632,-8.544,-8.3747,-8.2285,-8.1093,-8.0592,-7.9708,-7.8477,-7.7169,-7.5476,-7.3476,-7.2591,-7.1706,-7.086,-7.0052,-6.9013,-6.7821,-6.7321,-6.6397,-6.5205,-6.3858,-6.3089,-6.2627,-6.1281,-6.0781,-6.0781,-6.0781,-6.103,-6.1283,-6.1283,-6.1491,-6.1523,-6.0664,-5.9844,-5.9023,-5.8164,-5.7265,-5.6601,-5.6601,-5.6601,-5.6601,-5.6601,-5.5937,-5.5312,-5.5312,-5.5,-5.4609,-5.4101,-5.4414,-5.4883,-5.5234,-5.5312,-5.5469,-5.5976,-5.6367,-5.6601,-5.6601,-5.6601,-5.6601,-5.6601,-5.6601,-5.6558,-5.6397,-5.6462,-5.6332,-5.5916,-5.5991,-5.5955,-5.5724,-5.5703,-5.5703,-5.5703,-5.5703,-5.5703,-5.5703,-5.5703,-5.5703,-5.5703,-5.5703,-5.5703,-6.9614,-7.0349,0.0,-7.143,-7.3673,-7.609,-7.6889,-7.9015,-8.0592,-7.9708,-8.1708,-8.3516,-8.3285,-8.4632,-8.6324,-8.8055,-8.921,-9.0287,-9.1402,-9.0402,-8.944,-8.9056,-8.7863,-8.7786,-8.9594,-8.944,-8.9325,-8.9556,-8.9017,-8.8709,-8.8709,-8.7055,-8.5747,-8.4939,-8.3208,-8.19,-8.1093,-8.0246,-7.9361,-7.8477,-7.6553,-7.4899,-7.3437,-7.2129,-7.0898,-6.9821,-6.9475,-6.8706,-6.7667,-6.7282,-6.632,-6.5051,-6.3782,-6.3012,-6.2474,-6.1243,-6.0781,-6.0793,-6.0845,-6.1044,-6.1295,-6.1334,-6.1353,-6.1172,-6.0312,-5.9492,-5.8672,-5.7773,-5.7109,-5.6601,-5.6601,-5.6601,-5.6601,-5.6601,-5.5937,-5.5312,-5.5312,-5.5117,-5.4844,-5.4414,-5.4883,-5.539,-5.5625,-5.5664,-5.5859,-5.6523,-5.6601,-5.6601,-5.6601,-5.6601,-5.6601,-5.6601,-5.6601,-5.656,-5.6458,-5.6512,-5.6394,-5.5998,-5.6084,-5.6102,-5.6071,-5.5818,-5.5818,-5.6049,-5.5818,-5.5703,-5.5703,-5.5703,-5.5703,-5.5703,-5.5703,-5.5703,-6.9894,-7.083,-7.2093,-7.4544,-7.6303,-7.7831,-7.9321,-8.167,-8.3247,-8.2362,-8.2939,-8.3324,-8.2516,-8.3747,-8.5478,-8.7171,-8.8825,-9.0517,-9.221,-9.0287,-8.9017,-8.9787,-8.7671,-8.617,0.0,-8.7017,-8.7825,-8.8671,-8.8709,-8.8709,-8.8709,-8.7055,-8.5747,-8.4939,-8.3208,-8.19,-8.1093,-8.0246,-7.9361,-7.8477,-7.5938,-7.4322,-7.3437,-7.0898,-6.8821,-6.7244,-6.809,-6.7513,-6.6013,-6.6782,-6.5628,-6.3346,-6.332,-6.232,-6.0858,-6.0819,-6.0781,-6.0827,-6.0944,-6.1135,-6.1312,-6.1432,-6.1035,-6.0273,-5.9492,-5.8633,-5.7773,-5.6875,-5.6601,-5.6601,-5.6601,-5.6601,-5.6601,-5.6601,-5.5937,-5.5312,-5.5312,-5.4648,-5.4297,-5.5117,-5.5273,-5.5586,-5.6406,-5.6562,-5.6562,-5.6601,-5.6601,-5.6601,-5.6601,-5.6601,-5.6601,-5.6601,-5.6601,-5.6601,-5.6601,-5.6463,-5.6358,-5.6197,-5.5998,-5.6209,-5.6917,-5.6137,-5.6088,-5.6945,-5.6126,-5.5703,-5.5703,-5.5703,-5.5703,-5.5703,-5.5703,-5.5703,-6.9587,-7.1828,-7.4678,-7.6504,-7.8117,-7.9764,-8.1862,-8.2978,-8.3362,-8.2477,-8.2093,-8.1862,-8.1554,-8.2401,-8.3901,-8.617,-8.7979,-8.971,-9.1402,-9.0402,-8.8979,-8.7555,-8.617,0.0,0.0,0.0,0.0,-8.617,-8.5632,-8.5324,-8.5324,-8.4209,-8.3439,-8.317,-8.2093,-8.1093,-8.0246,-7.9361,-7.8246,-7.6784,-7.3668,-7.1745,-7.0937,-6.9513,-6.8513,-6.7936,-6.7667,-6.7205,-6.6628,-6.5782,-6.4936,-6.4051,-6.2935,-6.2166,-6.1601,-6.1012,-6.0877,-6.0925,-6.097,-6.1143,-6.1312,-6.1474,-6.0998,-6.0234,-5.9453,-5.8594,-5.7734,-5.6836,-5.6601,-5.6601,-5.6601,-5.6601,-5.6601,-5.6601,-5.5937,-5.5312,-5.5312,-5.5078,-5.4961,-5.5234,-5.5781,-5.625,-5.6562,-5.6601,-5.6601,-5.6601,-5.6601,-5.6601,-5.6601,-5.6601,-5.6601,-5.6601,-5.6601,-5.6601,-5.6601,-5.6463,-5.6354,-5.6202,-5.5998,-5.6248,-5.6956,-5.6165,-5.6088,-5.6983,-5.6126,-5.5703,-5.5703,-5.5703,-5.5703,-5.5703,-5.6291,-5.656,-7.0873,-7.3807,-7.7227,-7.8695,-8.045,-8.213,-8.3349,-8.4055,-8.3978,-8.2247,-8.0939,-7.9977,-7.94,-7.9208,-8.0092,-8.2901,-8.4593,-8.6517,-8.944,-8.8594,-8.7248,-8.6209,-8.4863,-8.3439,0.0,0.0,0.0,-8.4401,-8.3901,-8.3593,-8.3593,-8.2747,-8.2285,-8.2285,-8.1516,-8.0669,-7.9823,-7.8938,-7.7361,-7.5053,-7.2245,-7.0321,-6.9206,-6.8321,-6.7782,-6.7475,-6.6898,-6.6667,-6.6551,-6.5166,-6.4436,-6.4012,-6.2627,-6.1908,-6.1562,-6.1012,-6.0892,-6.1014,-6.1089,-6.124,-6.1383,-6.1517,-6.0852,-5.9922,-5.9687,-5.8594,-5.7383,-5.7148,-5.6836,-5.6601,-5.6601,-5.6601,-5.6601,-5.6601,-5.6172,-5.5742,-5.5742,-5.5742,-5.5742,-5.5742,-5.6211,-5.6601,-5.6601,-5.6601,-5.6601,-5.6601,-5.6601,-5.6601,-5.6601,-5.6601,-5.6601,-5.6601,-5.6601,-5.6601,-5.6601,-5.6448,-5.6394,-5.6625,-5.6428,-5.6773,-5.783,-5.7088,-5.6896,-5.7434,-5.6588,-5.6011,-5.5703,-5.5703,-5.5703,-5.5703,-5.6599,-5.6983,-7.3749,-7.6653,-7.9584,-8.1143,-8.321,-8.467,-8.3862,-8.4824,-8.4978,-8.1631,-7.9515,-7.7707,0.0,0.0,-7.4668,-7.7938,-7.94,-8.1862,-8.6786,-8.5401,-8.4439,0.0,0.0,0.0,0.0,0.0,0.0,-8.3478,0.0,-8.3478,-8.3478,-8.267,-8.2247,-8.2247,-8.1516,-8.0669,-7.9746,-7.8746,-7.663,-7.3462,-7.1668,-6.9937,-6.8359,-6.7436,-6.6628,-6.5897,-6.5897,-6.5897,-6.582,-6.4897,-6.4051,-6.3243,-6.2358,-6.1524,-6.0781,-6.0781,-6.0902,-6.1048,-6.1234,-6.1378,-6.1515,-6.1677,-6.0586,-5.9414,-6.0156,-5.8672,-5.6914,-5.7695,-5.7305,-5.664,-5.6601,-5.6601,-5.6601,-5.6601,-5.6601,-5.6601,-5.6601,-5.6601,-5.6601,-5.6601,-5.6601,-5.6601,-5.6601,-5.6601,-5.6601,-5.6601,-5.6601,-5.6601,-5.6601,-5.664,-5.668,-5.668,-5.6719,-5.6719,-5.6719,-5.6482,-5.6658,-5.7431,-5.7232,-5.778,-5.9435,-5.8742,-5.8319,-5.8357,-5.7511,-5.6676,-5.5818,-5.578,-5.578,-5.5857,-5.6676,-5.7099,-7.6225,-7.8894,-8.1412,-8.2898,-8.4112,-8.4863,-8.4632,-8.3901,-8.2477,-7.9708,-7.6823,-7.4245,0.0,0.0,0.0,-7.8054,-8.1862,0.0,-8.7979,-8.8325,0.0,-8.6286,0.0,-8.4555,-8.3093,-8.2554,0.0,0.0,-8.2093,-8.1747,-8.1747,-8.1516,-8.14,-8.14,-8.1208,-8.0362,-7.8861,-7.613,-7.4361,-7.3476,-7.0475,-6.8821,-6.8359,-6.6898,-6.609,-6.5897,-6.5897,-6.5897,-6.5782,-6.4282,-6.3512,-6.3166,-6.1704,-6.1012,-6.0781,-6.0781,-6.0983,-6.1227,-6.1271,-6.1378,-6.1515,-6.1677,-6.0976,-6.0117,-6.0351,-5.9531,-5.8437,-5.8008,-5.7734,-5.7422,-5.6758,-5.6601,-5.6601,-5.6601,-5.6601,-5.6601,-5.6601,-5.6601,-5.6601,-5.6601,-5.6601,-5.6601,-5.6601,-5.6601,-5.6601,-5.6601,-5.6601,-5.6601,-5.6601,-5.7187,-5.7578,-5.7578,-5.8164,-5.8555,-5.8555,-5.8237,-5.8137,-5.8371,-5.8121,-5.8434,-5.9473,-5.8742,-5.8588,-5.9165,-5.8396,-5.7857,-5.7627,-5.6973,-5.7011,-5.7627,-5.7857,-5.828,-7.8321,-8.099,-8.349,-8.4571,-8.5445,-8.5593,-8.4093,-8.3016,-8.117,-7.713,-7.4207,-7.186,-7.0129,-7.0667,0.0,0.0,0.0,0.0,-8.6055,-8.7171,-8.7325,0.0,-8.5786,0.0,-8.317,-8.3285,-8.2978,0.0,-8.1362,-8.1093,-8.1093,-8.1093,-8.1093,-8.1093,-8.1093,-8.0092,-7.7977,-7.5014,-7.3129,-7.2322,-6.9667,-6.8205,-6.7782,-6.6474,-6.5897,-6.5897,0.0,-6.5667,-6.5205,-6.3858,-6.3089,-6.2627,-6.132,-6.0781,-6.0858,-6.1243,-6.133,-6.1361,-6.1711,-6.172,-6.1587,-6.1679,-6.1094,-6.0469,-6.0859,-6.0156,-5.918,-5.9023,-5.8476,-5.789,-5.7773,-5.7461,-5.7265,-5.7656,-5.7461,-5.7187,-5.7187,-5.7187,-5.7187,-5.7187,-5.6875,-5.6601,-5.6601,-5.6914,-5.7187,-5.7187,-5.75,-5.7734,-5.7734,-5.7812,-5.8047,-5.8437,-5.8906,-5.9219,-5.9219,-5.89,-5.8877,-5.926,-5.9002,-5.9204,-6.005,-5.9627,-5.9435,-5.9511,-5.905,-5.8665,-5.8319,-5.7819,-5.7819,-5.8319,-5.8665,-5.9088,-8.0626,-8.3153,-8.5643,-8.6153,-8.6748,-8.6363,-8.3054,-8.1939,-8.0015,-7.4322,0.0,-7.0052,-6.8398,-6.7744,-6.859,-7.2129,0.0,-7.9092,-8.3324,-8.4593,-8.5324,-8.6017,-8.5401,-8.4324,-8.2785,-8.3785,-8.3632,-8.1439,-8.117,-8.1093,-8.1093,-8.1093,-8.1054,-8.0939,-8.0823,-7.9592,-7.713,-7.4707,-7.2668,-7.1052,-6.936,-6.8129,-6.7244,-6.6436,-6.6013,-6.5897,-6.5897,-6.5474,-6.4705,-6.382,-6.3051,-6.237,-6.1473,-6.1127,-6.1204,-6.1973,-6.1901,-6.1556,-6.225,-6.2148,-6.1719,-6.1719,-6.1172,-6.0703,-6.1484,-6.0664,-5.9648,-6.0234,-5.9336,-5.8398,-5.9023,-5.8633,-5.8242,-5.9023,-5.8633,-5.8086,-5.8086,-5.8086,-5.8086,-5.8086,-5.7461,-5.6953,-5.6953,-5.7578,-5.8086,-5.8086,-5.8711,-5.9258,-5.9336,-5.8711,-5.8515,-5.9297,-5.9453,-5.9531,-5.9531,-5.9264,-5.9405,-6.011,-5.988,-6.0019,-6.0781,-6.0781,-6.0435,-5.9704,-5.9665,-5.9319,-5.8627,-5.8511,-5.8511,-5.8665,-5.9242,-5.955,-8.4511,-8.6148,-8.7254,-8.7192,-8.6748,-8.5632,-8.2901,-8.0169,0.0,0.0,-7.0014,-6.8321,-6.6628,-6.7936,-7.0591,-7.4668,-7.7592,-8.0823,-8.5055,-8.5786,-8.594,0.0,-8.5401,-8.4786,-8.4478,-8.3439,0.0,0.0,-8.1477,-8.1093,-8.1093,-8.1093,-8.0785,-8.0054,-7.9323,-7.8054,-7.6245,-7.4399,-7.2976,-7.1937,-7.0283,-6.9013,-6.8167,-6.7282,-6.6513,-6.5897,-6.5897,0.0,-6.559,-6.4743,-6.4282,-6.4089,-6.3205,-6.2858,-6.2897,-6.3051,-6.2752,-6.2289,-6.2445,-6.2148,-6.1719,-6.1719,-6.1601,-6.1484,-6.164,-6.1484,-6.1133,-6.0547,-6.0195,-5.9844,-5.9336,-5.9101,-5.9023,-5.914,-5.9062,-5.8984,-5.8984,-5.8984,-5.8984,-5.8984,-5.8867,-5.875,-5.875,-5.8867,-5.8984,-5.8984,-5.9101,-5.9453,-6.0117,-6.0078,-6.0039,-6.0195,-6.0859,-6.1289,-6.1289,-6.1102,-6.1015,-6.1061,-6.0848,-6.076,-6.0793,-6.0781,-6.0742,-6.0589,-6.055,-6.0512,-6.0358,-5.9627,-5.9665,-6.0358,-5.9781,-5.9896,-8.5681,-8.778,-8.9378,-8.8837,-8.8055,-8.6324,-8.1977,0.0,0.0,0.0,-6.8629,-6.7898,-6.6205,0.0,0.0,-7.2322,0.0,0.0,0.0,-8.2939,0.0,-8.4709,-8.4863,-8.4555,0.0,-8.3208,-8.2593,-8.1747,-8.1708,-8.1554,-8.1131,-8.1093,-8.0708,-7.9823,-7.8938,-7.7476,-7.5361,-7.413,-7.2629,-7.086,-6.9629,-6.8821,-6.8359,-6.7051,-6.6474,-6.6513,-6.609,0.0,-6.5205,-6.4782,-6.432,-6.3897,-6.3462,-6.3308,-6.3346,-6.382,-6.332,-6.247,-6.2996,-6.2461,-6.1627,-6.1679,-6.1719,-6.1719,-6.1719,-6.1719,-6.1601,-6.1172,-6.0742,-6.043,-6.0469,-6.0156,-5.9922,-6.039,-6.0156,-5.9805,-5.9805,-5.9492,-5.9336,-5.9726,-5.9492,-5.9219,-5.9219,-5.9531,-5.9805,-5.9805,-6.0195,-6.0625,-6.1015,-6.1094,-6.1094,-6.1094,-6.1445,-6.1719,-6.1719,-6.1579,-6.1424,-6.1295,-6.1214,-6.1062,-6.0804,-6.086,-6.0871,-6.0793,-6.0781,-6.0781,-6.0781,-6.0396,-6.0396,-6.0781,-6.0358,-6.0396,-8.6632,-8.9171,-9.1325,-9.0633,-8.944,-8.694,-8.1362,-7.8361,0.0,0.0,-6.7782,-6.7667,-6.6167,0.0,0.0,0.0,0.0,0.0,0.0,0.0,0.0,0.0,0.0,0.0,-8.2439,-8.2747,0.0,-8.1208,-8.1516,-8.1477,-8.0862,-8.0823,-8.0323,-7.9285,-7.8592,-7.7015,-7.4476,-7.3822,-7.2322,-6.9937,-6.9283,-6.8859,-6.8629,-6.7128,-6.6667,-6.7051,-6.6244,-6.5513,0.0,-6.4897,-6.4474,-6.3858,-6.3858,-6.3858,-6.3935,-6.4628,-6.3891,-6.268,-6.3507,-6.2771,-6.1515,-6.1677,-6.1719,-6.1719,-6.1719,-6.1719,-6.1719,-6.1719,-6.1211,-6.0859,-6.1523,-6.1172,-6.0859,-6.1523,-6.1172,-6.0664,-6.0664,-6.0195,-5.9922,-6.0547,-6.0156,-5.9726,-5.9726,-6.0273,-6.0664,-6.0664,-6.125,-6.1719,-6.1719,-6.1719,-6.1719,-6.1719,-6.1719,-6.1719,-6.1719,-6.1588,-6.1495,-6.1344,-6.1334,-6.1207,-6.0913,-6.1018,-6.1,-6.0845,-6.0845,-6.0811,-6.0781,-6.0781,-6.0781,-6.0781,-6.0781,-6.0781,-8.9133,-9.0941,-9.2364,-9.2287,-8.9863,-8.6363,-8.1977,0.0,-7.3668,-6.9206,-6.7705,-6.6936,-6.6051,0.0,0.0,0.0,0.0,-7.3129,0.0,0.0,0.0,0.0,0.0,0.0,0.0,-8.1708,0.0,-8.1093,-8.0439,-8.0015,-7.9939,-7.9939,-7.9208,-7.7592,-7.7438,-7.6207,-7.363,-7.3538,-7.2591,-7.0783,-7.0706,-7.0283,-6.9552,-6.859,-6.7782,-6.7051,-6.6244,-6.5859,0.0,-6.5782,-6.5743,-6.5667,-6.5667,-6.5667,-6.5667,-6.5743,-6.4817,-6.3494,-6.374,-6.2771,-6.1515,-6.1677,-6.1719,-6.1719,-6.1719,-6.1719,-6.1719,-6.1719,-6.164,-6.1601,-6.168,-6.164,-6.1601,-6.168,-6.164,-6.1562,-6.1562,-6.1523,-6.1484,-6.1562,-6.1523,-6.1484,-6.1484,-6.1523,-6.1562,-6.1562,-6.164,-6.1719,-6.1719,-6.1719,-6.1719,-6.1719,-6.1719,-6.1719,-6.1719,-6.1679,-6.1632,-6.1498,-6.1491,-6.1404,-6.1246,-6.1259,-6.1186,-6.097,-6.097,-6.0935,-6.0781,-6.0781,-6.0781,-6.0781,-6.0781,-6.0781,-8.844,-9.0787,-9.2479,-9.2479,-8.9171,-8.4939,-8.117,0.0,-7.2937,-6.9154,-6.8552,-6.8244,-6.6859,0.0,0.0,0.0,0.0,0.0,0.0,0.0,0.0,0.0,0.0,0.0,0.0,0.0,-8.1093,-8.1093,-8.0285,-7.9592,-7.9054,-7.8554,-7.7746,-7.6553,-7.6015,-7.4745,-7.2745,-7.2706,-7.2091,-7.0898,-7.0398,-7.0244,-7.036,-6.8475,-6.7705,-6.7821,-6.6474,-6.5897,0.0,-6.5897,-6.5897,-6.5897,-6.5897,-6.6205,-6.6551,-6.609,-6.5163,-6.4155,-6.3791,-6.2679,-6.1392,-6.1522,-6.1634,-6.1719,-6.1719,-6.1719,-6.1719,-6.1719,-6.1719,-6.1719,-6.1719,-6.1719,-6.1719,-6.1719,-6.1719,-6.1719,-6.1719,-6.1719,-6.1719,-6.1719,-6.1719,-6.1719,-6.1719,-6.1719,-6.1719,-6.1719,-6.1719,-6.1719,-6.1719,-6.1719,-6.1719,-6.1719,-6.1719,-6.1719,-6.1719,-6.1719,-6.1636,-6.1507,-6.1579,-6.1517,-6.1295,-6.1369,-6.1273,-6.1006,-6.0997,-6.0916,-6.0781,-6.0781,-6.0781,-6.0781,-6.0781,-6.0781,-8.6709,-8.9594,-9.1787,-9.2056,-8.8479,-8.4016,0.0,0.0,-7.2591,-6.9436,-6.9283,-6.9167,-6.7398,0.0,0.0,0.0,0.0,0.0,0.0,0.0,0.0,0.0,0.0,-7.7938,0.0,-8.0516,-8.0977,-8.0746,-7.99,-7.9054,-7.8169,-7.6899,-7.6015,-7.563,-7.4784,-7.3668,-7.2206,-7.2206,-7.1745,-7.0898,-7.0321,-7.0244,-7.0475,-6.8436,-6.7667,-6.7936,-6.6513,0.0,0.0,-6.5897,-6.5897,-6.5897,-6.5897,-6.6244,-6.6667,-6.609,-6.5359,-6.4511,-6.3835,-6.2758,-6.1623,-6.1513,-6.1584,-6.1719,-6.1719,-6.1719,-6.1719,-6.1719,-6.1719,-6.1719,-6.1719,-6.1719,-6.1719,-6.1719,-6.1719,-6.1719,-6.1719,-6.1719,-6.1719,-6.1719,-6.1719,-6.1719,-6.1719,-6.1719,-6.1719,-6.1719,-6.1719,-6.1719,-6.1719,-6.1719,-6.1719,-6.1719,-6.1719,-6.1719,-6.1719,-6.1719,-6.1677,-6.1575,-6.1637,-6.163,-6.1413,-6.1509,-6.1421,-6.1105,-6.1097,-6.0991,-6.0781,-6.0781,-6.0781,-6.0781,-6.0781,-6.0781,-8.4247,-8.7401,-9.0133,-9.1018,-8.8017,-8.4016,0.0,0.0,-7.2783,-7.0206,-6.9706,-6.9167,-6.7398,0.0,0.0,0.0,0.0,0.0,0.0,0.0,0.0,0.0,0.0,-7.5091,-7.5976,-7.9092,-8.0746,-7.99,-7.9015,0.0,-7.7361,-7.4899,-7.3899,-7.4707,-7.3937,-7.3091,-7.2206,-7.2206,-7.1745,-7.0898,-7.0898,-7.0475,-6.9667,-6.8783,-6.7936,-6.7051,0.0,0.0,0.0,-6.5897,-6.5897,-6.5897,-6.5897,-6.5897,-6.5897,-6.5897,-6.5359,-6.4511,-6.3835,-6.3099,-6.2396,-6.1708,-6.1584,-6.1719,-6.1719,-6.1719,-6.1719,-6.1719,-6.1719,-6.1719,-6.1719,-6.1719,-6.1719,-6.1719,-6.1719,-6.1719,-6.1719,-6.1719,-6.1719,-6.1719,-6.1719,-6.1719,-6.1719,-6.1719,-6.1719,-6.1719,-6.1719,-6.1719,-6.1719,-6.1719,-6.1719,-6.1719,-6.1719,-6.1719,-6.1719,-6.1719,-6.1719,-6.1719,-6.1719,-6.1719,-6.1719,-6.1719,-6.1577,-6.1289,-6.1283,-6.1143,-6.0781,-6.0781,-6.0781,-6.0781,-6.0781,-6.0781,-8.0708,-8.2631,-8.4093,-8.4901,-8.1939,-7.8515,-7.7438,0.0,-7.1475,-7.0706,-7.0514,-7.0014,-6.8321,0.0,0.0,0.0,0.0,0.0,0.0,0.0,0.0,0.0,0.0,0.0,0.0,0.0,-8.0746,-7.9862,-7.8977,-7.79,-7.6476,-7.4553,-7.363,-7.386,-7.2476,-7.1591,-7.1321,-7.0783,-7.036,-7.009,-7.009,-6.9629,-6.8821,-6.8552,-6.7936,0.0,0.0,0.0,0.0,-6.5243,-6.5359,-6.5897,-6.5897,-6.6244,-6.6628,-6.609,-6.5359,-6.4486,-6.3696,-6.2632,-6.1639,-6.1417,-6.1512,-6.1719,-6.1719,-6.1719,-6.1719,-6.1719,-6.1719,-6.1719,-6.1719,-6.1719,-6.1719,-6.1719,-6.1719,-6.1719,-6.1719,-6.1719,-6.1719,-6.1719,-6.1719,-6.1719,-6.1719,-6.1719,-6.1719,-6.1719,-6.1719,-6.1914,-6.25,-6.2578,-6.2578,-6.2578,-6.3125,-6.3242,-6.2656,-6.2031,-6.1953,-6.2539,-6.2031,-6.1719,-6.1719,-6.1719,-6.1903,-6.2321,-6.165,-6.149,-6.1834,-6.1235,-6.0925,-6.0916,-6.0845,-6.0781,0.0,-7.9208,-8.0323,-8.1131,-7.8669,-7.5899,0.0,0.0,0.0,0.0,-7.0437,-6.9937,0.0,0.0,0.0,0.0,0.0,0.0,0.0,0.0,0.0,-7.3899,0.0,0.0,0.0,-8.0054,-7.9977,-7.8477,-7.7861,-7.6823,-7.5168,-7.3745,-7.3014,-7.3014,-7.1629,-7.0744,-7.0437,-6.9937,-6.9513,-6.9206,-6.9206,-6.8744,-6.7898,-6.7898,-6.7436,0.0,0.0,0.0,0.0,-6.5628,-6.5859,-6.6359,-6.6359,-6.6667,-6.7013,-6.6205,-6.5359,-6.4474,-6.3589,-6.2607,-6.1711,-6.14,-6.1491,-6.1719,-6.1719,-6.1719,-6.1719,-6.1719,-6.1719,-6.1719,-6.1719,-6.1719,-6.1719,-6.1719,-6.1719,-6.1719,-6.1719,-6.1719,-6.1719,-6.1719,-6.1719,-6.1719,-6.1719,-6.1719,-6.1719,-6.1719,-6.1992,-6.2383,-6.293,-6.3281,-6.3476,-6.3476,-6.3984,-6.4219,-6.3984,-6.289,-6.2422,-6.2969,-6.2187,-6.1836,-6.2187,-6.2187,-6.2534,-6.3263,-6.2695,-6.2396,-6.2416,-6.1475,-6.0997,-6.0997,-6.085,-6.0781,0.0,-7.6669,-7.8092,-7.8938,-7.74,-7.5438,-7.463,0.0,0.0,0.0,0.0,0.0,0.0,0.0,0.0,0.0,0.0,0.0,0.0,-6.8282,0.0,0.0,-7.5284,0.0,-7.6207,-7.8361,-7.8784,-7.6284,-7.6053,0.0,-7.3514,-7.2629,-7.2168,-7.2091,-7.1321,-7.0514,-6.9706,-6.9629,-6.9167,-6.8321,-6.8321,-6.7859,-6.7013,-6.7013,-6.659,0.0,0.0,0.0,0.0,-6.6705,-6.7013,-6.7013,-6.709,-6.7051,-6.6898,-6.609,-6.5243,-6.4397,-6.3512,-6.2878,-6.2295,-6.1584,-6.1501,-6.1719,-6.1719,-6.1719,-6.1719,-6.1719,-6.1719,-6.1719,-6.1719,-6.1719,-6.1719,-6.1719,-6.1719,-6.1719,-6.1719,-6.1719,-6.1719,-6.1719,-6.1719,-6.1719,-6.1797,-6.1797,-6.1797,-6.1875,-6.2578,-6.3125,-6.3164,-6.3906,-6.4375,-6.4375,-6.4453,-6.4805,-6.5547,-6.3984,-6.3047,-6.3086,-6.2226,-6.2109,-6.2969,-6.3008,-6.3394,-6.4172,-6.4202,-6.3651,-6.2597,-6.1586,-6.1092,-6.1023,-6.086,-6.0781,-7.0898,0.0,-7.1975,-7.2783,-7.2552,-7.2052,0.0,0.0,0.0,0.0,0.0,0.0,0.0,0.0,0.0,0.0,0.0,0.0,-6.6744,0.0,0.0,-7.6092,-7.8477,-7.9361,-7.8054,-7.9054,-7.9015,0.0,0.0,-7.4976,-7.2629,-7.2322,-7.1898,-7.1245,-7.1014,-7.0514,-6.9706,-6.9052,-6.8282,-6.7398,-6.7398,-6.6974,-6.6167,-6.6167,-6.609,0.0,0.0,0.0,-6.5897,-6.609,-6.6167,-6.6244,-6.6859,-6.6705,-6.609,-6.5205,-6.4359,-6.3512,-6.2666,-6.2027,-6.1596,-6.1603,-6.1637,-6.1719,-6.1719,-6.1719,-6.1719,-6.1719,-6.1719,-6.1719,-6.1719,-6.1719,-6.1719,-6.1719,-6.1719,-6.1719,-6.1719,-6.1719,-6.1719,-6.1719,-6.1719,-6.1914,-6.2578,-6.2695,-6.293,-6.3594,-6.3867,-6.4258,-6.4883,-6.5156,-6.5273,-6.5273,-6.5898,-6.6094,-6.5625,-6.3984,-6.3281,-6.3945,-6.2539,-6.2109,-6.2969,-6.3008,-6.371,-6.5231,-6.5165,-6.431,-6.2762,-6.2242,-6.1718,-6.122,-6.0943,-6.0781,-6.9206,-6.9667,-7.0283,-7.0321,-7.0629,-7.0898,-7.0898,0.0,0.0,0.0,0.0,0.0,0.0,0.0,0.0,0.0,-6.5859,0.0,0.0,0.0,-7.3707,-7.74,-7.9054,-7.9554,0.0,0.0,-7.7784,0.0,0.0,-7.3476,-7.1706,-7.1245,-7.1014,-7.0898,-7.0552,-6.9937,-6.9129,-6.8629,-6.7782,-6.6551,-6.6551,-6.609,-6.532,-6.5705,-6.5667,0.0,0.0,0.0,-6.5974,-6.7167,-6.7167,-6.6513,-6.7359,-6.6974,-6.5782,-6.4936,-6.382,-6.2704,-6.2255,-6.1765,-6.1334,-6.1629,-6.1719,-6.1719,-6.1719,-6.1719,-6.1719,-6.1719,-6.1719,-6.1719,-6.1719,-6.1719,-6.1719,-6.1719,-6.1719,-6.1719,-6.1719,-6.1719,-6.1836,-6.2226,-6.2305,-6.2578,-6.3437,-6.3594,-6.375,-6.4219,-6.4648,-6.5078,-6.5547,-6.5937,-6.6211,-6.6211,-6.6601,-6.6719,-6.625,-6.4961,-6.4375,-6.4883,-6.3242,-6.2695,-6.3555,-6.3594,-6.4414,-6.6172,-6.5735,-6.4818,-6.3419,-6.2801,-6.21,-6.1316,-6.1435,-6.125,-6.8821,-6.9937,-7.1052,-6.9975,-7.0283,-7.0898,-7.0898,0.0,0.0,0.0,0.0,0.0,0.0,-6.5205,0.0,0.0,0.0,0.0,-7.0898,-7.1591,-7.3322,-7.7784,-7.8515,0.0,-7.8323,-7.7592,0.0,0.0,0.0,-7.1629,-7.0744,-6.9937,-6.986,-7.0706,-6.9937,-6.9167,-6.8398,-6.8385,-6.7552,-6.5897,-6.5897,-6.5513,-6.482,-6.5436,-6.5359,-6.4859,0.0,0.0,-6.6244,-6.8398,-6.8436,-6.7167,-6.7782,-6.709,-6.559,-6.4589,-6.332,-6.2062,-6.1955,-6.1637,-6.1334,-6.1584,-6.1678,-6.1679,-6.168,-6.1679,-6.1679,-6.168,-6.1719,-6.1719,-6.1719,-6.1719,-6.1719,-6.1719,-6.1719,-6.1719,-6.1719,-6.1719,-6.1914,-6.2656,-6.289,-6.3281,-6.414,-6.4414,-6.4531,-6.4687,-6.5312,-6.5781,-6.5781,-6.6445,-6.6914,-6.6914,-6.6914,-6.6914,-6.6914,-6.6211,-6.5781,-6.5781,-6.4023,-6.3398,-6.4258,-6.4414,-6.5234,-6.6834,-6.6131,-6.5181,-6.4063,-6.3322,-6.2375,-6.1322,-6.1858,-6.1737,-6.9706,-7.1283,-7.2552,-7.0283,-7.0283,-7.0898,-7.0898,0.0,0.0,0.0,0.0,0.0,0.0,-6.5282,-6.5513,0.0,0.0,-6.9283,0.0,0.0,-7.5784,-7.7284,0.0,0.0,0.0,0.0,0.0,0.0,0.0,-7.0744,-6.9937,-6.909,-6.9013,-6.986,-6.9052,-6.8552,-6.8385,-6.8385,-6.7552,-6.5897,-6.5897,-6.582,-6.5667,-6.5051,-6.5128,-6.5667,0.0,-6.5705,-6.6936,-6.7321,-6.7321,-6.7051,-6.6513,-6.5667,-6.4628,-6.3051,-6.2332,-6.2021,-6.137,-6.1229,-6.1318,-6.1491,-6.152,-6.1568,-6.1678,-6.1631,-6.1532,-6.1678,-6.1719,-6.1719,-6.1719,-6.1719,-6.1719,-6.1719,-6.1719,-6.1719,-6.1719,-6.1719,-6.1758,-6.1875,-6.25,-6.3281,-6.414,-6.4922,-6.5664,-6.6406,-6.6601,-6.6719,-6.6719,-6.6836,-6.6914,-6.6914,-6.6914,-6.6914,-6.6914,-6.6797,-6.6719,-6.6719,-6.4375,-6.3398,-6.4258,-6.5,-6.5776,-6.6636,-6.6517,-6.5578,-6.3854,-6.3698,-6.283,-6.1283,-6.1415,-6.1363,-6.9937,-7.086,-7.1706,-7.009,-7.0667,-7.1245,-6.986,0.0,0.0,0.0,0.0,0.0,0.0,0.0,-6.6859,-6.7859,0.0,-7.2014,-7.4361,-7.4668,-7.5322,0.0,0.0,0.0,0.0,0.0,0.0,0.0,0.0,0.0,-6.9052,-6.8167,-6.8321,-6.9667,-6.8398,-6.7936,-6.8385,-6.7513,-6.6436,-6.5205,-6.5205,-6.4936,-6.4512,-6.4589,-6.482,-6.5243,0.0,-6.6128,-6.6513,-6.7436,-6.7282,-6.6397,-6.6051,-6.5089,-6.3705,-6.2012,-6.1408,-6.1366,-6.1109,-6.1065,-6.1179,-6.1339,-6.1383,-6.1404,-6.1568,-6.1568,-6.1517,-6.1677,-6.1719,-6.1719,-6.1719,-6.1719,-6.1719,-6.1719,-6.1719,-6.1719,-6.1719,-6.1719,-6.1992,-6.293,-6.3437,-6.414,-6.5469,-6.6055,-6.6445,-6.6836,-6.6914,-6.6914,-6.6914,-6.6914,-6.6914,-6.6914,-6.6914,-6.6914,-6.6914,-6.6914,-6.6719,-6.6211,-6.5078,-6.457,-6.5,-6.539,-6.5931,-6.658,-6.6616,-6.5905,-6.4486,-6.4564,-6.3973,-6.2808,-6.2799,-6.2804,-7.0167,-7.0744,-7.1206,-7.0014,-7.0821,-7.1437,-6.9706,-6.9283,-6.909,0.0,0.0,0.0,0.0,-6.6244,0.0,-7.0475,-7.2514,-7.413,-7.5168,-7.4938,-7.5399,-7.7361,-7.663,-7.6015,0.0,0.0,0.0,0.0,0.0,0.0,-6.8129,-6.7282,-6.7513,-6.9052,-6.759,-6.7244,-6.809,-6.6436,-6.5243,-6.4589,-6.4397,-6.4051,-6.3628,-6.432,-6.4705,-6.4974,-6.6244,-6.659,-6.6282,-6.7359,-6.7167,-6.6128,-6.5513,-6.4243,-6.2551,-6.1281,-6.0781,-6.0816,-6.0925,-6.0952,-6.1031,-6.1186,-6.1227,-6.1271,-6.1432,-6.1488,-6.1495,-6.1638,-6.1719,-6.1719,-6.1719,-6.1719,-6.1719,-6.1719,-6.1719,-6.1719,-6.1719,-6.1719,-6.2148,-6.3711,-6.414,-6.4805,-6.6328,-6.6758,-6.6914,-6.6914,-6.6914,-6.6914,-6.6914,-6.6914,-6.6914,-6.6914,-6.6914,-6.6914,-6.6914,-6.6914,-6.6719,-6.625,-6.582,-6.5586,-6.5586,-6.5545,-6.5884,-6.658,-6.6557,-6.6074,-6.5109,-6.5242,-6.4899,-6.4085,-6.4135,-6.4143,-7.0821,-7.2052,-7.2745,-7.0321,-7.036,-7.1168,-7.1783,-7.1937,-7.1898,-7.186,-7.1206,0.0,0.0,-6.7013,-6.7936,-7.0475,-7.2976,-7.5207,-7.6861,0.0,-7.8207,-7.84,-7.6976,-7.6015,0.0,0.0,0.0,0.0,0.0,0.0,-6.7244,-6.6436,-6.6397,-6.7244,-6.6436,-6.6359,-6.7167,-6.5513,-6.4666,-6.4589,-6.3782,-6.3782,-6.4512,-6.4589,-6.5051,-6.582,-6.5936,-6.6359,-6.6974,-6.632,-6.6436,-6.6782,-6.4397,-6.2474,-6.0973,-6.0819,-6.0781,-6.0793,-6.0816,-6.0923,-6.1006,-6.1023,-6.1023,-6.1066,-6.1409,-6.14,-6.1359,-6.1632,-6.1719,-6.1719,-6.1719,-6.1719,-6.1719,-6.1719,-6.1719,-6.1719,-6.1719,-6.1719,-6.1992,-6.289,-6.375,-6.4609,-6.5547,-6.6367,-6.6914,-6.6914,-6.6914,-6.6914,-6.6914,-6.6914,-6.6914,-6.6914,-6.6914,-6.6914,-6.6914,-6.6914,-6.7226,-6.7969,-6.6484,-6.5586,-6.5586,-6.5407,-6.5725,-6.6577,-6.6478,-6.5971,-6.5109,-6.5242,-6.4899,-6.4085,-6.4211,-6.4296,-7.0898,-7.1398,-7.1668,-7.0706,-7.0283,-7.036,-7.1206,-7.1398,-7.1398,-7.1398,-7.1552,-7.1091,0.0,0.0,-6.9552,-7.2091,-7.4668,-7.6707,-7.7861,-7.74,-7.6938,-7.6938,-7.5476,0.0,0.0,0.0,0.0,0.0,0.0,0.0,-6.559,-6.5243,-6.5705,-6.7051,-6.632,-6.6051,-6.6359,-6.4666,-6.3551,-6.3051,-6.2704,-6.2974,-6.3782,-6.3782,-6.4551,-6.5897,-6.5897,-6.6051,-6.632,-6.6013,-6.609,-6.6128,-6.4089,-6.2281,-6.0781,-6.0781,-6.0781,-6.0781,-6.0781,-6.0823,-6.0871,-6.0871,-6.0871,-6.0935,-6.1283,-6.1334,-6.1349,-6.1632,-6.1719,-6.1719,-6.1719,-6.1719,-6.1719,-6.1719,-6.1719,-6.1719,-6.1719,-6.1719,-6.2109,-6.3515,-6.4062,-6.4765,-6.6172,-6.668,-6.6914,-6.6914,-6.6914,-6.6914,-6.6914,-6.7383,-6.7695,-6.7695,-6.7695,-6.7695,-6.7695,-6.7695,-6.8047,-6.8906,-6.7851,-6.7226,-6.7226,-6.7144,-6.6932,-6.6616,-6.6541,-6.6365,-6.6018,-6.6092,-6.6017,-6.5812,-6.5351,-6.539,-7.0129,-7.0129,-6.9975,-6.9436,0.0,0.0,-7.1052,-7.1514,-7.1937,-7.2745,-7.2552,-7.1668,-7.0014,0.0,0.0,0.0,-7.4668,-7.6592,-7.6861,-7.6169,-7.5515,-7.5245,0.0,0.0,0.0,0.0,0.0,0.0,0.0,0.0,0.0,-6.4589,-6.5243,-6.6667,-6.5936,-6.5474,-6.5474,-6.3782,-6.2627,-6.2101,-6.1831,-6.2243,-6.3308,-6.3308,-6.4243,-6.5897,-6.5897,-6.5897,-6.5897,-6.5897,-6.559,-6.4936,-6.3474,-6.205,-6.0781,-6.0781,-6.0781,-6.0781,-6.0781,-6.0781,-6.0781,-6.0781,-6.0781,-6.0856,-6.1179,-6.1283,-6.1349,-6.1632,-6.1719,-6.1719,-6.1719,-6.1719,-6.1719,-6.1719,-6.1719,-6.1719,-6.1719,-6.1914,-6.2539,-6.4023,-6.4531,-6.5195,-6.664,-6.6914,-6.6914,-6.6914,-6.7148,-6.7305,-6.7305,-6.7812,-6.8203,-6.8203,-6.8437,-6.8594,-6.8594,-6.8594,-6.8945,-6.9765,-6.9297,-6.8867,-6.8594,-6.8278,-6.7801,-6.7119,-6.6784,-6.6628,-6.669,-6.669,-6.6784,-6.6875,-6.6289,-6.6328,-6.8436,-6.8436,-6.8013,-6.6359,0.0,0.0,-7.1822,-7.286,-7.4207,-7.6746,-7.4553,-7.1668,-7.0014,-6.9706,0.0,-6.9706,-7.2476,-7.4399,-7.3577,0.0,0.0,0.0,0.0,0.0,0.0,0.0,0.0,0.0,0.0,0.0,0.0,-6.4589,-6.4974,-6.5859,-6.5051,-6.4589,-6.4589,-6.2935,-6.2101,-6.2101,-6.1204,-6.1666,-6.3308,-6.3308,-6.4243,-6.5897,-6.5897,-6.5897,-6.5897,-6.5859,-6.4859,-6.3205,-6.2397,-6.1562,-6.0781,-6.0781,-6.0781,-6.0781,-6.0781,-6.0781,-6.0781,-6.0781,-6.0781,-6.0856,-6.1179,-6.1283,-6.1349,-6.1632,-6.1719,-6.1719,-6.1719,-6.1719,-6.1719,-6.1719,-6.1719,-6.1719,-6.1719,-6.2383,-6.3242,-6.414,-6.5,-6.5898,-6.6758,-6.6914,-6.6914,-6.6914,-6.7617,-6.8203,-6.8203,-6.8203,-6.8203,-6.8203,-6.8945,-6.9453,-6.9492,-6.9453,-6.9765,-7.0664,-7.0703,-7.0312,-6.9453,-6.8451,-6.8017,-6.8203,-6.716,-6.6692,-6.6914,-6.6914,-6.6914,-6.6914,-6.6914,-6.6914,-7.0167,-6.9744,0.0,-6.9398,0.0,0.0,0.0,-7.2822,0.0,0.0,-7.413,-7.186,-7.0744,-7.009,0.0,-6.9706,-7.1014,-7.2168,-7.2514,0.0,0.0,0.0,0.0,0.0,0.0,0.0,0.0,0.0,0.0,0.0,0.0,-6.3705,-6.4359,-6.5859,-6.5051,-6.432,-6.3705,-6.2627,-6.1793,-6.1166,-6.0935,-6.1666,-6.3308,-6.3308,-6.4243,-6.5897,-6.5897,-6.5551,-6.4936,-6.432,-6.3435,-6.2435,-6.2178,-6.1562,-6.0781,-6.0781,-6.0781,-6.0781,-6.0781,-6.0781,-6.0781,-6.0781,-6.0781,-6.0856,-6.1179,-6.1283,-6.1349,-6.1632,-6.1719,-6.1719,-6.1719,-6.1719,-6.1719,-6.1719,-6.1719,-6.1719,-6.1719,-6.2383,-6.3242,-6.414,-6.5,-6.5898,-6.6758,-6.6914,-6.6914,-6.6914,-6.7109,-6.7695,-6.8906,-6.957,-6.9961,-6.9961,-7.0156,-7.0312,-7.0351,-7.0312,-7.0703,-7.1562,-7.1601,-7.1211,-7.0351,-7.0037,-6.9333,-6.8203,-6.7888,-6.7732,-6.7812,-6.7187,-6.7226,-6.7812,-6.7187,-6.6914,-6.909,-6.8552,0.0,-6.8783,-6.9321,-7.0283,-7.2476,0.0,0.0,0.0,-7.4707,-7.2437,-7.1591,-7.0206,0.0,-6.9167,-6.959,-7.009,-7.0629,0.0,0.0,0.0,0.0,0.0,0.0,0.0,0.0,0.0,0.0,0.0,0.0,-6.3012,-6.3628,-6.532,-6.4243,-6.3358,-6.282,-6.2012,-6.132,-6.0781,-6.0781,-6.1512,-6.282,-6.282,-6.3743,-6.5397,-6.5397,-6.5089,-6.4512,-6.332,-6.2551,-6.2062,-6.1716,-6.1243,-6.0781,-6.0781,-6.0781,-6.0781,-6.0781,-6.0781,-6.0781,-6.0781,-6.0781,-6.0856,-6.1179,-6.1283,-6.1349,-6.1632,-6.1719,-6.1719,-6.1719,-6.1719,-6.1719,-6.1719,-6.1719,-6.1797,-6.2148,-6.289,-6.3789,-6.4648,-6.5508,-6.6289,-6.6797,-6.6914,-6.7031,-6.7344,-6.7969,-6.8789,-6.9805,-7.0664,-7.0976,-7.0273,-7.082,-7.1094,-7.0742,-7.1015,-7.1445,-7.1953,-7.1992,-7.1758,-7.125,-7.0898,-7.0234,-6.9219,-6.8867,-6.8672,-6.8711,-6.8164,-6.8008,-6.8203,-6.7656,-6.7226,-6.6744,0.0,0.0,-6.6397,-6.8282,0.0,-7.2052,-7.4784,-7.7169,-7.79,0.0,-7.3322,-7.2283,-7.0129,-6.8513,-6.8398,-6.8321,-6.8282,-6.8282,0.0,0.0,0.0,0.0,0.0,0.0,0.0,0.0,0.0,0.0,0.0,0.0,-6.2551,-6.287,-6.4551,-6.2897,-6.1985,-6.1985,-6.1127,-6.0666,-6.0666,-6.0742,-6.1204,-6.1985,-6.2062,-6.2974,-6.4474,-6.4397,-6.4359,-6.4243,-6.2627,-6.1985,-6.1908,-6.1089,-6.0781,-6.0781,-6.0781,-6.0781,-6.0781,-6.0781,-6.0781,-6.0781,-6.0781,-6.0781,-6.0856,-6.1165,-6.1277,-6.1344,-6.1629,-6.1679,-6.1719,-6.1719,-6.1719,-6.1719,-6.1719,-6.1719,-6.1953,-6.2812,-6.3672,-6.457,-6.543,-6.6289,-6.6914,-6.6914,-6.6914,-6.7187,-6.8086,-6.957,-7.0586,-7.0586,-7.1289,-7.1211,-6.9765,-7.0976,-7.1601,-7.0898,-7.1523,-7.1992,-7.1992,-7.1992,-7.1992,-7.1992,-7.125,-7.0781,-7.0703,-6.9922,-6.9531,-6.9609,-6.9453,-6.9023,-6.832,-6.832,-6.7851,0.0,-6.8859,0.0,0.0,-7.1783,-7.2937,-7.3937,-7.4245,-7.4361,-7.4553,-7.4514,-7.3783,-7.1591,-7.0206,-6.9206,-6.85,-6.7821,-6.7359,-6.7359,0.0,0.0,0.0,0.0,0.0,0.0,0.0,0.0,0.0,0.0,0.0,-6.3243,-6.2551,-6.287,-6.4551,-6.232,-6.1089,-6.1089,-6.0204,-5.9781,0.0,-6.0473,-6.0896,-6.1089,-6.1793,-6.2627,-6.3551,-6.2897,-6.2627,-6.2563,-6.1512,-6.1089,-6.105,-6.0858,-6.0781,-6.0781,-6.0781,-6.0781,-6.0781,-6.0781,-6.0781,-6.0781,-6.0781,-6.0781,-6.0811,-6.1027,-6.1179,-6.1323,-6.1501,-6.1631,-6.1719,-6.1719,-6.1719,-6.1719,-6.1719,-6.1719,-6.1953,-6.2812,-6.3672,-6.457,-6.543,-6.6289,-6.6914,-6.6914,-6.6914,-6.7187,-6.8086,-6.9101,-6.9765,-6.9765,-6.9922,-7.0156,-7.039,-7.0742,-7.1172,-7.168,-7.1875,-7.1992,-7.1992,-7.1992,-7.1992,-7.1992,-7.1836,-7.1406,-7.0703,-7.0508,-7.043,-7.043,-6.9726,-6.9336,-6.9219,-6.918,-6.8711,0.0,0.0,0.0,0.0,0.0,0.0,-7.4053,-7.3822,-7.3283,-7.2437,-7.2591,-7.2476,-7.1129,-6.9552,-6.8167,-6.7359,-6.6474,-6.5743,0.0,0.0,0.0,0.0,0.0,0.0,0.0,0.0,0.0,0.0,0.0,-6.1358,-6.2666,-6.1935,-6.1858,-6.2743,-6.1089,-5.9973,-5.9627,-5.9165,-5.9127,-5.9511,-5.9973,-6.0396,-6.0819,-6.2089,-6.2704,-6.2704,-6.2704,-6.2474,-6.2024,-6.1166,-6.0781,-6.0781,-6.0781,-6.0781,-6.0781,-6.0781,-6.0781,-6.0781,-6.0781,-6.0781,-6.0781,-6.0781,-6.0781,-6.0839,-6.0963,-6.1081,-6.1182,-6.1428,-6.1568,-6.1631,-6.1679,-6.1719,-6.1719,-6.1719,-6.1719,-6.2031,-6.3359,-6.3984,-6.4687,-6.5976,-6.6601,-6.6914,-6.6914,-6.7578,-6.8437,-6.9258,-7.0156,-7.0703,-7.0703,-7.0703,-7.0703,-7.0703,-7.1055,-7.1328,-7.1367,-7.1758,-7.1992,-7.1992,-7.1992,-7.1992,-7.1992,-7.1992,-7.1797,-7.1328,-7.1328,-7.1328,-7.1328,-7.0859,-7.0469,-7.0078,-7.0039,-6.957,0.0,0.0,0.0,0.0,0.0,0.0,0.0,0.0,-7.2206,-7.0783,-7.0706,-7.0706,-7.0129,-6.8321,0.0,0.0,0.0,0.0,0.0,0.0,0.0,0.0,0.0,0.0,0.0,0.0,0.0,0.0,0.0,-6.1166,-6.2062,-6.1281,-6.0781,-6.0781,-5.9819,-5.8896,-5.8088,-5.8204,-5.8627,-5.9319,-5.9588,-6.0089,-6.0858,-6.2551,-6.2781,-6.1908,-6.2743,-6.2627,-6.1831,-6.1089,-6.0781,-6.0781,-6.0781,-6.0781,-6.0781,-6.0781,-6.0781,-6.0781,-6.0781,-6.0781,-6.0781,-6.0781,-6.0781,-6.0827,-6.0916,-6.097,-6.1089,-6.1387,-6.1491,-6.152,-6.1678,-6.1719,-6.1719,-6.1719,-6.1797,-6.2344,-6.3945,-6.4414,-6.5,-6.6601,-6.6914,-6.6953,-6.7109,-6.8437,-6.9726,-7.039,-7.1094,-7.1562,-7.1562,-7.1445,-7.1172,-7.0742,-7.1367,-7.1523,-7.0976,-7.1601,-7.1992,-7.1992,-7.1992,-7.1992,-7.1992,-7.1992,-7.1992,-7.1992,-7.1992,-7.1992,-7.1992,-7.1992,-7.1562,-7.0703,-7.0859,-7.0547,0.0,0.0,0.0,0.0,0.0,0.0,0.0,0.0,0.0,0.0,0.0,0.0,0.0,0.0,0.0,0.0,0.0,0.0,0.0,0.0,0.0,0.0,0.0,0.0,0.0,0.0,0.0,0.0,-6.0781,-6.1166,-6.2062,-6.1281,-6.0781,-6.0781,-5.9281,-5.805,-5.7176,-5.7934,-5.8357,-5.8473,-5.9935,-6.0704,-6.0858,-6.2551,-6.2435,-6.1012,-6.1897,-6.1781,-6.0973,-6.0858,-6.0781,-6.0781,-6.0781,-6.0781,-6.0781,-6.0781,-6.0781,-6.0781,-6.0781,-6.0781,-6.0781,-6.0781,-6.0781,-6.0793,-6.0839,-6.0905,-6.1056,-6.1265,-6.14,-6.152,-6.1678,-6.1719,-6.1719,-6.1719,-6.2265,-6.3086,-6.4101,-6.4883,-6.5703,-6.6719,-6.6914,-6.7148,-6.789,-6.8789,-6.9453,-6.957,-6.9726,-6.9805,-6.9765,-6.914,-6.9219,-7.0547,-7.0781,-7.1133,-7.1758,-7.1914,-7.1992,-7.1992,-7.1992,-7.1992,-7.1992,-7.1992,-7.1992,-7.1992,-7.1992,-7.1992,-7.1992,-7.1992,-7.1562,-7.0703,-7.1484,-7.1758,0.0,0.0,0.0,0.0,0.0,0.0,0.0,0.0,0.0,0.0,0.0,0.0,0.0,0.0,0.0,0.0,0.0,0.0,0.0,0.0,0.0,0.0,0.0,0.0,0.0,0.0,0.0,0.0,-6.0781,-6.0973,-6.137,-6.1012,-6.0358,-5.9435,-5.8665,-5.7665,-5.6291,-5.7126,-5.805,-5.8973,-6.0204,-6.0781,-6.0819,-6.205,-6.1973,-6.0858,-6.2204,-6.2012,-6.0781,-6.0781,-6.0781,-6.0781,-6.0781,-6.0781,-6.0781,-6.0781,-6.0781,-6.0781,-6.0781,-6.0781,-6.0781,-6.0781,-6.0781,-6.0781,-6.0781,-6.0874,-6.1048,-6.124,-6.1387,-6.152,-6.1678,-6.1719,-6.1719,-6.1719,-6.2734,-6.3828,-6.4219,-6.4961,-6.6015,-6.7344,-6.7617,-6.8047,-6.9375,-6.9883,-7.0273,-7.0781,-7.0898,-7.0898,-7.0859,-7.0547,-7.0625,-7.1367,-7.1445,-7.1562,-7.1953,-7.2461,-7.2734,-7.2734,-7.3203,-7.3242,-7.2734,-7.2734,-7.25,-7.1992,-7.1992,-7.1992,-7.1992,-7.1992,-7.1797,-7.1445,-7.2305,-7.2734,0.0,0.0,0.0,0.0,0.0,0.0,0.0,0.0,0.0,0.0,0.0,0.0,0.0,0.0,0.0,0.0,0.0,0.0,0.0,0.0,0.0,0.0,0.0,0.0,0.0,0.0,0.0,0.0,-6.0781,-6.0781,-6.0781,-6.0589,-5.9781,-5.8357,-5.8088,-5.7242,-5.5703,-5.678,-5.8165,-5.9858,-6.0473,-6.0781,-6.0819,-6.1716,-6.1639,-6.0896,-6.2358,-6.2166,-6.0781,-6.055,-6.0589,-6.0781,-6.055,-6.0589,-6.0781,-6.0781,-6.0781,-6.0781,-6.0781,-6.0781,-6.0781,-6.0781,-6.0781,-6.0781,-6.0781,-6.086,-6.1009,-6.1227,-6.1364,-6.1495,-6.1677,-6.1719,-6.1719,-6.1719,-6.2851,-6.414,-6.4805,-6.5469,-6.6367,-6.789,-6.8203,-6.8711,-7.039,-7.0703,-7.0937,-7.1562,-7.168,-7.168,-7.168,-7.168,-7.1758,-7.1992,-7.1992,-7.2109,-7.2305,-7.293,-7.3398,-7.3633,-7.4023,-7.3984,-7.332,-7.3086,-7.2656,-7.1992,-7.1992,-7.1992,-7.1992,-7.1992,-7.2109,-7.2344,-7.3008,-7.3555,0.0,0.0,0.0,0.0,0.0,0.0,0.0,0.0,0.0,0.0,0.0,0.0,0.0,0.0,0.0,0.0,0.0,0.0,0.0,0.0,0.0,0.0,0.0,0.0,0.0,0.0,0.0,0.0,-6.0781,-6.0781,-6.0781,-6.0012,-5.9165,-5.8319,-5.7511,-5.6637,-5.5703,-5.7396,-5.9088,-6.0742,-6.0781,-6.0781,-6.0819,-6.1716,-6.1639,-6.0858,-6.1793,-6.1639,-6.0742,-5.9896,-6.005,-6.0704,-5.9896,-6.0089,-6.0781,-6.0781,-6.0781,-6.0781,-6.0781,-6.0781,-6.0781,-6.0781,-6.0781,-6.0781,-6.0781,-6.0793,-6.0888,-6.1193,-6.1289,-6.1364,-6.1633,-6.1719,-6.1719,-6.1719,-6.2383,-6.375,-6.6211,-6.6797,-6.7109,-6.8008,-6.8203,-6.8711,-7.039,-7.0703,-7.0703,-7.0742,-7.0781,-7.0781,-7.0781,-7.0781,-7.1094,-7.1914,-7.1992,-7.2344,-7.3164,-7.3281,-7.3633,-7.4492,-7.3789,-7.3359,-7.3281,-7.25,-7.2031,-7.1992,-7.1992,-7.1992,-7.1992,-7.1992,-7.2422,-7.3242,-7.3281,-7.418,0.0,0.0,0.0,0.0,0.0,0.0,0.0,0.0,0.0,0.0,0.0,0.0,0.0,0.0,0.0,0.0,0.0,0.0,0.0,0.0,0.0,0.0,0.0,0.0,0.0,0.0,0.0,0.0,0.0,-6.0482,-6.0769,-6.024,-5.9409,-5.8346,-5.8011,-5.7665,-5.7357,-5.8011,-5.9127,-6.0781,-6.0781,-6.0781,-6.0819,-6.1127,-6.1089,-6.0819,-6.1127,-6.1089,-6.0781,-6.0473,-6.0512,-6.0781,-6.0473,-6.0512,-6.0781,-6.0781,-6.0781,-6.0781,-6.0781,-6.0781,-6.0781,-6.0781,-6.0781,-6.0781,-6.0781,-6.0839,-6.0982,-6.122,-6.1354,-6.1485,-6.1638,-6.1719,-6.1992,-6.3086,-6.3594,-6.4414,-6.6445,-6.6914,-6.7305,-6.875,-6.8984,-6.9531,-7.125,-7.1523,-7.1523,-7.1523,-7.1523,-7.1523,-7.1523,-7.1523,-7.1875,-7.2734,-7.2812,-7.3203,-7.4062,-7.4648,-7.5117,-7.539,-7.5156,-7.4726,-7.414,-7.3281,-7.2578,-7.1992,-7.2539,-7.2812,-7.2812,-7.2812,-7.3281,-7.414,-7.4726,-7.5312,-6.5897,0.0,0.0,0.0,0.0,0.0,0.0,0.0,0.0,0.0,0.0,0.0,0.0,0.0,0.0,0.0,0.0,0.0,0.0,0.0,0.0,0.0,0.0,0.0,0.0,0.0,0.0,0.0,0.0,0.0,-6.0769,-6.0083,-5.9125,-5.7885,-5.8165,-5.8319,-5.8319,-5.8588,-5.9396,-6.0781,-6.0781,-6.0781,-6.0781,-6.0781,-6.0781,-6.0781,-6.0781,-6.0781,-6.0781,-6.0473,-6.055,-6.0781,-6.0473,-6.055,-6.0781,-6.0781,-6.0781,-6.0781,-6.0781,-6.0781,-6.0781,-6.0781,-6.0781,-6.0781,-6.0781,-6.085,-6.0982,-6.1227,-6.1354,-6.1488,-6.1638,-6.1719,-6.207,-6.3515,-6.4101,-6.4687,-6.6133,-6.6914,-6.7773,-6.9219,-6.9687,-7.0312,-7.1758,-7.1992,-7.1992,-7.1992,-7.1992,-7.1992,-7.1992,-7.2265,-7.2656,-7.3242,-7.3555,-7.4101,-7.4961,-7.5586,-7.6015,-7.6328,-7.6055,-7.5508,-7.4648,-7.4023,-7.332,-7.2461,-7.3281,-7.3867,-7.418,-7.3867,-7.418,-7.5039,-7.5625,-7.6055,0.0,0.0,0.0,0.0,0.0,0.0,0.0,0.0,0.0,0.0,0.0,0.0,0.0,0.0,0.0,0.0,0.0,0.0,0.0,0.0,0.0,0.0,0.0,0.0,0.0,0.0,0.0,0.0,-6.0365,-6.0311,-6.0769,-5.9548,-5.8284,-5.7088,-5.7857,-5.8319,-5.8319,-5.9088,-5.9935,-6.0781,-6.0781,-6.0781,-6.0781,-6.0781,-6.0781,-6.0781,-6.0781,-6.0781,-6.0742,-5.9896,-6.005,-6.0704,-5.9858,-6.005,-6.0781,-6.0781,-6.0781,-6.0781,-6.0781,-6.0781,-6.0781,-6.0781,-6.0781,-6.0781,-6.0781,-6.0781,-6.0867,-6.1186,-6.1277,-6.1349,-6.1632,-6.1719,-6.1953,-6.2812,-6.3711,-6.457,-6.5469,-6.6992,-6.8476,-6.9336,-7.0156,-7.0976,-7.1836,-7.1992,-7.1992,-7.1992,-7.1992,-7.1992,-7.2031,-7.2773,-7.332,-7.3359,-7.414,-7.5,-7.5859,-7.5937,-7.6289,-7.7148,-7.6367,-7.5508,-7.4687,-7.4609,-7.4219,-7.3359,-7.418,-7.5039,-7.5898,-7.5039,-7.5078,-7.5937,-7.5937,-7.6406,-6.5128,0.0,0.0,0.0,0.0,0.0,-6.5936,-6.6051,0.0,0.0,0.0,0.0,0.0,0.0,0.0,0.0,0.0,0.0,0.0,0.0,0.0,0.0,0.0,0.0,0.0,0.0,0.0,0.0,-6.0365,-6.0311,-6.0769,-5.9852,-5.888,-5.7973,-5.8165,-5.8319,-5.8319,-5.9088,-5.9935,-6.0781,-6.0781,-6.0781,-6.0781,-6.0781,-6.0781,-6.0781,-6.0781,-6.0781,-6.0781,-6.055,-6.0589,-6.0781,-6.0512,-6.0589,-6.0781,-6.0781,-6.0781,-6.0781,-6.0781,-6.0781,-6.0781,-6.0781,-6.0781,-6.0781,-6.0781,-6.0781,-6.0823,-6.1014,-6.1089,-6.1147,-6.1456,-6.2102,-6.2851,-6.3711,-6.4609,-6.5469,-6.6367,-6.7422,-6.8437,-6.9258,-7.0117,-7.0976,-7.1836,-7.1992,-7.1992,-7.1992,-7.1992,-7.2226,-7.2851,-7.3164,-7.3789,-7.5039,-7.539,-7.5898,-7.6758,-7.6836,-7.6953,-7.7187,-7.6367,-7.5781,-7.5547,-7.4922,-7.4492,-7.4258,-7.5117,-7.5664,-7.5898,-7.5664,-7.5976,-7.6836,-7.6836,-7.6953,-6.4743,-6.4705,-6.4974,-6.5705,0.0,0.0,-6.5359,-6.5628,-6.5782,0.0,0.0,0.0,0.0,0.0,0.0,0.0,0.0,0.0,0.0,0.0,0.0,0.0,0.0,0.0,0.0,-6.0857,-6.1045,-6.1308,-6.0556,-6.0203,-6.0495,-6.021,-5.9665,-5.8819,-5.9165,-5.9165,-5.8819,-5.9627,-6.0281,-6.0781,-6.0781,-6.0781,-6.0781,-6.0781,-6.0781,-6.0781,-6.0781,-6.0781,-6.0781,-6.0781,-6.0781,-6.0781,-6.0781,-6.0781,-6.0781,-6.0781,-6.0781,-6.0781,-6.0781,-6.0781,-6.0781,-6.0781,-6.0781,-6.0781,-6.0781,-6.0781,-6.0811,-6.0973,-6.1089,-6.1256,-6.1439,-6.1977,-6.2773,-6.4023,-6.4687,-6.539,-6.664,-6.7578,-6.8437,-6.9297,-7.0117,-7.0976,-7.1836,-7.1992,-7.1992,-7.1992,-7.1992,-7.2305,-7.3203,-7.3633,-7.4375,-7.5742,-7.6211,-7.664,-7.7148,-7.7187,-7.7187,-7.7187,-7.6719,-7.6289,-7.5937,-7.5742,-7.5508,-7.5156,-7.6015,-7.6445,-7.6445,-7.6445,-7.6719,-7.7187,-7.7187,-7.7383,-6.4589,-6.4051,-6.3858,-6.5474,-6.532,0.0,-6.4743,-6.532,-6.5667,-6.4897,0.0,0.0,0.0,0.0,0.0,0.0,0.0,0.0,0.0,0.0,0.0,0.0,0.0,0.0,-6.2567,-6.2362,-6.2216,-6.2216,-6.1056,-6.0289,-6.0175,-6.0546,-6.0396,-5.9511,-6.0358,-6.0396,-5.9511,-6.0358,-6.0781,-6.0781,-6.0781,-6.0781,-6.0781,-6.0781,-6.0781,-6.0781,-6.0781,-6.0781,-6.0781,-6.0781,-6.0781,-6.0781,-6.0781,-6.0781,-6.0781,-6.0781,-6.0781,-6.0781,-6.0781,-6.0781,-6.0781,-6.0781,-6.0781,-6.0781,-6.0781,-6.0781,-6.08,-6.0935,-6.1214,-6.1488,-6.1488,-6.1662,-6.2265,-6.3906,-6.4375,-6.4883,-6.6523,-6.7578,-6.8476,-6.9336,-7.0156,-7.0976,-7.1836,-7.1992,-7.1992,-7.1992,-7.1992,-7.2344,-7.332,-7.4101,-7.4961,-7.5937,-7.6758,-7.7187,-7.7187,-7.7187,-7.7187,-7.7187,-7.7187,-7.6836,-7.6094,-7.6797,-7.6836,-7.6055,-7.6797,-7.7187,-7.7187,-7.7187,-7.7265,-7.7344,-7.7344,-7.7812,-6.4397,-6.4474,-6.4589,-6.5628,-6.5782,0.0,-6.5628,-6.5782,-6.5859,0.0,0.0,0.0,0.0,0.0,0.0,0.0,0.0,0.0,0.0,0.0,0.0,0.0,0.0,0.0,-6.2597,-6.2885,-6.3089,-6.3089,-6.2233,-6.1389,-6.0697,-6.0757,-6.0396,-5.9511,-6.0358,-6.0396,-5.9511,-6.0358,-6.0781,-6.0781,-6.0781,-6.0781,-6.0781,-6.0781,-6.0781,-6.0781,-6.0781,-6.0781,-6.0781,-6.0781,-6.0781,-6.0781,-6.0781,-6.0781,-6.0781,-6.0781,-6.0781,-6.0781,-6.0781,-6.0781,-6.0781,-6.0781,-6.0781,-6.0781,-6.0781,-6.0781,-6.0793,-6.0823,-6.1087,-6.1328,-6.1328,-6.2022,-6.3008,-6.4062,-6.4844,-6.5625,-6.668,-6.7578,-6.8437,-6.9258,-7.0117,-7.0976,-7.1836,-7.1992,-7.1992,-7.1992,-7.1992,-7.2578,-7.414,-7.4492,-7.5195,-7.6797,-7.7109,-7.7187,-7.7187,-7.7187,-7.7187,-7.7187,-7.7187,-7.7109,-7.6953,-7.7109,-7.7109,-7.6953,-7.7109,-7.7187,-7.7187,-7.7187,-7.7578,-7.8242,-7.8242,-7.8672,-6.4359,-6.4282,-6.4282,-6.5551,-6.5551,0.0,0.0,-6.559,-6.5782,0.0,0.0,0.0,0.0,0.0,0.0,0.0,0.0,0.0,0.0,0.0,0.0,0.0,0.0,0.0,-6.4211,-6.4065,-6.3589,-6.2743,-6.232,-6.1716,-6.0858,-6.0781,-6.0589,-6.0165,-6.055,-6.0589,-6.0165,-6.0589,-6.0781,-6.0781,-6.0781,-6.0781,-6.0781,-6.0781,-6.0781,-6.0781,-6.0781,-6.0781,-6.0781,-6.0319,-6.0396,-6.0781,-6.0781,-6.0781,-6.0781,-6.0781,-6.0781,-6.0781,-6.0781,-6.0781,-6.0781,-6.0781,-6.0781,-6.0781,-6.0781,-6.0781,-6.0781,-6.0781,-6.1018,-6.1283,-6.1283,-6.2167,-6.3203,-6.4101,-6.4961,-6.5859,-6.6719,-6.7578,-6.8437,-6.9258,-7.0117,-7.0976,-7.1836,-7.1992,-7.1992,-7.1992,-7.1992,-7.2617,-7.4375,-7.4609,-7.5273,-7.6992,-7.7187,-7.7187,-7.7187,-7.7187,-7.7187,-7.7187,-7.7187,-7.7187,-7.7187,-7.7187,-7.7383,-7.7851,-7.7422,-7.7617,-7.8437,-7.8047,-7.8086,-7.8515,-7.8515,-7.914,-6.4282,-6.3858,-6.3512,-6.5436,-6.5243,-6.4628,0.0,0.0,0.0,0.0,0.0,0.0,0.0,0.0,0.0,0.0,0.0,0.0,0.0,0.0,0.0,0.0,0.0,0.0,0.0,-6.518,-6.4065,-6.2529,-6.226,-6.1876,-6.1184,-6.0938,-6.0858,-6.105,-6.0896,-6.0781,-6.0781,-6.0781,-6.0781,-6.0781,-6.0781,-6.0781,-6.0781,-6.0781,-6.0781,-6.0781,-6.0781,-6.0781,-6.0742,-6.005,-6.0165,-6.0781,-6.0627,-6.0666,-6.0781,-6.0781,-6.0781,-6.0781,-6.0781,-6.0781,-6.0781,-6.0781,-6.0781,-6.0781,-6.0781,-6.0781,-6.0793,-6.0823,-6.1053,-6.1295,-6.1323,-6.2178,-6.3203,-6.4101,-6.4961,-6.5859,-6.6719,-6.7695,-6.8633,-6.9258,-7.0234,-7.1172,-7.1875,-7.1992,-7.1992,-7.1992,-7.1992,-7.2617,-7.4375,-7.4609,-7.5273,-7.6992,-7.7187,-7.7187,-7.7187,-7.7187,-7.7187,-7.7187,-7.7344,-7.7461,-7.7461,-7.7617,-7.8008,-7.8711,-7.8047,-7.8359,-7.9687,-7.9062,-7.8828,-7.8984,-7.8984,-7.9805,0.0,0.0,0.0,0.0,-6.5243,-6.4782,0.0,0.0,-6.5859,-6.5782,0.0,0.0,0.0,0.0,0.0,0.0,0.0,0.0,0.0,0.0,0.0,0.0,0.0,0.0,0.0,-6.5384,-6.4642,-6.3673,-6.2932,-6.2513,-6.2398,-6.1377,-6.1127,-6.1947,-6.1204,-6.0781,-6.0781,-6.0781,-6.0781,-6.0781,-6.0781,-6.0781,-6.0781,-6.0781,-6.0781,-6.0781,-6.0781,-6.0781,-6.0781,-6.0704,-6.0704,-6.0704,-5.9935,-6.0127,-6.0781,-6.0781,-6.0781,-6.0781,-6.0781,-6.0781,-6.0781,-6.0781,-6.0781,-6.0781,-6.0781,-6.0781,-6.08,-6.0935,-6.1135,-6.1318,-6.1467,-6.2248,-6.3203,-6.4101,-6.4961,-6.5859,-6.6719,-6.8164,-6.9297,-6.9375,-7.0742,-7.1875,-7.1992,-7.1992,-7.1992,-7.1992,-7.1992,-7.2617,-7.4375,-7.4609,-7.5273,-7.6992,-7.7187,-7.7187,-7.7187,-7.7187,-7.7187,-7.7187,-7.793,-7.8359,-7.8359,-7.9023,-7.9453,-7.957,-7.9453,-7.9492,-7.9687,-7.9609,-7.9961,-8.0703,-8.0703,-8.1211,0.0,0.0,0.0,0.0,0.0,0.0,-6.5705,0.0,-6.5897,0.0,0.0,0.0,0.0,0.0,0.0,0.0,-6.4359,0.0,0.0,0.0,0.0,0.0,0.0,0.0,0.0,0.0,0.0,0.0,-6.3677,-6.3332,-6.2374,-6.1824,-6.1716,-6.2101,-6.1243,-6.0781,-6.0781,-6.0781,-6.0781,-6.0781,-6.0781,-6.0781,-6.0781,-6.0781,-6.0781,-6.0781,-6.0781,-6.0781,-6.0742,-6.0242,-6.0319,-6.0704,-5.9858,-6.0012,-6.0781,-6.0781,-6.0781,-6.0781,-6.0781,-6.0781,-6.0781,-6.0781,-6.0781,-6.0781,-6.0781,-6.0781,-6.0811,-6.0973,-6.115,-6.1323,-6.1481,-6.2602,-6.3867,-6.4219,-6.5351,-6.6601,-6.7461,-6.8594,-6.9609,-7.0078,-7.1133,-7.1992,-7.1992,-7.1992,-7.1992,-7.1992,-7.1992,-7.2617,-7.4375,-7.4609,-7.5273,-7.6992,-7.7187,-7.7187,-7.7187,-7.7187,-7.7187,-7.7187,-7.8008,-7.8711,-7.918,-7.9531,-7.9922,-8.0429,-7.9961,-8.0195,-8.1211,-8.0703,-8.0898,-8.1758,-8.125,-8.1484,-6.2743,0.0,0.0,0.0,0.0,0.0,0.0,0.0,0.0,0.0,0.0,0.0,0.0,0.0,0.0,0.0,0.0,-6.5013,0.0,0.0,0.0,0.0,0.0,0.0,0.0,0.0,0.0,-6.3207,-6.3475,-6.3258,-6.2299,-6.1925,-6.187,-6.2101,-6.1243,-6.0781,-6.0781,-6.0781,-6.0781,-6.0781,-6.0781,-6.0781,-6.0781,-6.0781,-6.0781,-6.0781,-6.0781,-6.0781,-6.0742,-6.0127,-6.0242,-6.0742,-6.0089,-6.0242,-6.0781,-6.0781,-6.0781,-6.0781,-6.0781,-6.0781,-6.0781,-6.0781,-6.0781,-6.0781,-6.0781,-6.0781,-6.0811,-6.0973,-6.1112,-6.1298,-6.1669,-6.3011,-6.4292,-6.4526,-6.578,-6.707,-6.7695,-6.8711,-6.9687,-7.0234,-7.1445,-7.2344,-7.2344,-7.2148,-7.207,-7.2305,-7.2344,-7.3008,-7.4726,-7.4961,-7.5547,-7.7031,-7.7187,-7.7305,-7.7539,-7.7344,-7.7383,-7.7851,-7.8711,-7.9531,-8.039,-8.039,-8.0703,-8.1328,-8.0742,-8.1054,-8.2304,-8.164,-8.1679,-8.2265,-8.164,-8.1719,0.0,0.0,0.0,-6.3974,0.0,0.0,0.0,0.0,-6.5897,0.0,0.0,0.0,0.0,0.0,-6.559,-6.4743,0.0,0.0,0.0,0.0,0.0,0.0,0.0,0.0,0.0,0.0,0.0,-6.2696,-6.188,-6.1766,-6.2544,-6.148,-6.1243,-6.2062,-6.1243,-6.0781,-6.0781,-6.0781,-6.0781,-6.0781,-6.0781,-6.0781,-6.0781,-6.0781,-6.0781,-6.0781,-6.0781,-6.0781,-6.0781,-6.0781,-6.0781,-6.0781,-6.0781,-6.0781,-6.0781,-6.0781,-6.0781,-6.0781,-6.0781,-6.0781,-6.0781,-6.0781,-6.0781,-6.0781,-6.0781,-6.0781,-6.0811,-6.0973,-6.1006,-6.122,-6.2219,-6.3267,-6.4281,-6.5097,-6.6118,-6.6914,-6.6953,-6.8281,-6.9492,-6.9453,-7.1523,-7.3242,-7.3242,-7.2578,-7.2305,-7.3125,-7.3242,-7.3906,-7.5625,-7.5859,-7.6211,-7.7109,-7.7187,-7.7539,-7.8398,-7.7695,-7.789,-7.9531,-8.0429,-8.1328,-8.2187,-8.2226,-8.2226,-8.2265,-8.2226,-8.2226,-8.2304,-8.2265,-8.2265,-8.2304,-8.2265,-8.2265,0.0,0.0,-6.1127,-6.2589,0.0,0.0,0.0,0.0,0.0,0.0,0.0,0.0,0.0,0.0,-6.5128,-6.5397,-6.5205,0.0,0.0,0.0,0.0,0.0,0.0,0.0,0.0,0.0,0.0,-6.2375,-6.249,-6.2528,-6.226,-6.1875,-6.1793,-6.2101,-6.1831,-6.1678,-6.1678,-6.1678,-6.1678,-6.1639,-6.1089,-6.0781,-6.0781,-6.0781,-6.0781,-6.0781,-6.0781,-6.0781,-6.0781,-6.0781,-6.0781,-6.0781,-6.0781,-6.0781,-6.0781,-6.0781,-6.0781,-6.0781,-6.0781,-6.0781,-6.0781,-6.0781,-6.0781,-6.0781,-6.0781,-6.0781,-6.0811,-6.0973,-6.0997,-6.1087,-6.159,-6.2912,-6.416,-6.4434,-6.5728,-6.707,-6.7656,-6.8633,-6.9765,-7.0898,-7.2305,-7.3476,-7.4062,-7.3906,-7.3828,-7.4101,-7.414,-7.457,-7.5742,-7.5898,-7.6211,-7.7109,-7.7187,-7.7539,-7.8437,-7.8711,-7.9336,-8.0508,-8.0859,-8.1406,-8.2265,-8.2304,-8.2304,-8.2304,-8.2304,-8.2304,-8.2304,-8.2304,-8.2304,-8.2304,-8.2304,-8.2304,-6.0781,-6.0781,0.0,-6.187,-6.2474,0.0,-6.4359,0.0,-6.4859,0.0,0.0,0.0,0.0,0.0,0.0,-6.5359,-6.4974,0.0,0.0,-6.5628,0.0,0.0,0.0,0.0,0.0,0.0,-6.3435,-6.1755,-6.2127,-6.2166,0.0,0.0,-6.1639,-6.1639,-6.1947,-6.2101,-6.2101,-6.2358,-6.2358,-6.2101,-6.1524,-6.1089,-6.0781,-6.0781,-6.0781,-6.0781,-6.0781,-6.0781,-6.0781,-6.0781,-6.0781,-6.0781,-6.0781,-6.0781,-6.0781,-6.0781,-6.0781,-6.0781,-6.0781,-6.0781,-6.0781,-6.0781,-6.0781,-6.0781,-6.0781,-6.0781,-6.0866,-6.1281,-6.1176,-6.1176,-6.2211,-6.3229,-6.415,-6.4774,-6.5911,-6.7148,-6.8008,-6.8828,-6.9922,-7.164,-7.2969,-7.4023,-7.4922,-7.5312,-7.543,-7.5117,-7.5078,-7.539,-7.625,-7.6367,-7.6562,-7.7148,-7.7187,-7.7539,-7.8437,-7.9805,-8.0742,-8.0976,-8.1289,-8.1719,-8.2265,-8.2304,-8.2304,-8.2304,-8.2304,-8.2304,-8.2304,-8.2304,-8.2304,-8.2304,-8.2304,-8.2304]},{"header":{"parameterUnit":"m.s-1","parameterCategory":1,"la1":30.6,"la2":29.2853,"lo1":-89.7004,"lo2":-87.6739,"dy":0.0162,"dx":0.0183,"nx":112,"ny":82,"refTime":"2024-02-27T18:00:00:Z","depth":0,"parameterNumber":3,"parameterNumberName":"V-component_of_WINDS"},"data":[0.0,0.0,0.0,0.0,0.0,0.0,0.0,0.0,0.0,0.0,0.0,0.0,0.0,0.0,0.0,0.0,0.0,0.0,0.0,0.0,0.0,0.0,0.0,0.0,0.0,0.0,0.0,0.0,0.0,0.0,0.0,0.0,0.0,0.0,0.0,0.0,0.0,0.0,0.0,0.0,0.0,0.0,0.0,0.0,0.0,0.0,0.0,0.0,0.0,0.0,0.0,0.0,0.0,0.0,0.0,0.0,0.0,0.0,0.0,0.0,0.0,0.0,0.0,0.0,0.0,0.0,0.0,0.0,0.0,0.0,0.0,0.0,0.0,0.0,0.0,0.0,0.0,0.0,0.0,0.0,0.0,0.0,0.0,0.0,0.0,0.0,0.0,0.0,0.0,0.0,0.0,0.0,0.0,0.0,0.0,0.0,0.0,0.0,0.0,0.0,0.0,0.0,0.0,0.0,0.0,0.0,0.0,0.0,0.0,0.0,0.0,0.0,0.0,0.0,0.0,0.0,0.0,0.0,0.0,0.0,0.0,0.0,0.0,0.0,0.0,0.0,0.0,0.0,0.0,0.0,0.0,0.0,0.0,0.0,0.0,0.0,0.0,0.0,0.0,0.0,0.0,0.0,0.0,0.0,0.0,0.0,0.0,0.0,0.0,0.0,0.0,0.0,0.0,0.0,0.0,0.0,0.0,0.0,0.0,0.0,0.0,0.0,0.0,0.0,0.0,0.0,0.0,0.0,0.0,0.0,0.0,0.0,0.0,0.0,0.0,0.0,0.0,0.0,0.0,0.0,0.0,0.0,0.0,0.0,0.0,0.0,0.0,0.0,0.0,0.0,0.0,0.0,0.0,0.0,0.0,0.0,0.0,0.0,0.0,0.0,0.0,0.0,0.0,0.0,0.0,0.0,0.0,0.0,0.0,0.0,0.0,0.0,0.0,0.0,0.0,0.0,0.0,0.0,0.0,0.0,0.0,0.0,0.0,0.0,0.0,0.0,0.0,0.0,0.0,0.0,0.0,0.0,0.0,0.0,0.0,0.0,0.0,0.0,0.0,0.0,0.0,0.0,0.0,0.0,0.0,0.0,0.0,0.0,0.0,0.0,0.0,0.0,0.0,0.0,0.0,0.0,0.0,0.0,0.0,0.0,0.0,0.0,0.0,0.0,0.0,0.0,0.0,0.0,0.0,0.0,0.0,0.0,0.0,0.0,0.0,0.0,0.0,0.0,0.0,0.0,0.0,0.0,0.0,0.0,0.0,0.0,0.0,0.0,0.0,0.0,0.0,0.0,0.0,0.0,0.0,0.0,0.0,0.0,0.0,0.0,0.0,0.0,0.0,0.0,0.0,0.0,0.0,0.0,0.0,0.0,0.0,0.0,0.0,-0.1011,0.0,0.0,0.0,0.0,0.0,0.0,0.0,0.0,0.0,0.0,0.0,0.0,0.0,0.0,0.0,0.0,0.0,0.0,0.0,0.0,0.0,0.0,0.0,0.0,0.0,0.0,0.0,0.0,0.0,0.0,0.0,0.0,0.0,0.0,0.0,0.0,0.0,0.0,0.0,0.0,0.0,0.0,0.0,0.0,0.0,0.0,0.0,0.0,0.0,0.0,0.0,0.0,0.0,0.0,0.0,0.0,0.0,0.0,0.0,0.0,0.0,0.0,0.0,0.0,0.0,0.0,0.0,0.0,0.0,0.0,0.0,0.0,0.0,0.0,0.0,0.0,0.0,0.0,0.0,0.0,0.0,0.0,0.0,0.0,0.0,0.0,0.0,0.0,0.0,0.0,0.0,0.0,0.0,0.0,0.0,0.0,0.0,0.0,0.0,0.0,0.0,0.0,0.0,0.0,0.0,0.0,0.0,0.0,0.0,0.0,0.0,0.0,0.0136,0.0569,0.0661,0.06,0.0608,0.0662,0.0432,0.0,0.0,0.0,0.0,0.0,0.0,0.0,0.0,0.0,0.0,0.0,0.0,0.0,0.0,0.0,0.0,0.0,0.0,0.0,0.0,0.0,0.0,0.0,0.0,0.0,0.0,0.0,0.0,0.0,0.0,0.0,0.0,0.0,0.0,0.0,0.0,0.0,0.0,0.0,0.0,0.0,0.0,0.0,0.0,0.0,0.0,0.0,0.0,0.0,0.0,0.0,0.0,0.0,0.0,0.0,0.0,0.0,0.0,0.0,0.0,0.0,0.0,0.0,0.0,0.0,0.0,0.0,0.0,0.0,0.0,0.0,0.0,0.0,0.0,0.0,0.0,0.0,0.0,0.0,0.0,0.0,0.0,0.0,0.0,0.0,0.0,0.0,0.0,0.0,0.0,0.0,0.0,0.0,0.0,0.0,0.0,0.0,0.0,0.0,0.0,0.0,0.0,0.0,0.0,0.0,0.0665,0.2341,0.2505,0.2521,0.248,0.2537,0.1801,0.0141,0.0,0.0,0.0,0.0,0.0,0.0,0.0,0.0,0.0,0.0,0.0,0.0,0.0,0.0,0.0,0.0,0.0,0.0,0.0,0.0,0.0,0.0,0.0,0.0,0.0,0.0,0.0,0.0,0.0,0.0,0.0,0.0,0.0,0.0,0.0,0.0,0.0,0.0,0.0,0.0,0.0,0.0,0.0,0.0,0.0,0.0,0.0,0.0,0.0,0.0,0.0,0.0,0.0,0.0,0.0,0.0,0.0,0.0,0.0,0.0,0.0,0.0,0.0,0.0,0.0,0.0,0.0,0.0,0.0,0.0,0.0,0.0,0.0,0.0,0.0,0.0,0.0,0.0,0.0,0.0,0.0,0.0,0.0,0.0,0.0,0.0,0.0,0.0,0.0,0.0,0.0,0.0,0.0,0.0,0.0,0.0,0.0,0.0,0.0,0.0,0.0,0.0,0.0,0.0,0.0725,0.2494,0.2666,0.2684,0.2697,0.269,0.1907,0.0138,0.0,0.0,0.0,0.0,0.0,0.0,0.0,0.0,0.0,0.0,0.0,0.0,0.0,0.0,0.0,0.0,0.0,0.0,0.0,0.0,0.0,0.0,0.0,0.0,0.0,0.0,0.0,0.0,0.0,0.0,0.0,0.0,0.0,0.0,0.0,0.0,0.0,0.0,0.0,0.0,0.0,0.0,0.0,0.0,0.0,0.0,0.0,0.0,0.0,0.0,0.0,0.0,0.0,0.0,0.0,0.0,0.0,0.0,0.0,0.0,0.0,0.0,0.0,0.0,0.0,0.0,0.0,0.0,0.0,0.0,0.0,0.0,0.0,0.0,0.0,0.0,0.0,0.0,0.0,0.0,0.0,0.0,0.0,0.0,0.0,0.0,0.0,0.0,0.0,0.0,0.0,0.0,0.0,0.0,0.0,0.0,0.0,0.0,0.0,0.0,0.0,0.0,-0.026,0.0515,0.1554,0.3388,0.4047,0.4337,0.4319,0.386,0.2963,0.1612,0.0,0.0,0.0,0.0,0.0,0.0,0.0,0.0,0.0,0.0,0.0,0.0,0.0,0.0,0.0,0.0,0.0,0.0,0.0,0.0,0.0,0.0,0.0,0.0,0.0,0.0,0.0,0.0,0.0,0.0,0.0,0.0,0.0,0.0,0.0,0.0,0.0,0.0,0.0,0.0,0.0,0.0,0.0,0.0,0.0,0.0,0.0,0.0,0.0,0.0,0.0,0.0,0.0,0.0,0.0,0.0,0.0,0.0,0.0,0.0,0.0,0.0,0.0,0.0,0.0,0.0,0.0,0.0,0.0,0.0,0.0,0.0,0.0,0.0,0.0,0.0,0.0,0.0,0.0,0.0,0.0,0.0,0.0,0.0,0.0,0.0,0.0,0.0,0.0,0.0,0.0,0.0,0.0,0.0,0.0,0.0,0.0,0.0,0.0,0.0,0.0,0.0,-0.0257,0.157,0.3399,0.5195,0.696,0.7918,0.7812,0.6361,0.5284,0.0,0.0,0.0,0.0,0.0,0.0,0.0,0.0,0.0,0.0,0.0,0.0,0.0,0.0,0.0,0.0,0.0,0.0,0.0,0.0,0.0,0.0,0.0,0.0,0.0,0.0,0.0,0.0,0.0,0.0,0.0,0.0,0.0,0.0,0.0,0.0,0.0,0.0,0.0,0.0,0.0,0.0,0.0,0.0,0.0,0.0,0.0,0.0,0.0,0.0,0.0,0.0,0.0,0.0,0.0,0.0,0.0,0.0,0.0,0.0,0.0,0.0,0.0,0.0,0.0,0.0,0.0,0.0,0.0,0.0,0.0,0.0,0.0,0.0,0.0,0.0,0.0,0.0,0.0,0.0,0.0,0.0,0.0,0.0,0.0,0.0,0.0,0.0,0.0,0.0,0.0,0.0,0.0,0.0,0.0,0.0,0.0,0.0,0.0,0.0,0.0,0.0,0.0,-0.0063,0.1469,0.3232,0.4978,0.6696,0.7721,0.7691,0.7137,0.6275,0.4996,0.0,0.0,0.0,0.0,0.0,0.0,0.0,0.0,0.0,0.0,0.0,0.0,0.0,0.0,0.0,0.0,0.0,0.0,0.0,0.0,0.0,0.0,0.0,0.0,0.0,0.0,0.0,0.0,0.0,0.0,0.0,0.0,0.0,0.0,0.0,0.0,0.0,0.0,0.0,0.0,0.0,0.0,0.0,0.0,0.0,0.0,0.0,0.0,0.0,0.0,0.0,0.0,0.0,0.0,0.0,0.0,0.0,0.0,0.0,0.0,0.0,0.0,0.0,0.0,0.0,0.0,0.0,0.0,0.0,0.0,0.0,0.0,0.0,0.0,0.0,0.0,0.0,0.0,0.0,0.0,0.0,0.0,0.0,0.0,0.0,0.0,0.0,0.0,0.0,0.0,0.0,0.0,0.0,0.0,0.0,0.0,0.0,0.0,0.0,0.0,0.0,0.0,0.0,0.1514,0.3247,0.4912,0.6673,0.7938,0.8529,0.7859,0.7215,0.6747,0.0,0.0,0.0,0.0,0.0,0.0,0.0,0.0,0.0,0.0,0.0,0.0,0.0,0.0,0.0,0.0,0.0,0.0,0.0,0.0,0.0,0.0,0.0,0.0,0.0,0.0,0.0,0.0,0.0,0.0,0.0,0.0,0.0,0.0,0.0,0.0,0.0,0.0,0.0,0.0,0.0,0.0,0.0,0.0,0.0,0.0,0.0,0.0,0.0,0.0,0.0,0.0,0.0,0.0,0.0,0.0,0.0,0.0,0.0,0.0,0.0,0.0,0.0,0.0,0.0,0.0,0.0,0.0,0.0,0.0,0.0,0.0,0.0,0.0,0.0,0.0,0.0,0.0,0.0,0.0,0.0,0.0,0.0,0.0,0.0,0.0,0.0,0.0,0.0,0.0,0.0,0.0,0.0,0.0,0.0,0.0,0.0,0.0,0.0,0.0,0.0,0.0,0.0,0.1567,0.3291,0.4883,0.6696,0.838,0.9853,0.8533,0.8101,0.935,0.0,0.0,0.0,0.0,0.0,0.0,0.0,0.0,0.0,0.0,0.0,0.0,0.0,0.0,0.0,0.0,0.0,0.0,0.0,0.0,0.0,0.0,0.0,0.0,0.0,0.0,0.0,0.0,0.0,0.0,0.0,0.0,0.0,0.0,0.0,0.0,0.0,0.0,0.0,0.0,0.0,0.0,0.0,0.0,0.0,0.0,0.0,0.0,0.0,0.0,0.0,0.0,0.0,0.0,0.0,0.0,0.0,0.0,0.0,0.0,-1.0435,0.0,0.0,0.0,0.0,0.0,0.0,0.0,0.0,0.0,0.0,0.0,0.0,0.0,0.0,0.0,0.0,0.0,0.0,0.0,0.0,0.0,0.0,0.0,0.0,0.0,0.0,0.0,0.0,0.0,0.0,0.0,0.0,0.0,0.0,0.0,0.0,0.0,0.0,0.0,0.0,0.0,0.0,0.1516,0.3169,0.4788,0.6458,0.8127,0.968,0.9301,0.9111,0.9557,0.7404,0.0,0.0,0.0,0.0,0.0,0.0,0.0,0.0,0.0,0.0,0.0,0.0,0.0,0.0,0.0,0.0,0.0,0.0,0.0,0.0,0.0,0.0,0.0,0.0,0.0,0.0,0.0,0.0,0.0,0.0,0.0,0.0,0.0,0.0,0.0,0.0,0.0,0.0,0.0,0.0,0.0,0.0,0.0,0.0,0.0,0.0,0.0,0.0,0.0,0.0,0.0,0.0,0.0,0.0,0.0,0.0,0.0,0.0,0.0,0.0,-0.981,0.0,0.0,0.0,0.0,0.0,0.0,0.0,0.0,0.0,0.0,0.0,0.0,0.0,0.0,0.0,0.0,0.0,0.0,0.0,0.0,0.0,0.0,0.0,0.0,0.0,0.0,0.0,0.0,0.0,0.0,0.0,0.0,0.0,0.0,0.0,0.0,0.0,0.0,0.0,0.0,0.0,0.0751,0.1932,0.3549,0.4512,0.6013,0.8277,0.8341,0.852,0.9229,0.8332,0.0,0.0,0.0,0.0,0.0,0.0,0.0,0.0,0.0,0.0,0.0,0.0,0.0,0.0,0.0,0.0,0.0,0.0,0.0,0.0,0.0,0.0,0.0,0.0,0.0,0.0,0.0,0.0,0.0,0.0,0.0,0.0,0.0,0.0,0.0,0.0,0.0,0.0,0.0,0.0,0.0,0.0,0.0,0.0,0.0,0.0,0.0,0.0,0.0,0.0,0.0,0.0,0.0,-0.6498,-0.6347,-0.6432,-0.5924,-0.5613,-0.5408,-0.5641,-0.6859,-0.8773,-0.8554,0.0,0.0,0.0,0.0,0.0,0.0,0.0,0.0,0.0,0.0,0.0,0.0,0.0,0.0,0.0,0.0,0.0,0.0,0.0,0.0,0.0,0.0,0.0,0.0,0.0,0.0,0.0,0.0,0.0,0.0,0.0,0.0,0.0,0.0,0.0,0.0,0.0,0.0,0.0,0.0,0.0623,0.2333,0.2515,0.3744,0.6851,0.6981,0.7505,0.887,0.9042,0.9049,0.0,0.0,0.0,0.0,0.0,0.0,0.0,0.0,0.0,0.0,0.0,0.0,0.0,0.0,0.0,0.0,0.0,0.0,0.0,0.0,0.0,0.0,0.0,0.0,0.0,0.0,0.0,0.0,0.0,0.0,0.0,0.0,-1.1031,-1.3148,0.0,0.0,0.0,0.0,0.0,0.0,0.0,0.0,0.0,0.0,0.0,0.0,0.0,-0.7385,-0.7367,-0.6949,-0.6712,-0.6571,-0.4691,-0.3722,-0.3579,-0.1743,-0.09,-0.088,-0.0871,0.0,-0.6318,-0.462,0.0,0.0,0.0,0.0,0.0,0.0,0.0,0.0,0.0,0.0,0.0,0.0,0.0,0.0,0.0,0.0,0.0,0.0,0.0,0.0,0.0,0.0,0.0,0.0,0.0,0.0,0.0,-0.0194,-0.0387,-0.0377,-0.0374,0.0,0.0,0.0,0.0,0.0,0.0,0.0,0.0,0.0,0.0621,0.2295,0.2473,0.3755,0.6846,0.6981,0.7539,0.9067,0.8899,0.8872,0.9173,0.7616,0.0,0.0,0.0,0.0,0.0,0.0,0.0,0.0,0.0,0.0,0.0,0.0,0.0,0.0,0.0,0.0,0.0,0.0,0.0,0.0,0.0,0.0,0.0,0.0,0.0,0.0,0.0,0.0,0.0,-1.1288,-1.032,-1.1201,-0.961,-0.8822,0.0,0.0,0.0,0.0,0.0,0.0,0.0,0.0,0.0,-1.0986,-0.8486,-0.7132,-0.6908,-0.4306,-0.2926,-0.2841,-0.1896,-0.2057,-0.3223,-0.2348,-0.1895,-0.1852,-0.191,-0.2171,-0.2618,-0.2876,-0.4158,-0.6004,0.0,0.0,0.0,0.0,-1.0712,-1.1572,-1.1511,-1.1436,-1.1241,-1.0364,0.0,0.0,0.0,0.0,0.0,0.0,0.0,0.0,0.0,0.0,0.0,0.0,0.0,0.0,0.0,0.0,0.0,0.0,0.0,0.0,0.0,0.0,0.0,0.0,0.0,0.0,0.0,0.0,0.0278,0.1017,0.1075,0.1985,0.4161,0.51,0.6205,0.7673,0.841,0.8933,0.92,0.8613,0.8486,0.0,0.0,0.0,0.0,0.0,0.0,0.0,0.0,0.0,0.0,0.0,0.0,0.0,0.0,0.0,0.0,0.0,0.0,0.0,0.0,0.0,0.0,0.0,0.0,0.0,0.0,0.0,0.0,-1.0683,-0.9207,-0.9547,-0.7439,-0.6215,0.0,0.0,0.0,0.0,0.0,0.0,-0.9787,-0.9993,-1.0814,-1.2461,-0.9207,-0.7283,-0.7011,-0.3547,-0.1477,-0.0964,-0.0964,-0.1745,-0.3291,-0.3409,-0.3671,-0.4067,-0.3621,-0.2442,-0.0842,-0.1778,-0.2974,-0.4292,-0.536,-0.6593,-0.786,-0.8965,-1.0168,-1.1274,-1.1233,-1.1145,-1.0858,-0.9607,-0.8782,-0.801,-0.6203,0.0,0.0,0.0,0.0,-0.1793,-0.0398,0.0,0.0,0.0,0.0,0.0,0.0,0.0,0.0,0.0,0.0,0.0,0.0,0.0,0.0,0.0,0.0,0.0,0.0,0.0,0.0,0.0,0.0,0.0616,0.2068,0.3631,0.5139,0.6589,0.8097,0.8988,0.9096,0.9388,0.9618,0.9768,0.0,0.0,0.0,0.0,0.0,0.0,0.0,0.0,0.0,0.0,0.0,0.0,0.0,0.0,0.0,0.0,0.0,0.0,0.0,0.0,0.0,0.0,0.0,0.0,0.0,0.0,0.0,0.0,0.0,-0.9193,-0.5972,0.0,0.0,0.0,0.0,-0.6933,-0.7338,-0.7638,-0.7713,-0.7929,-0.8012,-0.8083,-0.7667,-0.7352,-0.7418,-0.6988,-0.562,-0.3396,-0.3396,-0.3449,-0.3379,-0.3376,-0.4503,-0.6249,-0.4232,-0.3219,-0.2772,-0.0909,-0.0221,-0.0655,-0.4366,-0.576,-0.6178,-0.9747,-1.1015,-1.088,-1.0806,-1.0751,-1.0785,-1.1002,-0.9886,-0.8121,-0.6069,-0.4221,0.0,0.0,-0.1502,-0.0129,0.0,0.0,0.0,0.0,0.0,0.0,0.0,0.0,0.0,0.0,0.0,0.0,0.0,0.0,0.0,0.0,0.0,0.0,0.0,0.0,0.0,0.0,0.0,0.0616,0.2068,0.3631,0.5139,0.6589,0.8097,0.8885,0.8892,0.9232,0.9462,0.9618,0.8,0.0,0.0,0.0,0.0,0.0,0.0,0.0,0.0,0.0,0.0,0.0,0.0,0.0,0.0,0.0,0.0,0.0,0.0,0.0,0.0,0.0,0.0,0.0,0.0,0.0,0.0,0.0,0.0,-0.7561,-0.3839,0.0,-0.2307,-0.2428,-0.2447,-0.2431,-0.4212,-0.5935,-0.7532,-0.9377,-1.0948,-1.2158,-1.0764,-0.9862,-0.9523,-0.7877,-0.6704,-0.5809,-0.577,-0.6495,-0.7866,-0.7588,-0.7932,-0.854,-0.6354,-0.4536,-0.2908,-0.0838,-0.0746,-0.1985,-0.3377,-0.5383,-0.7655,-0.8948,-1.0104,-1.0873,-1.082,-1.0806,-1.0518,-0.9389,-0.7084,-0.4585,-0.3801,-0.2336,-0.0968,-0.0973,-0.0515,0.0,0.0,0.0,0.0,0.0,0.0,0.0,0.0,0.0,0.0,0.0,0.0,0.0,0.0,0.0,0.0,0.0,0.0,0.0,0.0,0.0,0.0,0.0,0.0,0.0224,0.0728,0.3075,0.4749,0.525,0.7537,0.8981,0.9076,0.9234,0.9354,0.9605,0.8906,0.8185,0.0,0.0,0.0,0.0,0.0,0.0,0.0,0.0,0.0,0.0,0.0,0.0,0.0,0.0,0.0,0.0,0.0,0.0,0.0,0.0,0.0,0.0,0.0,0.0,0.0,0.0,-0.6492,-0.6712,-0.2775,0.0,0.0,0.0,0.0,0.0,-0.3306,-0.6,-0.7667,-1.1085,-1.3715,-1.4959,-1.3351,-1.2346,-1.2096,-1.0397,-0.9108,-0.8308,-0.8217,-0.8913,-1.028,-0.9973,-1.0169,-1.0753,-0.7752,-0.5609,-0.3983,-0.1841,-0.2114,-0.3864,-0.3912,-0.5756,-0.8568,-0.9271,-1.0072,-1.0873,-1.082,-1.0739,-1.03,-0.7817,-0.5467,-0.3347,-0.2026,-0.0906,0.0,0.0,0.0,0.0,0.0,0.0,0.0,0.0,0.0,0.0,0.0,0.0,0.0,0.0,0.0,0.0,0.0,0.0,0.0,0.0,0.0,0.0,0.0,0.0,0.0,0.0,0.0,0.0,0.0,0.2809,0.4553,0.4529,0.726,0.8981,0.9076,0.9187,0.933,0.953,0.9435,0.8986,0.8099,0.0,0.0,0.0,0.0,0.0,0.0,0.0,0.0,0.0,0.0,0.0,0.0,0.0,0.0,0.0,0.0,0.0,0.0,0.0,0.0,0.0,0.0,0.0,-1.2464,-0.8973,-0.6525,-0.6624,-0.2651,0.0,0.0,0.0,0.0,-0.0098,-0.4991,-0.8081,-0.8131,-1.283,-1.5642,-1.5635,-1.5059,-1.474,-1.4733,-1.4441,-1.3129,-1.0801,-1.0683,-1.0565,-1.0355,-1.0047,-1.099,-1.2782,-0.8384,-0.6398,-0.6091,-0.3863,-0.4042,-0.5784,-0.5869,-0.6984,-0.8823,-1.0677,-1.1206,-1.086,-1.0772,-1.0717,-1.0114,-0.6631,-0.5443,-0.4738,-0.1136,-0.0065,0.0,0.0,0.0,0.0,0.0,0.0,0.0,0.0,0.0,0.0,0.0,0.0,0.0,0.0,0.0,0.0,0.0,0.0,0.0,0.0,0.0,0.0,0.0,0.0,0.0,0.0,0.0,0.0,0.0,0.2893,0.4658,0.4533,0.726,0.8885,0.8885,0.9076,0.9275,0.9367,0.9374,0.9381,0.9381,0.0,0.0,0.0,0.0,0.0,0.0,0.0,0.0,0.0,0.0,0.0,0.0,0.0,0.0,0.0,0.0,0.0,0.0,0.0,0.0,0.0,-1.2922,-1.2566,-1.0753,-0.8245,-0.5939,-0.452,-0.1762,0.0,0.0,0.0,-0.0797,-0.2774,-0.6065,-0.8894,-1.084,-1.4004,-1.5696,-1.5479,-1.5106,-1.4801,-1.4577,-1.4394,-1.3885,-1.3154,-1.3015,-1.2734,-1.2579,-1.2219,-1.2327,-1.2542,-0.8207,-0.6322,-0.6092,-0.3812,-0.4066,-0.5948,-0.7378,-0.905,-1.0817,-1.1217,-1.1206,-1.086,-1.0772,-1.0717,-1.03,-0.7944,-0.6321,-0.4981,-0.2543,-0.097,0.0,0.0,0.0,0.0,0.0,0.0,0.0,0.0,0.0,0.0,0.0,0.0,0.0,0.0,0.0,0.0,0.0,0.0,0.0,0.0,0.0,0.0,0.0,0.0,0.0,0.0,0.0,0.0,0.0,0.2799,0.4545,0.4477,0.726,0.8885,0.8885,0.8974,0.9015,0.9062,0.9273,0.9381,0.0,0.0,0.0,0.0,0.0,0.0,0.0,0.0,0.0,0.0,0.0,0.0,0.0,0.0,0.0,0.0,0.0,0.0,0.0,0.0,0.0,0.0,-1.3288,-1.2876,-1.0598,-0.8205,-0.6374,-0.5248,-0.2099,0.0,0.0,0.0,-0.1118,-0.3862,-0.6561,-0.9275,-1.1979,-1.4595,-1.5744,-1.5513,-1.516,-1.4855,-1.4611,-1.4401,-1.4224,-1.4068,-1.3912,-1.3688,-1.339,-1.3091,-1.2874,-1.2476,-0.8128,-0.6799,-0.7358,-0.5052,-0.5292,0.0,0.0,0.0,0.0,0.0,-1.1097,-1.086,-1.0772,-1.018,-0.9293,-0.7431,-0.5628,-0.3904,-0.2036,-0.0784,0.0,0.0,0.0,0.0,0.0,0.0,0.0,0.0,0.0,0.0,0.0,0.0,0.0,0.0,0.0,0.0,0.0,0.0,0.0,0.0,0.0,0.0,0.0,0.0,0.0,0.0,0.0,0.0,0.0,0.2853,0.0,0.0,0.0,0.9001,0.8885,0.8994,0.0,0.0,0.0,0.9381,0.9381,0.0,0.0,0.0,0.747,0.7614,0.0,0.0,0.0,0.0,0.0,0.0,0.0,0.0,0.0,0.0,0.0,0.0,0.0,0.0,0.0,0.0,-1.3743,-1.3521,-1.1655,-0.9183,-0.7516,-0.7228,-0.3232,-0.0308,0.0,-0.0308,-0.1645,-0.438,-0.7035,-0.9714,-1.2543,0.0,0.0,0.0,0.0,-1.4869,-1.4713,-1.4441,-1.4211,-1.4041,-1.3905,-1.3668,-1.3342,-1.3078,-1.2868,-1.2449,-0.8384,-0.7599,-0.9015,-0.6959,-0.7248,-0.8962,-0.8897,-0.9871,-1.1307,-1.0975,-1.0873,-1.0833,-1.0765,0.0,0.0,-0.5964,-0.4158,-0.235,-0.0538,0.0,0.0,0.0,0.0,0.0,0.0,0.0,0.0,0.0,0.0,0.0,0.0,0.0,0.0,0.0,0.0,0.0,0.0,0.0,0.0,0.0,0.0,0.0,0.0,0.0,0.0,0.0,0.0,0.0,0.0,0.2981,0.4802,0.4539,0.7453,0.9123,0.8939,0.911,0.9303,0.9381,0.9381,0.9388,0.9408,0.9408,0.9483,0.9646,1.0025,1.0141,0.0,0.0,0.0,0.0,0.0,0.0,0.0,0.0,0.0,0.0,0.0,0.0,0.0,0.0,0.0,-1.3648,-1.4116,-1.445,-1.4474,-1.2439,-0.9379,-0.5209,-0.3827,-0.2426,-0.0203,-0.1923,-0.4346,-0.7092,-0.9773,-1.2468,-1.5251,-1.5558,-1.5608,-1.5459,-1.5018,-1.4713,-1.4557,-1.4387,-1.4163,-1.3885,0.0,0.0,-1.3044,-1.299,-1.2807,-1.2387,-0.9904,-0.8928,-0.9141,-0.8576,-0.9291,-1.0896,-1.0838,-1.0892,-1.0961,-1.09,-1.0806,-1.0758,-1.0731,-0.951,-0.7698,-0.5964,-0.4158,-0.235,-0.0538,0.0,0.0,0.0,0.0,0.0,0.0,0.0,0.0,0.0,0.0,0.0,0.0,0.0,0.0,0.0,0.0,0.0,0.0,0.0,0.0,0.0,0.0,0.0,0.0,0.0,0.0,0.0,0.0,0.0,0.0,0.294,0.4704,0.4674,0.7638,0.9327,0.9293,0.932,0.9354,0.9381,0.9381,0.9442,0.9564,0.9564,0.9639,0.9781,0.9754,0.9781,0.0,0.0,0.0,0.0,0.0,0.0,0.0,0.0,0.0,0.0,0.0,-1.3329,-1.3105,0.0,-1.3722,-1.4021,-1.457,-1.5092,-1.5472,-1.4592,-1.2489,-0.8532,-0.6835,-0.5432,-0.4129,-0.5231,-0.7151,-0.9911,-1.1378,-1.3284,-1.6091,-1.5913,-1.5642,-1.5418,-1.5052,-1.4746,-1.4516,-1.4373,-1.4143,-1.3838,-1.3838,-1.3532,-1.2963,-1.2963,-1.2793,-1.234,-1.0323,-0.9916,-1.0712,-1.0432,-1.0771,-1.1382,-1.1307,-1.1145,-1.0873,-1.0793,-1.0785,-1.0717,-1.0717,-0.8972,-0.6564,-0.5696,-0.3557,-0.121,-0.0269,0.0,0.0,0.0,0.0,0.0,0.0,0.0,0.0,0.0,0.0,0.0,0.0,0.0,0.0,0.0,0.0,0.0,0.0,0.0,0.0,0.0,0.0,0.0,0.0,0.0,0.0,0.0,0.0,0.0,0.0,0.2116,0.4488,0.7,0.7769,0.8497,0.9381,0.9381,0.9415,0.9496,0.9496,0.9564,0.9713,0.9713,0.9754,0.9822,0.9747,0.9754,0.0,0.0,0.0,0.0,0.0,0.0,0.0,0.0,-1.3403,-1.3247,-1.3485,-1.3661,-1.3478,-1.3838,-1.4217,-1.4401,-1.5004,-1.552,-1.5696,-1.5934,-1.528,-1.3184,-1.0458,-0.8539,-0.8038,-0.8439,-0.9773,-1.2075,-1.2606,-1.3907,-1.6159,-1.5974,-1.5676,-1.5377,-1.5079,-1.478,-1.4475,-1.4353,-1.4143,-1.3838,-1.381,-1.3505,-1.3043,-1.2929,-1.2766,-1.2417,-1.0721,-1.079,-1.2182,-1.1932,-1.1653,-1.1375,-1.1219,-1.1077,-1.086,-1.0778,-1.0717,-1.0717,-1.0717,-0.8374,-0.5429,-0.5429,-0.2954,0.0,0.0,0.0,0.0,0.0,0.0,0.0,0.0,0.0,0.0,0.0,0.0,0.0,0.0,0.0,0.0,0.0,0.0,0.0,0.0,0.0,0.0,0.0,0.0,0.0,0.0,0.0,0.0,0.0,0.0,0.0123,0.0432,0.1584,0.4222,0.8863,0.7799,0.7744,0.9404,0.9469,0.9523,0.9646,0.9652,0.9707,0.9822,0.9822,0.9822,0.9822,0.9822,0.9822,-1.1952,-1.0626,-0.9393,-0.969,-0.9708,-1.0234,0.0,0.0,-1.3559,-1.3403,-1.3722,-1.3939,-1.3654,-1.4075,-1.4557,-1.4848,-1.5303,-1.571,-1.5995,-1.6062,-1.603,-1.5857,-1.3323,-1.0645,-0.8242,-1.0245,-1.1754,-1.2063,-1.4271,-1.5784,-1.6103,-1.5825,-1.5527,-1.5215,-1.4923,-1.4624,-1.4326,-1.4306,-1.4143,-1.3838,-1.3715,-1.341,-1.2956,-1.282,-1.2664,-1.2494,-1.2116,-1.191,-1.1877,-1.1843,-1.1653,-1.1375,-1.1219,-1.1077,-1.086,-1.0778,-1.0717,-1.0717,-1.0717,-0.8374,-0.5429,-0.5429,-0.2954,0.0,0.0,0.0,0.0,0.0,0.0,0.0,0.0,0.0,0.0,0.0,0.0,0.0,0.0,0.0,0.0,0.0,0.0,0.0,0.0,0.0,0.0,0.0,0.0,0.0,0.0,0.0,0.0,0.0,0.0,0.0617,0.2094,0.2397,0.3924,0.7403,0.7453,0.8055,0.9714,0.9774,0.9781,0.9795,0.9795,0.9802,0.9822,0.9822,0.9822,0.9822,0.9822,0.9822,-1.0802,-0.7933,-0.6052,-0.8794,-0.8683,-0.8841,-1.2573,-1.3654,-1.3844,-1.3688,-1.4082,-1.4421,-1.4299,-1.4618,-1.5004,0.0,-1.5588,-1.5839,-1.6049,-1.6001,-1.594,-1.592,-1.4794,-1.3712,-1.2835,-1.3691,-1.4342,-1.4342,-1.527,-1.5825,-1.5825,-1.554,-1.5276,-1.5065,-1.4767,-1.4509,-1.4299,-1.4211,-1.4055,-1.3838,-1.3607,-1.3308,-1.2956,-1.28,-1.2644,-1.2494,-1.2352,-1.2169,-1.1959,-1.187,-1.1708,-1.1497,-1.126,-1.1124,-1.1043,-1.0806,-1.0717,-1.0717,-1.0717,-0.8374,-0.5429,-0.5429,-0.2954,0.0,0.0,0.0,0.0,0.0,0.0,0.0,0.0,0.0,0.0,0.0,0.0,0.0,0.0,0.0,0.0,0.0,0.0,0.0,0.0,0.0,0.0,0.0,0.0,0.0,0.0,0.0,0.0,0.0,0.0,0.0679,0.2339,0.1602,0.2891,0.7113,0.6503,0.7118,0.97,0.9822,0.9822,0.9822,0.9822,0.9822,0.9822,0.9822,0.9822,0.9822,0.9822,0.9822,-0.901,-0.6232,0.0,-0.7981,-0.8313,-0.8838,-1.2694,-1.3933,-1.4211,-1.4055,-1.4407,-1.4726,-1.4685,-1.4923,-1.5221,-1.5527,-1.573,-1.592,-1.6117,-1.594,-1.5771,-1.5703,-1.5493,-1.5479,-1.5798,-1.5771,-1.575,-1.5791,-1.5696,-1.5642,-1.5642,-1.535,-1.512,-1.4977,-1.4672,-1.4441,-1.4299,-1.415,-1.3994,-1.3838,-1.3498,-1.3207,-1.2949,-1.2718,-1.2501,-1.2311,-1.225,-1.2115,-1.1932,-1.1864,-1.1694,-1.147,-1.1246,-1.1111,-1.1016,-1.0799,-1.0717,-1.0651,-1.0114,-0.7969,-0.5295,-0.4827,-0.2545,0.0,0.0,0.0,0.0,0.0,0.0,0.0,0.0,0.0,0.0,0.0,0.0,0.0,0.0,0.0,0.0,0.0,0.0,0.0,0.0,0.0,0.0,0.0,0.0,0.0,0.0,0.0,0.0,0.0,0.0,0.0494,0.1725,0.111,0.2401,0.6442,0.6018,0.6888,0.9761,0.9842,0.9842,0.9883,0.9842,0.9822,0.9822,0.9822,0.9822,0.9822,0.9822,0.9822,-0.6499,-0.6119,-0.6466,-0.6686,-0.8694,-1.1198,-1.3541,-1.4401,-1.4679,-1.4523,-1.4624,-1.4692,-1.455,-1.4767,-1.5072,-1.5371,-1.5662,-1.5961,-1.6259,-1.592,-1.5696,-1.5832,-1.5459,-1.5194,0.0,-1.5343,-1.5486,-1.5635,-1.5642,-1.5642,-1.5642,-1.535,-1.512,-1.4977,-1.4672,-1.4441,-1.4299,-1.415,-1.3994,-1.3838,-1.339,-1.3105,-1.2949,-1.2501,-1.2135,-1.1857,-1.2006,-1.1904,-1.164,-1.1775,-1.1572,-1.1241,-1.1165,-1.0989,-1.0731,-1.0724,-1.0717,-1.0452,-0.8701,-0.6898,-0.5095,-0.3354,-0.1532,0.0,0.0,0.0,0.0,0.0,0.0,0.0,0.0,0.0,0.0,0.0,0.0,0.0,0.0,0.0,0.0,0.0,0.0,0.0,0.0,0.0,0.0,0.0,0.0,0.0,0.0,0.0,0.0,0.0,0.0,0.0,0.0062,0.154,0.3139,0.4855,0.6442,0.815,0.9908,0.9835,0.989,0.9977,0.9897,0.9822,0.9822,0.9822,0.9822,0.9822,0.9822,0.9822,-0.4409,-0.4236,-0.4976,-0.6693,-0.8987,-1.1476,-1.3975,-1.4631,-1.4699,-1.4543,-1.4475,-1.4434,-1.438,-1.4529,-1.4794,-1.5194,-1.5513,-1.5818,-1.6117,-1.594,-1.5689,-1.5438,-1.5194,0.0,0.0,0.0,0.0,-1.5194,-1.5099,-1.5045,-1.5045,-1.4848,-1.4713,-1.4665,-1.4475,-1.4299,-1.415,-1.3994,-1.3797,-1.3539,-1.299,-1.2651,-1.2508,-1.2257,-1.2081,-1.1979,-1.1932,-1.185,-1.1748,-1.1599,-1.145,-1.1294,-1.1097,-1.0962,-1.0793,-1.0758,-0.9915,-0.8834,-0.823,-0.6831,-0.5095,-0.3289,-0.1464,0.0,0.0,0.0,0.0,0.0,0.0,0.0,0.0,0.0,0.0,0.0,0.0,0.0,0.0,0.0,0.0,0.0,0.0,0.0,0.0,0.0,0.0,0.0,0.0,0.0,0.0,0.0,0.0,0.0,0.0,0.0,0.0,0.154,0.32,0.4794,0.6442,0.8156,0.9915,0.9903,0.989,0.9984,0.9897,0.9822,0.9822,0.9822,0.9822,0.9822,0.9862,0.9909,-0.449,-0.4514,-0.5485,-0.8011,-1.0502,-1.2824,-1.4322,-1.4821,-1.4808,-1.4502,-1.4272,-1.4102,-1.4,-1.3966,-1.4122,-1.4618,-1.4916,-1.5255,-1.5771,-1.5622,-1.5384,-1.5201,-1.4964,-1.4713,0.0,0.0,0.0,-1.4882,-1.4794,-1.474,-1.474,-1.459,-1.4509,-1.4509,-1.4373,-1.4224,-1.4075,-1.3919,-1.3641,-1.3234,-1.2739,-1.24,-1.2203,-1.2047,-1.1952,-1.1898,-1.1796,-1.1755,-1.1735,-1.1491,-1.1362,-1.1287,-1.1043,-1.0847,-1.0786,-1.0758,-0.9576,-0.7897,-0.7298,-0.5897,-0.4158,-0.235,-0.0929,0.0,0.0,0.0,0.0,0.0,0.0,0.0,0.0,0.0,0.0,0.0,0.0,0.0,0.0,0.0,0.0,0.0,0.0,0.0,0.0,0.0,0.0,0.0,0.0,0.0,0.0,0.0,0.0,0.0,0.0,0.0,0.0,0.2033,0.382,0.4892,0.7116,0.8865,1.0132,1.0066,1.0032,1.0127,0.9978,0.9876,0.9822,0.9822,0.9822,0.9822,0.9916,0.9984,-0.6371,-0.6791,-0.7751,-1.0323,-1.2993,-1.493,-1.4787,-1.4957,-1.4984,-1.4394,-1.4021,-1.3702,0.0,0.0,-1.3166,-1.3743,-1.4,-1.4434,-1.5303,-1.5059,-1.4889,0.0,0.0,0.0,0.0,0.0,0.0,-1.4719,0.0,-1.4719,-1.4719,-1.4577,-1.4502,-1.4502,-1.4373,-1.4224,-1.4061,-1.3885,-1.3512,-1.3036,-1.2637,-1.2332,-1.2054,-1.1891,-1.1748,-1.1619,-1.1619,-1.1619,-1.1606,-1.1443,-1.1294,-1.1151,-1.0995,-1.0779,-1.0717,-1.0717,-0.951,-0.7631,-0.5964,-0.4225,-0.2417,-0.0606,0.0,0.0,0.0,0.0,0.0,0.0,0.0,0.0,0.0,0.0,0.0,0.0,0.0,0.0,0.0,0.0,0.0,0.0,0.0,0.0,0.0,0.0,0.0,0.0,0.0,0.0,0.0,0.0,0.0,0.0,0.0,0.0,0.0,0.3022,0.4957,0.5088,0.8171,1.0188,1.048,1.0358,1.0283,1.029,1.0141,0.993,0.9842,0.9836,0.9836,0.9849,0.993,1.0004,-0.6753,-0.7163,-0.7929,-1.0454,-1.304,-1.4964,-1.4923,-1.4794,-1.4543,-1.4055,-1.3546,-1.3091,0.0,0.0,0.0,-1.3763,-1.4434,0.0,-1.5513,-1.5574,0.0,-1.5215,0.0,-1.4909,-1.4652,-1.4557,0.0,0.0,-1.4475,-1.4414,-1.4414,-1.4373,-1.4353,-1.4353,-1.4319,-1.417,-1.3905,-1.3424,-1.3112,-1.2956,-1.2427,-1.2135,-1.2054,-1.1796,-1.1653,-1.1619,-1.1619,-1.1619,-1.1599,-1.1335,-1.1199,-1.1138,-1.088,-1.0758,-1.0717,-1.0717,-0.8706,-0.603,-0.5563,-0.4225,-0.2417,-0.0606,0.0,0.0,0.0,0.0,0.0,0.0,0.0,0.0,0.0,0.0,0.0,0.0,0.0,0.0,0.0,0.0,0.0,0.0,0.0,0.0,0.0,0.0,0.0,0.0,0.0,0.0,0.0,0.0,0.0,0.0,0.0,0.0,0.0,0.3116,0.5086,0.5107,0.8298,1.0304,1.0487,1.0358,1.0331,1.0432,1.0297,1.0202,1.0161,1.0046,1.0053,1.0161,1.0202,1.0276,-0.8577,-0.8959,-0.9789,-1.2356,-1.4107,-1.5092,-1.4828,-1.4638,-1.4312,-1.36,-1.3085,-1.2671,-1.2366,-1.2461,0.0,0.0,0.0,0.0,-1.5174,-1.5371,-1.5398,0.0,-1.5126,0.0,-1.4665,-1.4685,-1.4631,0.0,-1.4346,-1.4299,-1.4299,-1.4299,-1.4299,-1.4299,-1.4299,-1.4122,-1.3749,-1.3227,-1.2895,-1.2752,-1.2284,-1.2026,-1.1952,-1.1721,-1.1619,-1.1619,0.0,-1.1579,-1.1497,-1.126,-1.1124,-1.1043,-1.0812,-1.0717,-1.0731,-1.0799,-0.8483,-0.5436,-0.5467,-0.3775,-0.1344,-0.0336,0.0,0.0,0.0,0.0,0.0,0.0,0.0,0.0,0.0,0.0,0.0,0.0,0.0,0.0,0.0,0.0,0.0,0.0,0.0,0.0,0.0,0.0,0.0,0.0,0.0,0.0,0.0,0.0,0.0,0.0,0.0,0.0,0.0,0.3151,0.5151,0.525,0.8489,1.0439,1.0588,1.0514,1.048,1.0493,1.0412,1.0344,1.0283,1.0195,1.0195,1.0283,1.0344,1.0419,-1.1242,-1.1502,-1.2036,-1.461,-1.5296,-1.5228,-1.4645,-1.4448,-1.4109,-1.3105,0.0,-1.2352,-1.206,-1.1945,-1.2094,-1.2718,0.0,-1.3946,-1.4692,-1.4916,-1.5045,-1.5167,-1.5059,-1.4869,-1.4597,-1.4774,-1.4746,-1.436,-1.4312,-1.4299,-1.4299,-1.4299,-1.4292,-1.4272,-1.4251,-1.4034,-1.36,-1.3173,-1.2813,-1.2528,-1.223,-1.2013,-1.1857,-1.1714,-1.164,-1.1619,-1.1619,-1.1545,-1.1409,-1.1253,-1.1118,-1.0927,-1.0839,-1.0778,-1.0792,-1.0928,-0.8631,-0.5453,-0.5583,-0.3121,0.0,0.0,0.0,0.0,0.0,0.0,0.0,0.0,0.0,0.0,0.0,0.0,0.0,0.0,0.0,0.0,0.0,0.0,0.0,0.0,0.0,0.0,0.0,0.0,0.0,0.0,0.0,0.0,0.0,0.0,0.0,0.0,0.0,0.0,0.0,0.2911,0.4936,0.5391,0.8416,1.0313,1.0717,1.0717,1.0656,1.0527,1.0521,1.046,1.0337,1.0317,1.0317,1.0344,1.0446,1.05,-1.3764,-1.3163,-1.236,-1.4787,-1.5296,-1.5099,-1.4618,-1.4136,0.0,0.0,-1.2345,-1.2047,-1.1748,-1.1979,-1.2447,-1.3166,-1.3682,-1.4251,-1.4997,-1.5126,-1.5153,0.0,-1.5059,-1.495,-1.4896,-1.4713,0.0,0.0,-1.4367,-1.4299,-1.4299,-1.4299,-1.4245,-1.4116,-1.3987,-1.3763,-1.3444,-1.3119,-1.2868,-1.2684,-1.2393,-1.2169,-1.202,-1.1864,-1.1728,-1.1619,-1.1619,0.0,-1.1565,-1.1416,-1.1335,-1.1301,-1.1145,-1.1084,-1.109,-1.1118,-0.8749,-0.5587,-0.56,-0.3121,0.0,0.0,0.0,0.0,0.0,0.0,0.0,0.0,0.0,0.0,0.0,0.0,0.0,0.0,0.0,0.0,0.0,0.0,0.0,0.0,0.0,0.0,0.0,0.0,0.0,0.0,0.0,0.0,0.0,0.0,0.0,0.0,0.0,0.0,0.0,0.1934,0.3799,0.5275,0.7337,0.9148,1.0651,1.0717,1.0711,1.0683,1.0677,1.067,1.0643,1.0514,1.0521,1.0643,1.0541,1.0561,-1.4819,-1.4591,-1.4256,-1.5365,-1.5527,-1.5221,-1.4455,0.0,0.0,0.0,-1.2101,-1.1972,-1.1674,0.0,0.0,-1.2752,0.0,0.0,0.0,-1.4624,0.0,-1.4936,-1.4964,-1.4909,0.0,-1.4672,-1.4563,-1.4414,-1.4407,-1.438,-1.4306,-1.4299,-1.4231,-1.4075,-1.3919,-1.3661,-1.3288,-1.3071,-1.2807,-1.2494,-1.2277,-1.2135,-1.2054,-1.1823,-1.1721,-1.1728,-1.1653,0.0,-1.1497,-1.1423,-1.1341,-1.1267,-1.1261,-1.1234,-1.1241,-1.1253,-0.9463,-0.6911,-0.5997,-0.382,-0.1277,-0.0336,0.0,0.0,0.0,0.0,0.0,0.0,0.0,0.0,0.0,0.0,0.0,0.0,0.0,0.0,0.0,0.0,0.0,0.0,0.0,0.0,0.0,0.0,0.0,0.0,0.0,0.0,0.0,0.0,0.0,0.0,0.0,0.0,0.0,0.168,0.3488,0.5295,0.6164,0.7836,1.0585,0.9775,0.9709,1.0651,1.0717,1.0717,1.0717,1.0649,1.0649,1.0717,1.0643,1.0649,-1.5276,-1.5723,-1.6103,-1.5981,-1.5771,-1.533,-1.4346,-1.3817,0.0,0.0,-1.1952,-1.1932,-1.1667,0.0,0.0,0.0,0.0,0.0,0.0,0.0,0.0,0.0,0.0,0.0,-1.4536,-1.459,0.0,-1.4319,-1.4373,-1.4367,-1.4258,-1.4251,-1.4163,-1.398,-1.3858,-1.358,-1.3132,-1.3017,-1.2752,-1.2332,-1.2216,-1.2142,-1.2101,-1.1837,-1.1755,-1.1823,-1.1681,-1.1552,0.0,-1.1443,-1.1369,-1.126,-1.126,-1.126,-1.1274,-1.1396,-1.0119,-0.8113,-0.6395,-0.4458,-0.2417,-0.0606,0.0,0.0,0.0,0.0,0.0,0.0,0.0,0.0,0.0,0.0,0.0,0.0,0.0,0.0,0.0,0.0,0.0,0.0,0.0,0.0,0.0,0.0,0.0,0.0,0.0,0.0,0.0,0.0,0.0,0.0,0.0,0.0,0.0,0.1277,0.2887,0.4693,0.4827,0.6231,0.9443,0.8169,0.8302,1.0114,1.0114,1.0313,1.0717,1.0717,1.0717,1.0717,1.0717,1.0717,-1.5716,-1.6035,-1.6286,-1.6273,-1.5845,-1.5228,-1.4455,0.0,-1.299,-1.2203,-1.1938,-1.1803,-1.1647,0.0,0.0,0.0,0.0,-1.2895,0.0,0.0,0.0,0.0,0.0,0.0,0.0,-1.4407,0.0,-1.4299,-1.4183,-1.4109,-1.4095,-1.4095,-1.3966,-1.3682,-1.3654,-1.3437,-1.2983,-1.305,-1.28,-1.2481,-1.2467,-1.2393,-1.2264,-1.2094,-1.1952,-1.1823,-1.1681,-1.1613,0.0,-1.1599,-1.1592,-1.1579,-1.1579,-1.1579,-1.1579,-1.1592,-1.0266,-0.8218,-0.6418,-0.4458,-0.2417,-0.0606,0.0,0.0,0.0,0.0,0.0,0.0,0.0,0.0,0.0,0.0,0.0,0.0,0.0,0.0,0.0,0.0,0.0,0.0,0.0,0.0,0.0,0.0,0.0,0.0,0.0,0.0,0.0,0.0,0.0,0.0,0.0,0.0,0.0,0.0135,0.1009,0.2819,0.2954,0.3823,0.583,0.5696,0.6431,0.823,0.823,0.9039,1.0717,1.0717,1.0717,1.0717,1.0717,1.0717,-1.5594,-1.6008,-1.6307,-1.6307,-1.5723,-1.4977,-1.4312,0.0,-1.2861,-1.2271,-1.2088,-1.2033,-1.1789,0.0,0.0,0.0,0.0,0.0,0.0,0.0,0.0,0.0,0.0,0.0,0.0,0.0,-1.4299,-1.4299,-1.4156,-1.4034,-1.3939,-1.3851,-1.3709,-1.3498,-1.3403,-1.318,-1.2827,-1.282,-1.2712,-1.2501,-1.2413,-1.2386,-1.2406,-1.2074,-1.1938,-1.1959,-1.1721,-1.1619,0.0,-1.1619,-1.1619,-1.1619,-1.1619,-1.1674,-1.1735,-1.1653,-1.1051,-0.9946,-0.8045,-0.6035,-0.4024,-0.2216,-0.0874,0.0,0.0,0.0,0.0,0.0,0.0,0.0,0.0,0.0,0.0,0.0,0.0,0.0,0.0,0.0,0.0,0.0,0.0,0.0,0.0,0.0,0.0,0.0,0.0,0.0,0.0,0.0,0.0,0.0,0.0,0.0,0.0,0.0,0.074,0.2618,0.168,0.235,0.5295,0.4359,0.5091,0.7964,0.803,0.89,1.0717,1.0717,1.0717,1.0717,1.0717,1.0717,-1.5289,-1.5798,-1.6185,-1.6232,-1.5601,-1.4814,0.0,0.0,-1.28,-1.2244,-1.2216,-1.2196,-1.1884,0.0,0.0,0.0,0.0,0.0,0.0,0.0,0.0,0.0,0.0,-1.3743,0.0,-1.4197,-1.4278,-1.4238,-1.4089,-1.3939,-1.3783,-1.3559,-1.3403,-1.3336,-1.3186,-1.299,-1.2732,-1.2732,-1.2651,-1.2501,-1.24,-1.2386,-1.2427,-1.2067,-1.1932,-1.1979,-1.1728,0.0,0.0,-1.1619,-1.1619,-1.1619,-1.1619,-1.1681,-1.1755,-1.1653,-1.1525,-1.1157,-0.9185,-0.715,-0.5121,-0.3291,-0.1478,0.0,0.0,0.0,0.0,0.0,0.0,0.0,0.0,0.0,0.0,0.0,0.0,0.0,0.0,0.0,0.0,0.0,0.0,0.0,0.0,0.0,0.0,0.0,0.0,0.0,0.0,0.0,0.0,0.0,0.0,0.0,0.0,0.0,0.0538,0.1814,0.0672,0.1143,0.3689,0.2551,0.3555,0.7165,0.7231,0.8368,1.0717,1.0717,1.0717,1.0717,1.0717,1.0717,-1.4855,-1.5411,-1.5893,-1.6049,-1.552,-1.4814,0.0,0.0,-1.2834,-1.2379,-1.2291,-1.2196,-1.1884,0.0,0.0,0.0,0.0,0.0,0.0,0.0,0.0,0.0,0.0,-1.3241,-1.3397,-1.3946,-1.4238,-1.4089,-1.3933,0.0,-1.3641,-1.3207,-1.303,-1.3173,-1.3037,-1.2888,-1.2732,-1.2732,-1.2651,-1.2501,-1.2501,-1.2427,-1.2284,-1.2128,-1.1979,-1.1823,0.0,0.0,0.0,-1.1619,-1.1619,-1.1619,-1.1619,-1.1619,-1.1619,-1.1619,-1.1525,-1.1157,-0.9185,-0.7259,-0.5253,-0.3302,-0.1478,0.0,0.0,0.0,0.0,0.0,0.0,0.0,0.0,0.0,0.0,0.0,0.0,0.0,0.0,0.0,0.0,0.0,0.0,0.0,0.0,0.0,0.0,0.0,0.0,0.0,0.0,0.0,0.0,0.0,0.0,0.0,0.0,0.0,0.0,0.0,0.0,0.0,0.0067,0.0067,0.1747,0.5362,0.5429,0.7169,1.0717,1.0717,1.0717,1.0717,1.0717,1.0717,-1.4231,-1.457,-1.4828,-1.497,-1.4448,-1.3844,-1.3654,0.0,-1.2603,-1.2467,-1.2433,-1.2345,-1.2047,0.0,0.0,0.0,0.0,0.0,0.0,0.0,0.0,0.0,0.0,0.0,0.0,0.0,-1.4238,-1.4082,-1.3926,-1.3736,-1.3485,-1.3146,-1.2983,-1.3024,-1.2779,-1.2623,-1.2576,-1.2481,-1.2406,-1.2359,-1.2359,-1.2277,-1.2135,-1.2088,-1.1979,0.0,0.0,0.0,0.0,-1.1504,-1.1525,-1.1619,-1.1619,-1.1681,-1.1748,-1.1653,-1.1525,-1.1298,-1.0588,-0.8176,-0.5393,-0.4766,-0.2484,0.0,0.0,0.0,0.0,0.0,0.0,0.0,0.0,0.0,0.0,0.0,0.0,0.0,0.0,0.0,0.0,0.0,0.0,0.0,0.0,0.0,0.0,0.0,0.0,0.0,0.0,0.0,0.0,0.0,0.0,0.0,0.0,0.0,0.0,0.0,0.0,0.0,0.0,0.0,0.1148,0.3539,0.4784,0.6531,0.8828,0.8879,0.8834,0.89,1.0114,1.0717,0.0,-1.3966,-1.4163,-1.4306,-1.3871,-1.3383,0.0,0.0,0.0,0.0,-1.242,-1.2332,0.0,0.0,0.0,0.0,0.0,0.0,0.0,0.0,0.0,-1.303,0.0,0.0,0.0,-1.4116,-1.4102,-1.3838,-1.3729,-1.3546,-1.3254,-1.3003,-1.2874,-1.2874,-1.263,-1.2474,-1.242,-1.2332,-1.2257,-1.2203,-1.2203,-1.2121,-1.1972,-1.1972,-1.1891,0.0,0.0,0.0,0.0,-1.1572,-1.1613,-1.1701,-1.1701,-1.1755,-1.1816,-1.1674,-1.1525,-1.1369,-1.1212,-0.866,-0.5467,-0.5439,-0.2954,0.0,0.0,0.0,0.0,0.0,0.0,0.0,0.0,0.0,0.0,0.0,0.0,0.0,0.0,0.0,0.0,0.0,0.0,0.0,0.0,0.0,0.0,0.0,0.0,0.0,0.0,0.0,0.0,0.0,0.0,0.0,0.0,0.0,0.0,0.0,0.0,0.0,0.0,0.0,0.0819,0.2693,0.3835,0.5253,0.7042,0.7684,0.803,0.803,0.9842,1.0717,0.0,-1.3519,-1.377,-1.3919,-1.3648,-1.3302,-1.3159,0.0,0.0,0.0,0.0,0.0,0.0,0.0,0.0,0.0,0.0,0.0,0.0,-1.204,0.0,0.0,-1.3275,0.0,-1.3437,-1.3817,-1.3892,-1.3451,-1.341,0.0,-1.2963,-1.2807,-1.2725,-1.2712,-1.2576,-1.2433,-1.2291,-1.2277,-1.2196,-1.2047,-1.2047,-1.1965,-1.1816,-1.1816,-1.1742,0.0,0.0,0.0,0.0,-1.1762,-1.1816,-1.1816,-1.183,-1.1823,-1.1796,-1.1653,-1.1504,-1.1355,-1.1199,-0.8697,-0.5519,-0.5117,-0.2752,0.0,0.0,0.0,0.0,0.0,0.0,0.0,0.0,0.0,0.0,0.0,0.0,0.0,0.0,0.0,0.0,0.0,0.0,0.0,0.0,0.0,0.0,0.0,0.0,0.0,0.0,0.0,0.0,0.0,0.0,0.0,0.0,0.0,0.0,0.0,0.0,0.0,0.0,0.0,0.0761,0.2451,0.2663,0.3545,0.5201,0.7085,0.7907,0.7831,0.9775,1.0717,-1.2501,0.0,-1.2691,-1.2834,-1.2793,-1.2705,0.0,0.0,0.0,0.0,0.0,0.0,0.0,0.0,0.0,0.0,0.0,0.0,-1.1769,0.0,0.0,-1.3417,-1.3838,-1.3994,-1.3763,-1.3939,-1.3933,0.0,0.0,-1.322,-1.2807,-1.2752,-1.2678,-1.2562,-1.2522,-1.2433,-1.2291,-1.2176,-1.204,-1.1884,-1.1884,-1.1809,-1.1667,-1.1667,-1.1653,0.0,0.0,0.0,-1.1619,-1.1653,-1.1667,-1.1681,-1.1789,-1.1762,-1.1653,-1.1497,-1.1348,-1.1199,-1.105,-0.8579,-0.4983,-0.2151,-0.0672,0.0,0.0,0.0,0.0,0.0,0.0,0.0,0.0,0.0,0.0,0.0,0.0,0.0,0.0,0.0,0.0,0.0,0.0,0.0,0.0,0.0,0.0,0.0,0.0,0.0,0.0,0.0,0.0,0.0,0.0,0.0,0.0,0.0,0.0,0.0,0.0,0.0,0.0,0.0,0.0208,0.064,0.1991,0.2878,0.3358,0.6473,0.7305,0.6097,0.9244,1.0717,-1.2203,-1.2284,-1.2393,-1.24,-1.2454,-1.2501,-1.2501,0.0,0.0,0.0,0.0,0.0,0.0,0.0,0.0,0.0,-1.1613,0.0,0.0,0.0,-1.2996,-1.3648,-1.3939,-1.4027,0.0,0.0,-1.3715,0.0,0.0,-1.2956,-1.2644,-1.2562,-1.2522,-1.2501,-1.244,-1.2332,-1.2189,-1.2101,-1.1952,-1.1735,-1.1735,-1.1653,-1.1518,-1.1586,-1.1579,0.0,0.0,0.0,-1.1633,-1.1843,-1.1843,-1.1728,-1.1877,-1.1809,-1.1599,-1.145,-1.1253,-1.1056,-1.0907,-0.8474,-0.4827,-0.121,0.0,0.0,0.0,0.0,0.0,0.0,0.0,0.0,0.0,0.0,0.0,0.0,0.0,0.0,0.0,0.0,0.0,0.0,0.0,0.0,0.0,0.0,0.0,0.0,0.0,0.0,0.0,0.0,0.0,0.0,0.0,0.0,0.0,0.0,0.0,0.0,0.0,0.0,0.0,0.0,0.0,0.0,0.0932,0.1839,0.27,0.4598,0.5501,0.5499,0.8293,0.9564,-1.2135,-1.2332,-1.2528,-1.2338,-1.2393,-1.2501,-1.2501,0.0,0.0,0.0,0.0,0.0,0.0,-1.1497,0.0,0.0,0.0,0.0,-1.2501,-1.2623,-1.2929,-1.3715,-1.3844,0.0,-1.381,-1.3682,0.0,0.0,0.0,-1.263,-1.2474,-1.2332,-1.2318,-1.2467,-1.2332,-1.2196,-1.206,-1.2135,-1.1911,-1.1619,-1.1619,-1.1552,-1.143,-1.1538,-1.1525,-1.1436,0.0,0.0,-1.1681,-1.206,-1.2067,-1.1843,-1.1952,-1.183,-1.1565,-1.1389,-1.1165,-1.0873,-1.0576,-0.8252,-0.4827,-0.1478,-0.0404,-0.0336,-0.0067,-0.0202,-0.0336,-0.0067,0.0,0.0,0.0,0.0,0.0,0.0,0.0,0.0,0.0,0.0,0.0,0.0,0.0,0.0,0.0,0.0,0.0,0.0,0.0,0.0,0.0,0.0,0.0,0.0,0.0,0.0,0.0,0.0,0.0,0.0,0.0,0.0,0.0,0.0,0.0142,0.0437,0.0433,0.1351,0.3147,0.3111,0.3952,0.5432,0.7116,0.7786,-1.2291,-1.2569,-1.2793,-1.2393,-1.2393,-1.2501,-1.2501,0.0,0.0,0.0,0.0,0.0,0.0,-1.1511,-1.1552,0.0,0.0,-1.2216,0.0,0.0,-1.3363,-1.3627,0.0,0.0,0.0,0.0,0.0,0.0,0.0,-1.2474,-1.2332,-1.2182,-1.2169,-1.2318,-1.2176,-1.2088,-1.2135,-1.2135,-1.1911,-1.1619,-1.1619,-1.1606,-1.1579,-1.147,-1.1484,-1.1579,0.0,-1.1586,-1.1803,-1.187,-1.187,-1.1823,-1.1728,-1.1579,-1.1396,-1.1118,-1.0921,-1.0657,-0.9035,-0.7111,-0.5028,-0.2954,-0.2283,-0.2016,-0.0471,-0.1076,-0.1947,-0.0404,0.0,0.0,0.0,0.0,0.0,0.0,0.0,0.0,0.0,0.0,0.0,0.0,0.0,0.0,0.0,0.0,0.0,0.0,0.0,0.0,0.0,0.0,0.0,0.0,0.0,0.0,0.0,0.0,0.0,0.0,0.0,0.0,0.0,0.0,0.0789,0.24,0.2468,0.3365,0.5166,0.5153,0.5221,0.5429,0.5711,0.5841,-1.2332,-1.2494,-1.2644,-1.2359,-1.2461,-1.2562,-1.2318,0.0,0.0,0.0,0.0,0.0,0.0,0.0,-1.1789,-1.1965,0.0,-1.2698,-1.3112,-1.3166,-1.3281,0.0,0.0,0.0,0.0,0.0,0.0,0.0,0.0,0.0,-1.2176,-1.202,-1.2047,-1.2284,-1.206,-1.1979,-1.2135,-1.1904,-1.1714,-1.1497,-1.1497,-1.145,-1.1375,-1.1389,-1.143,-1.1504,0.0,-1.166,-1.1728,-1.1891,-1.1864,-1.1708,-1.1647,-1.1477,-1.1233,-1.0934,-1.0759,-1.0545,-0.8656,-0.7498,-0.6498,-0.476,-0.4158,-0.3823,-0.2016,-0.2016,-0.235,-0.0538,0.0,0.0,0.0,0.0,0.0,0.0,0.0,0.0,0.0,0.0,0.0,0.0,0.0,0.0,0.0,0.0,0.0,0.0,0.0,0.0,0.0,0.0,0.0,0.0,0.0,0.0,0.0,0.0,0.0,0.0,0.0,0.0,0.0,0.0,0.0935,0.2834,0.2909,0.3814,0.5571,0.4586,0.4053,0.391,0.4047,0.3979,-1.2372,-1.2474,-1.2556,-1.2345,-1.2488,-1.2596,-1.2291,-1.2216,-1.2182,0.0,0.0,0.0,0.0,-1.1681,0.0,-1.2427,-1.2786,-1.3071,-1.3254,-1.3214,-1.3295,-1.3641,-1.3512,-1.3403,0.0,0.0,0.0,0.0,0.0,0.0,-1.2013,-1.1864,-1.1904,-1.2176,-1.1918,-1.1857,-1.2006,-1.1714,-1.1504,-1.1389,-1.1355,-1.1294,-1.1219,-1.1341,-1.1409,-1.1457,-1.1681,-1.1742,-1.1687,-1.1877,-1.1843,-1.166,-1.1552,-1.1328,-1.1029,-1.0806,-1.0717,-1.0518,-0.9105,-0.8363,-0.7764,-0.6431,-0.603,-0.5563,-0.3354,-0.3021,-0.2887,-0.0605,0.0,0.0,0.0,0.0,0.0,0.0,0.0,0.0,0.0,0.0,0.0,0.0,0.0,0.0,0.0,0.0,0.0,0.0,0.0,0.0,0.0,0.0,0.0,0.0,0.0,0.0,0.0,0.0,0.0,0.0,0.0,0.0,0.0,0.0429,0.1366,0.2834,0.3342,0.4258,0.5625,0.3776,0.2834,0.2658,0.238,0.217,-1.2488,-1.2705,-1.2827,-1.24,-1.2406,-1.2549,-1.2657,-1.2684,-1.2678,-1.2671,-1.2556,0.0,0.0,-1.1816,-1.1979,-1.2427,-1.2868,-1.3261,-1.3553,0.0,-1.379,-1.3824,-1.3573,-1.3403,0.0,0.0,0.0,0.0,0.0,0.0,-1.1857,-1.1714,-1.1708,-1.1857,-1.1714,-1.1701,-1.1843,-1.1552,-1.1402,-1.1389,-1.1246,-1.1246,-1.1375,-1.1389,-1.147,-1.1606,-1.1626,-1.1701,-1.1809,-1.1694,-1.1714,-1.1775,-1.1355,-1.1016,-1.0751,-1.0724,-1.0717,-1.0651,-1.0518,-0.9377,-0.7964,-0.7831,-0.7831,-0.716,-0.3756,-0.389,-0.4492,-0.1009,0.0,0.0,0.0,0.0,0.0,0.0,0.0,0.0,0.0,0.0,0.0,0.0,0.0,0.0,0.0,0.0,0.0,0.0,0.0,0.0,0.0,0.0,0.0,0.0,0.0,0.0,0.0,0.0,0.0,0.0,0.0,0.0,0.0,0.1713,0.2726,0.2907,0.4649,0.5627,0.5625,0.3776,0.2834,0.2658,0.0981,0.021,-1.2501,-1.2589,-1.2637,-1.2467,-1.2393,-1.2406,-1.2556,-1.2589,-1.2589,-1.2589,-1.2617,-1.2535,0.0,0.0,-1.2264,-1.2712,-1.3166,-1.3526,-1.3729,-1.3648,-1.3566,-1.3566,-1.3308,0.0,0.0,0.0,0.0,0.0,0.0,0.0,-1.1565,-1.1504,-1.1586,-1.1823,-1.1694,-1.1647,-1.1701,-1.1402,-1.1206,-1.1118,-1.1056,-1.1104,-1.1246,-1.1246,-1.1382,-1.1619,-1.1619,-1.1647,-1.1694,-1.164,-1.1653,-1.166,-1.1301,-1.0982,-1.0717,-1.0717,-1.0717,-1.0717,-1.0717,-1.0246,-0.9709,-0.9709,-0.9709,-0.9039,-0.5429,-0.4827,-0.4626,-0.1009,0.0,0.0,0.0,0.0,0.0,0.0,0.0,0.0,0.0,0.0,0.0,0.0,0.0,0.0,0.0,0.0,0.0,0.0,0.0,0.0,0.0,0.0,0.0,0.0,0.0,0.0,0.0,0.0,0.0,0.0,0.0,0.0,0.0,0.0732,0.168,0.2909,0.3633,0.3986,0.3893,0.3247,0.2233,0.1005,0.0285,0.0,-1.2366,-1.2366,-1.2338,-1.2244,0.0,0.0,-1.2528,-1.261,-1.2684,-1.2827,-1.2793,-1.2637,-1.2345,0.0,0.0,0.0,-1.3166,-1.3505,-1.3553,-1.3431,-1.3315,-1.3268,0.0,0.0,0.0,0.0,0.0,0.0,0.0,0.0,0.0,-1.1389,-1.1504,-1.1755,-1.1626,-1.1545,-1.1545,-1.1246,-1.1043,-1.088,-1.0833,-1.0975,-1.1234,-1.1234,-1.1328,-1.1619,-1.1619,-1.1619,-1.1619,-1.1619,-1.1565,-1.145,-1.1192,-1.0941,-1.0717,-1.0717,-1.0717,-1.0717,-1.0717,-1.0717,-1.0717,-1.0717,-1.0717,-1.0047,-0.6498,-0.5429,-0.4626,-0.1009,0.0,0.0,0.0,0.0,0.0,0.0,0.0,0.0,0.0,0.0,0.0,0.0,0.0,0.0,0.0,0.0,0.0,0.0,0.0,0.0,0.0,0.0,0.0,0.0,0.0,0.0,0.0,0.0,0.0,0.0,0.0,0.0,0.0,0.0596,0.1257,0.1977,0.2624,0.2618,0.1965,0.1965,0.1311,0.0,0.0,0.0,-1.2067,-1.2067,-1.1993,-1.1701,0.0,0.0,-1.2664,-1.2847,-1.3085,-1.3532,-1.3146,-1.2637,-1.2345,-1.2291,0.0,-1.2291,-1.2779,-1.3119,-1.3056,0.0,0.0,0.0,0.0,0.0,0.0,0.0,0.0,0.0,0.0,0.0,0.0,-1.1389,-1.1457,-1.1613,-1.147,-1.1389,-1.1389,-1.1097,-1.088,-1.088,-1.0792,-1.0873,-1.1234,-1.1234,-1.1328,-1.1619,-1.1619,-1.1619,-1.1619,-1.1613,-1.1436,-1.1145,-1.1002,-1.0786,-1.0717,-1.0717,-1.0717,-1.0717,-1.0717,-1.0717,-1.0717,-1.0717,-1.0717,-1.0047,-0.6498,-0.5429,-0.4626,-0.1009,0.0,0.0,0.0,0.0,0.0,0.0,0.0,0.0,0.0,0.0,0.0,0.0,0.0,0.0,0.0,0.0,0.0,0.0,0.0,0.0,0.0,0.0,0.0,0.0,0.0,0.0,0.0,0.0,0.0,0.0,0.0,0.0,0.0,0.1867,0.2004,0.0074,0.1905,0.1892,0.0,0.0,0.0,0.0,0.0,0.0,-1.2372,-1.2298,0.0,-1.2237,0.0,0.0,0.0,-1.284,0.0,0.0,-1.3071,-1.2671,-1.2474,-1.2359,0.0,-1.2291,-1.2522,-1.2725,-1.2786,0.0,0.0,0.0,0.0,0.0,0.0,0.0,0.0,0.0,0.0,0.0,0.0,-1.1233,-1.1348,-1.1613,-1.147,-1.1341,-1.1233,-1.1043,-1.0826,-1.0785,-1.0744,-1.0873,-1.1234,-1.1234,-1.1328,-1.1619,-1.1619,-1.1558,-1.145,-1.1341,-1.1185,-1.1009,-1.0894,-1.0786,-1.0717,-1.0717,-1.0717,-1.0717,-1.0717,-1.0717,-1.0717,-1.0717,-1.0717,-1.0047,-0.6498,-0.5429,-0.4626,-0.1009,0.0,0.0,0.0,0.0,0.0,0.0,0.0,0.0,0.0,0.0,0.0,0.0,0.0,0.0,0.0,0.0,0.0,0.0,0.0,0.0,0.0,0.0,0.0,0.0,0.0,0.0,0.0,0.0,0.0,0.0,0.0,0.0,0.0,0.0535,0.0605,0.0,0.0592,0.0591,0.0,0.0,0.0,0.0,0.0,0.0,-1.2182,-1.2088,0.0,-1.2128,-1.2223,-1.2393,-1.2779,0.0,0.0,0.0,-1.3173,-1.2773,-1.2623,-1.2379,0.0,-1.2196,-1.2271,-1.2359,-1.2454,0.0,0.0,0.0,0.0,0.0,0.0,0.0,0.0,0.0,0.0,0.0,0.0,-1.1111,-1.1219,-1.1518,-1.1328,-1.1172,-1.1077,-1.0934,-1.0812,-1.0717,-1.0717,-1.0846,-1.1077,-1.1077,-1.124,-1.1531,-1.1531,-1.1477,-1.1375,-1.1165,-1.1029,-1.0873,-1.0813,-1.0799,-1.0717,-1.0717,-1.0717,-1.0717,-1.0717,-1.0717,-1.0717,-1.0717,-1.0717,-1.0047,-0.6498,-0.5429,-0.4626,-0.1009,0.0,0.0,0.0,0.0,0.0,0.0,0.0,0.0,0.0,0.0,0.0,0.0,0.0,0.0,0.0,0.0,0.0,0.0,0.0,0.0,0.0,0.0,0.0,0.0,0.0,0.0,0.0,0.0,0.0,0.0,0.0,0.0,0.0,0.0,0.0,0.0,0.0,0.0,0.0,0.0,0.0,0.0,0.0,0.0,-1.1769,0.0,0.0,-1.1708,-1.204,0.0,-1.2705,-1.3186,-1.3607,-1.3736,0.0,-1.2929,-1.2745,-1.2366,-1.2081,-1.206,-1.2047,-1.204,-1.204,0.0,0.0,0.0,0.0,0.0,0.0,0.0,0.0,0.0,0.0,0.0,0.0,-1.1029,-1.1015,-1.1382,-1.109,-1.086,-1.086,-1.0778,-1.0697,-1.0697,-1.0711,-1.0792,-1.086,-1.0873,-1.1104,-1.1369,-1.1355,-1.1348,-1.1328,-1.1043,-1.086,-1.0847,-1.0772,-1.0717,-1.0717,-1.0717,-1.0717,-1.0717,-1.0717,-1.0717,-1.0717,-1.0717,-1.0717,-1.0047,-0.6631,-0.5496,-0.4693,-0.121,-0.0135,0.0,0.0,0.0,0.0,0.0,0.0,0.0,0.0,0.0,0.0,0.0,0.0,0.0,0.0,0.0,0.0,0.0,0.0,0.0,0.0,0.0,0.0,0.0,0.0,0.0,0.0,0.0,0.0,0.0,0.0,0.0,0.0,0.0,0.0,0.0,0.0,0.0,0.0,0.0,0.0,0.0,0.0,0.0,0.0,-1.2142,0.0,0.0,-1.2657,-1.2861,-1.3037,-1.3091,-1.3112,-1.3146,-1.3139,-1.301,-1.2623,-1.2379,-1.2203,-1.2155,-1.1959,-1.1877,-1.1877,0.0,0.0,0.0,0.0,0.0,0.0,0.0,0.0,0.0,0.0,0.0,-1.1151,-1.1029,-1.1015,-1.1382,-1.0989,-1.0772,-1.0772,-1.0616,-1.0541,0.0,-1.0663,-1.0738,-1.0772,-1.0826,-1.1043,-1.1206,-1.109,-1.1043,-1.0961,-1.0846,-1.0772,-1.0765,-1.0731,-1.0717,-1.0717,-1.0717,-1.0717,-1.0717,-1.0717,-1.0717,-1.0717,-1.0717,-1.0717,-1.0313,-0.8102,-0.6498,-0.4961,-0.2752,-0.1076,0.0,0.0,0.0,0.0,0.0,0.0,0.0,0.0,0.0,0.0,0.0,0.0,0.0,0.0,0.0,0.0,0.0,0.0,0.0,0.0,0.0,0.0,0.0,0.0,0.0,0.0,0.0,0.0,0.0,0.0,0.0,0.0,0.0,0.0,0.0,0.0,0.0,0.0,0.0,0.0,0.0,0.0,0.0,0.0,0.0,0.0,0.0,0.0,0.0,-1.3057,-1.3017,-1.2922,-1.2773,-1.28,-1.2779,-1.2542,-1.2264,-1.202,-1.1877,-1.1721,-1.1592,0.0,0.0,0.0,0.0,0.0,0.0,0.0,0.0,0.0,0.0,0.0,-1.0819,-1.105,-1.0921,-1.0907,-1.1063,-1.0772,-1.0575,-1.0514,-1.0432,-1.0426,-1.0493,-1.0575,-1.0649,-1.0724,-1.0948,-1.1056,-1.1056,-1.1056,-1.1016,-1.0867,-1.0785,-1.0717,-1.0717,-1.0717,-1.0717,-1.0717,-1.0717,-1.0717,-1.0717,-1.0717,-1.0717,-1.0717,-1.0717,-1.0717,-1.0386,-0.8568,-0.7365,-0.6093,-0.3421,-0.2016,-0.1076,-0.0202,0.0,0.0,0.0,0.0,0.0,0.0,0.0,0.0,0.0,0.0,0.0,0.0,0.0,0.0,0.0,0.0,0.0,0.0,0.0,0.0,0.0,0.0,0.0,0.0,0.0,0.0,0.0,0.0,0.0,0.0,0.0,0.0,0.0,0.0,0.0,0.0,0.0,0.0,0.0,0.0,0.0,0.0,0.0,0.0,0.0,0.0,0.0,0.0,0.0,-1.2732,-1.2481,-1.2467,-1.2467,-1.2366,-1.2047,0.0,0.0,0.0,0.0,0.0,0.0,0.0,0.0,0.0,0.0,0.0,0.0,0.0,0.0,0.0,-1.0785,-1.0873,-1.0806,-1.0717,-1.0717,-1.0548,-1.0385,-1.0243,-1.0263,-1.0337,-1.046,-1.0507,-1.0595,-1.0731,-1.1029,-1.107,-1.0847,-1.1063,-1.1043,-1.0833,-1.0772,-1.0717,-1.0717,-1.0717,-1.0717,-1.0717,-1.0717,-1.0717,-1.0717,-1.0717,-1.0717,-1.0717,-1.0717,-1.0717,-1.0452,-0.89,-0.823,-0.7298,-0.4091,-0.2954,-0.2283,-0.0471,0.0,0.0,0.0,0.0,0.0,0.0,0.0,0.0,0.0,0.0,0.0,0.0,0.0,0.0,0.0,0.0,0.0,0.0,0.0,0.0,0.0,0.0,0.0,0.0,0.0,0.0,0.0,0.0,0.0,0.0,0.0,0.0,0.0,0.0,0.0,0.0,0.0,0.0,0.0,0.0,0.0,0.0,0.0,0.0,0.0,0.0,0.0,0.0,0.0,0.0,0.0,0.0,0.0,0.0,0.0,0.0,0.0,0.0,0.0,0.0,0.0,0.0,0.0,0.0,0.0,0.0,0.0,0.0,0.0,-1.0717,-1.0785,-1.0873,-1.0806,-1.0717,-1.0717,-1.0453,-1.0236,-1.0017,-1.0215,-1.029,-1.031,-1.0568,-1.0704,-1.0731,-1.1029,-1.1009,-1.0758,-1.0914,-1.0894,-1.0751,-1.0731,-1.0717,-1.0717,-1.0717,-1.0717,-1.0717,-1.0717,-1.0717,-1.0717,-1.0717,-1.0717,-1.0717,-1.0717,-1.0717,-1.0651,-1.0386,-0.9238,-0.7564,-0.5629,-0.389,-0.2283,-0.0471,0.0,0.0,0.0,0.0,0.0,0.0,0.0,0.0,0.0,0.0,0.0,0.0,0.0,0.0,0.0,0.0,0.0,0.0,0.0,0.0,0.0,0.0,0.0,0.0,0.0,0.0,0.0,0.0,0.0,0.0,0.0,0.0,0.0,0.0,0.0,0.0,0.0,0.0,0.0,0.0,0.0,0.0,0.0,0.0,0.0,0.0,0.0,0.0,0.0,0.0,0.0,0.0,0.0,0.0,0.0,0.0,0.0,0.0,0.0,0.0,0.0,0.0,0.0,0.0,0.0,0.0,0.0,0.0,0.0,-1.0717,-1.0751,-1.0752,-1.0758,-1.0643,-1.048,-1.0344,-1.0168,-0.9862,-1.0073,-1.0236,-1.0399,-1.0616,-1.0717,-1.0724,-1.0941,-1.0928,-1.0731,-1.0968,-1.0934,-1.0717,-1.0717,-1.0717,-1.0717,-1.0717,-1.0717,-1.0717,-1.0717,-1.0717,-1.0717,-1.0717,-1.0717,-1.0717,-1.0717,-1.0717,-1.0717,-1.0717,-0.9437,-0.7631,-0.5897,-0.4091,-0.2283,-0.0471,0.0,0.0,0.0,0.0,0.0,0.0,0.0,0.0,0.0,0.0,0.0,0.0,0.0,0.0,0.0,0.0,0.0,0.0,0.0,0.0,0.0,0.0,0.0,0.0,0.0,0.0,0.0,0.0,0.0,0.0,0.0,0.0,0.0,0.0,0.0,0.0,0.0,0.0,0.0,0.0,0.0,0.0,0.0,0.0,0.0,0.0,0.0,0.0,0.0,0.0,0.0,0.0,0.0,0.0,0.0,0.0,0.0,0.0,0.0,0.0,0.0,0.0,0.0,0.0,0.0,0.0,0.0,0.0,0.0,-1.0717,-1.0717,-1.0717,-1.0683,-1.0541,-1.029,-1.0243,-1.0093,-0.9822,-1.0012,-1.0256,-1.0555,-1.0663,-1.0717,-1.0724,-1.0813,-1.0799,-1.0738,-1.0995,-1.0962,-1.0717,-1.0677,-1.0683,-1.0717,-1.0677,-1.0683,-1.0717,-1.0717,-1.0717,-1.0717,-1.0717,-1.0717,-1.0717,-1.0717,-1.0717,-1.0717,-1.0717,-0.9775,-0.8235,-0.603,-0.4426,-0.2887,-0.0606,0.0,0.0,0.0,0.0,0.0,0.0,0.0,0.0,0.0,0.0,0.0,0.0,0.0,0.0,0.0,0.0,0.0,0.0,0.0,0.0,0.0,0.0,0.0,0.0,0.0,0.0,0.0,0.0,0.0,0.0,0.0,0.0,0.0,0.0,0.0,0.0,0.0,0.0,0.0,0.0,0.0,0.0,0.0,0.0,0.0,0.0,0.0,0.0,0.0,0.0,0.0,0.0,0.0,0.0,0.0,0.0,0.0,0.0,0.0,0.0,0.0,0.0,0.0,0.0,0.0,0.0,0.0,0.0,0.0,-1.0717,-1.0717,-1.0717,-1.0582,-1.0432,-1.0283,-1.0141,-0.9923,-0.9822,-1.012,-1.0419,-1.0711,-1.0717,-1.0717,-1.0724,-1.0813,-1.0799,-1.0731,-1.0826,-1.0799,-1.0711,-1.0561,-1.0588,-1.0704,-1.0561,-1.0595,-1.0717,-1.0717,-1.0717,-1.0717,-1.0717,-1.0717,-1.0717,-1.0717,-1.0717,-1.0717,-1.0717,-1.0651,-0.9848,-0.6364,-0.5362,-0.4426,-0.0941,0.0,0.0,0.0,0.0,0.0,0.0,0.0,0.0,0.0,0.0,0.0,0.0,0.0,0.0,0.0,0.0,0.0,0.0,0.0,0.0,0.0,0.0,0.0,0.0,0.0,0.0,0.0,0.0,0.0,0.0,0.0,0.0,0.0,0.0,0.0,0.0,0.0,0.0,0.0,0.0,0.0,0.0,0.0,0.0,0.0,0.0,0.0,0.0,0.0,0.0,0.0,0.0,0.0,0.0,0.0,0.0,0.0,0.0,0.0,0.0,0.0,0.0,0.0,0.0,0.0,0.0,0.0,0.0,0.0,0.0,-1.1894,-1.0784,-1.1709,-1.1682,-1.0354,-1.0229,-1.0168,-1.0114,-1.0229,-1.0426,-1.0717,-1.0717,-1.0717,-1.0724,-1.0778,-1.0772,-1.0724,-1.0778,-1.0772,-1.0717,-1.0663,-1.067,-1.0717,-1.0663,-1.067,-1.0717,-1.0717,-1.0717,-1.0717,-1.0717,-1.0717,-1.0717,-1.0717,-1.0717,-1.0717,-1.0717,-0.9908,-0.8435,-0.6097,-0.4559,-0.3088,-0.0605,0.0,0.0,0.0,0.0,0.0,0.0,0.0,0.0,0.0,0.0,0.0,0.0,0.0,0.0,0.0,0.0,0.0,0.0,0.0,0.0,0.0,0.0,0.0,0.0,0.0,0.0,0.0,0.0,0.0,0.0,0.0,0.0,0.0,0.0,0.0,0.0,0.0,0.0,0.0,0.0,0.0,-1.1619,0.0,0.0,0.0,0.0,0.0,0.0,0.0,0.0,0.0,0.0,0.0,0.0,0.0,0.0,0.0,0.0,0.0,0.0,0.0,0.0,0.0,0.0,0.0,0.0,0.0,0.0,0.0,0.0,0.0,-1.0784,-1.2292,-1.2298,-1.0272,-1.0256,-1.0283,-1.0283,-1.0331,-1.0473,-1.0717,-1.0717,-1.0717,-1.0717,-1.0717,-1.0717,-1.0717,-1.0717,-1.0717,-1.0717,-1.0663,-1.0677,-1.0717,-1.0663,-1.0677,-1.0717,-1.0717,-1.0717,-1.0717,-1.0717,-1.0717,-1.0717,-1.0717,-1.0717,-1.0717,-1.0717,-0.9842,-0.8435,-0.603,-0.4559,-0.3021,-0.0605,0.0,0.0,0.0,0.0,0.0,0.0,0.0,0.0,0.0,0.0,0.0,0.0,0.0,0.0,0.0,0.0,0.0,0.0,0.0,0.0,0.0,0.0,0.0,0.0,0.0,0.0,0.0,0.0,0.0,0.0,0.0,0.0,0.0,0.0,0.0,0.0,0.0,0.0,0.0,0.0,0.0,0.0,0.0,0.0,0.0,0.0,0.0,0.0,0.0,0.0,0.0,0.0,0.0,0.0,0.0,0.0,0.0,0.0,0.0,0.0,0.0,0.0,0.0,0.0,0.0,0.0,0.0,0.0,0.0,-1.2281,-1.2545,-1.0784,-1.2183,-1.2123,-1.0066,-1.0202,-1.0283,-1.0283,-1.0419,-1.0568,-1.0717,-1.0717,-1.0717,-1.0717,-1.0717,-1.0717,-1.0717,-1.0717,-1.0717,-1.0711,-1.0561,-1.0588,-1.0704,-1.0555,-1.0588,-1.0717,-1.0717,-1.0717,-1.0717,-1.0717,-1.0717,-1.0717,-1.0717,-1.0717,-1.0717,-1.0717,-1.0717,-0.9981,-0.6431,-0.5496,-0.4626,-0.1009,-0.0067,0.0,0.0,0.0,0.0,0.0,0.0,0.0,0.0,0.0,0.0,0.0,0.0,0.0,0.0,0.0,0.0,0.0,0.0,0.0,0.0,0.0,0.0,0.0,0.0,0.0,0.0,0.0,0.0,0.0,0.0,0.0,0.0,0.0,0.0,0.0,0.0,0.0,0.0,0.0,0.0,-1.1484,0.0,0.0,0.0,0.0,0.0,-1.1626,-1.1647,0.0,0.0,0.0,0.0,0.0,0.0,0.0,0.0,0.0,0.0,0.0,0.0,0.0,0.0,0.0,0.0,0.0,0.0,0.0,0.0,-1.2281,-1.2545,-1.0784,-1.1025,-1.0913,-1.0222,-1.0256,-1.0283,-1.0283,-1.0419,-1.0568,-1.0717,-1.0717,-1.0717,-1.0717,-1.0717,-1.0717,-1.0717,-1.0717,-1.0717,-1.0717,-1.0677,-1.0683,-1.0717,-1.067,-1.0683,-1.0717,-1.0717,-1.0717,-1.0717,-1.0717,-1.0717,-1.0717,-1.0717,-1.0717,-1.0717,-1.0717,-1.0717,-1.0246,-0.7897,-0.7298,-0.6427,-0.2885,-0.0948,0.0,0.0,0.0,0.0,0.0,0.0,0.0,0.0,0.0,0.0,0.0,0.0,0.0,0.0,0.0,0.0,0.0,0.0,0.0,0.0,0.0,0.0,0.0,0.0,0.0,0.0,0.0,0.0,0.0,0.0,0.0,0.0,0.0,0.0,0.0,0.0,0.0,0.0,0.0,0.0,-1.1416,-1.1409,-1.1457,-1.1586,0.0,0.0,-1.1525,-1.1572,-1.1599,0.0,0.0,0.0,0.0,0.0,0.0,0.0,0.0,0.0,0.0,0.0,0.0,0.0,0.0,0.0,0.0,-1.3352,-1.1866,-1.0879,-1.232,-1.2865,-1.1828,-1.1023,-1.0521,-1.0371,-1.0432,-1.0432,-1.0371,-1.0514,-1.0629,-1.0717,-1.0717,-1.0717,-1.0717,-1.0717,-1.0717,-1.0717,-1.0717,-1.0717,-1.0717,-1.0717,-1.0717,-1.0717,-1.0717,-1.0717,-1.0717,-1.0717,-1.0717,-1.0717,-1.0717,-1.0717,-1.0717,-1.0717,-1.0717,-1.0717,-1.0717,-1.0717,-1.0313,-0.8501,-0.696,-0.5292,-0.322,-0.1352,0.0,0.0,0.0,0.0,0.0,0.0,0.0,0.0,0.0,0.0,0.0,0.0,0.0,0.0,0.0,0.0,0.0,0.0,0.0,0.0,0.0,0.0,0.0,0.0,0.0,0.0,0.0,0.0,0.0,0.0,0.0,0.0,0.0,0.0,0.0,0.0,0.0,0.0,0.0,0.0,-1.1389,-1.1294,-1.126,-1.1545,-1.1518,0.0,-1.1416,-1.1518,-1.1579,-1.1443,0.0,0.0,0.0,0.0,0.0,0.0,0.0,0.0,0.0,0.0,0.0,0.0,0.0,0.0,-1.3942,-1.2051,-1.09,-1.09,-1.2214,-1.3021,-1.2997,-1.1563,-1.0649,-1.0493,-1.0643,-1.0649,-1.0493,-1.0643,-1.0717,-1.0717,-1.0717,-1.0717,-1.0717,-1.0717,-1.0717,-1.0717,-1.0717,-1.0717,-1.0717,-1.0717,-1.0717,-1.0717,-1.0717,-1.0717,-1.0717,-1.0717,-1.0717,-1.0717,-1.0717,-1.0717,-1.0717,-1.0717,-1.0717,-1.0717,-1.0717,-1.0717,-1.0379,-0.8767,-0.5759,-0.3021,-0.3021,-0.148,0.0,0.0,0.0,0.0,0.0,0.0,0.0,0.0,0.0,0.0,0.0,0.0,0.0,0.0,0.0,0.0,0.0,0.0,0.0,0.0,0.0,0.0,0.0,0.0,0.0,0.0,0.0,0.0,0.0,0.0,0.0,0.0,0.0,0.0,0.0,0.0,0.0,0.0,0.0,0.0,-1.1355,-1.1369,-1.1389,-1.1572,-1.1599,0.0,-1.1572,-1.1599,-1.1613,0.0,0.0,0.0,0.0,0.0,0.0,0.0,0.0,0.0,0.0,0.0,0.0,0.0,0.0,0.0,-1.3806,-1.2224,-1.1124,-1.1124,-1.1254,-1.1308,-1.1181,-1.085,-1.0649,-1.0493,-1.0643,-1.0649,-1.0493,-1.0643,-1.0717,-1.0717,-1.0717,-1.0717,-1.0717,-1.0717,-1.0717,-1.0717,-1.0717,-1.0717,-1.0717,-1.0717,-1.0717,-1.0717,-1.0717,-1.0717,-1.0717,-1.0717,-1.0717,-1.0717,-1.0717,-1.0717,-1.0717,-1.0717,-1.0717,-1.0717,-1.0717,-1.0717,-1.0651,-1.0246,-0.7636,-0.4894,-0.4894,-0.2437,0.0,0.0,0.0,0.0,0.0,0.0,0.0,0.0,0.0,0.0,0.0,0.0,0.0,0.0,0.0,0.0,0.0,0.0,0.0,0.0,0.0,0.0,0.0,0.0,0.0,0.0,0.0,0.0,0.0,0.0,0.0,0.0,0.0,0.0,0.0,0.0,0.0,0.0,0.0,0.0,-1.1348,-1.1335,-1.1335,-1.1558,-1.1558,0.0,0.0,-1.1565,-1.1599,0.0,0.0,0.0,0.0,0.0,0.0,0.0,0.0,0.0,0.0,0.0,0.0,0.0,0.0,0.0,-1.2772,-1.1874,-1.1212,-1.1063,-1.0989,-1.0813,-1.0731,-1.0717,-1.0683,-1.0609,-1.0677,-1.0683,-1.0609,-1.0683,-1.0717,-1.0717,-1.0717,-1.0717,-1.0717,-1.0717,-1.0717,-1.0717,-1.0717,-1.0717,-1.0717,-1.0636,-1.0649,-1.0717,-1.0717,-1.0717,-1.0717,-1.0717,-1.0717,-1.0717,-1.0717,-1.0717,-1.0717,-1.0717,-1.0717,-1.0717,-1.0717,-1.0717,-1.0717,-1.0717,-0.8169,-0.5429,-0.5429,-0.2714,0.0,0.0,0.0,0.0,0.0,0.0,0.0,0.0,0.0,0.0,0.0,0.0,0.0,0.0,0.0,0.0,0.0,0.0,0.0,0.0,0.0,0.0,0.0,0.0,0.0,0.0,0.0,0.0,0.0,0.0,0.0,0.0,0.0,0.0,0.0,0.0,0.0,0.0,0.0,0.0,-1.1335,-1.126,-1.1199,-1.1538,-1.1504,-1.1396,0.0,0.0,0.0,0.0,0.0,0.0,0.0,0.0,0.0,0.0,0.0,0.0,0.0,0.0,0.0,0.0,0.0,0.0,0.0,-1.186,-1.1874,-1.1589,-1.1539,-1.1468,-1.134,-1.0951,-1.0731,-1.0765,-1.0738,-1.0717,-1.0717,-1.0717,-1.0717,-1.0717,-1.0717,-1.0717,-1.0717,-1.0717,-1.0717,-1.0717,-1.0717,-1.0717,-1.0711,-1.0588,-1.0609,-1.0717,-1.069,-1.0697,-1.0717,-1.0717,-1.0717,-1.0717,-1.0717,-1.0717,-1.0717,-1.0717,-1.0717,-1.0717,-1.0717,-1.0717,-1.0651,-1.0246,-0.7902,-0.5295,-0.4961,-0.2443,0.0,0.0,0.0,0.0,0.0,0.0,0.0,0.0,0.0,0.0,0.0,0.0,0.0,0.0,0.0,0.0,0.0,0.0,0.0,0.0,0.0,0.0,0.0,0.0,0.0,0.0,0.0,0.0,0.0,0.0,0.0,0.0,0.0,0.0,0.0,0.0,0.0,0.0,0.0,0.0,0.0,0.0,0.0,0.0,-1.1504,-1.1423,0.0,0.0,-1.1613,-1.1599,0.0,0.0,0.0,0.0,0.0,0.0,0.0,0.0,0.0,0.0,0.0,0.0,0.0,0.0,0.0,-1.308,-1.3961,-1.3825,-1.3736,-1.3644,-1.3619,-1.1792,-1.0778,-1.0853,-1.0792,-1.0717,-1.0717,-1.0717,-1.0717,-1.0717,-1.0717,-1.0717,-1.0717,-1.0717,-1.0717,-1.0717,-1.0717,-1.0717,-1.0717,-1.0704,-1.0704,-1.0704,-1.0568,-1.0602,-1.0717,-1.0717,-1.0717,-1.0717,-1.0717,-1.0717,-1.0717,-1.0717,-1.0717,-1.0717,-1.0717,-1.0717,-1.0379,-0.8767,-0.6898,-0.5028,-0.3423,-0.1494,0.0,0.0,0.0,0.0,0.0,0.0,0.0,0.0,0.0,0.0,0.0,0.0,0.0,0.0,0.0,0.0,0.0,0.0,0.0,0.0,0.0,0.0,0.0,0.0,0.0,0.0,0.0,0.0,0.0,0.0,0.0,0.0,0.0,0.0,0.0,0.0,0.0,0.0,0.0,0.0,0.0,0.0,0.0,0.0,0.0,0.0,-1.1586,0.0,-1.1619,0.0,0.0,0.0,0.0,0.0,0.0,0.0,-1.1348,0.0,0.0,0.0,0.0,0.0,0.0,0.0,0.0,0.0,0.0,0.0,-1.245,-1.2382,-1.2195,-1.1319,-1.0813,-1.088,-1.0799,-1.0717,-1.0717,-1.0717,-1.0717,-1.0717,-1.0717,-1.0717,-1.0717,-1.0717,-1.0717,-1.0717,-1.0717,-1.0717,-1.0711,-1.0622,-1.0636,-1.0704,-1.0555,-1.0582,-1.0717,-1.0717,-1.0717,-1.0717,-1.0717,-1.0717,-1.0717,-1.0717,-1.0717,-1.0717,-1.0717,-1.0717,-1.0313,-0.8501,-0.6765,-0.4961,-0.3155,-0.1366,0.0,0.0,0.0,0.0,0.0,0.0,0.0,0.0,0.0,0.0,0.0,0.0,0.0,0.0,0.0,0.0,0.0,0.0,0.0,0.0,0.0,0.0,0.0,0.0,0.0,0.0,0.0,0.0,0.0,0.0,0.0,0.0,0.0,0.0,0.0,0.0,0.0,0.0,0.0,0.0,-1.1063,0.0,0.0,0.0,0.0,0.0,0.0,0.0,0.0,0.0,0.0,0.0,0.0,0.0,0.0,0.0,0.0,-1.1463,0.0,0.0,0.0,0.0,0.0,0.0,0.0,0.0,0.0,-1.2,-1.2051,-1.1938,-1.1757,-1.1198,-1.084,-1.088,-1.0799,-1.0717,-1.0717,-1.0717,-1.0717,-1.0717,-1.0717,-1.0717,-1.0717,-1.0717,-1.0717,-1.0717,-1.0717,-1.0717,-1.0711,-1.0602,-1.0622,-1.0711,-1.0595,-1.0622,-1.0717,-1.0717,-1.0717,-1.0717,-1.0717,-1.0717,-1.0717,-1.0717,-1.0717,-1.0717,-1.0717,-1.0717,-1.0313,-0.8501,-0.7098,-0.57,-0.3974,-0.2132,-0.0771,-0.0774,-0.0359,0.0,0.0,0.0,0.0,0.0,0.0,0.0,0.0,0.0,0.0,0.0,0.0,0.0,0.0,0.0,0.0,0.0,0.0,0.0,0.0,0.0,0.0,0.0,0.0,0.0,0.0,0.0,0.0,0.0,0.0,0.0,0.0,0.0,0.0,0.0,0.0,0.0,0.0,0.0,0.0,-1.128,0.0,0.0,0.0,0.0,-1.1619,0.0,0.0,0.0,0.0,0.0,-1.1565,-1.1416,0.0,0.0,0.0,0.0,0.0,0.0,0.0,0.0,0.0,0.0,0.0,-1.3899,-1.3789,-1.3764,-1.3866,-1.1881,-1.0799,-1.0873,-1.0799,-1.0717,-1.0717,-1.0717,-1.0717,-1.0717,-1.0717,-1.0717,-1.0717,-1.0717,-1.0717,-1.0717,-1.0717,-1.0717,-1.0717,-1.0717,-1.0717,-1.0717,-1.0717,-1.0717,-1.0717,-1.0717,-1.0717,-1.0717,-1.0717,-1.0717,-1.0717,-1.0717,-1.0717,-1.0717,-1.0717,-1.0717,-1.0313,-0.8501,-0.7964,-0.7517,-0.5922,-0.4077,-0.2666,-0.2771,-0.1371,0.0,0.0,0.0,0.0,0.0,0.0,0.0,0.0,0.0,0.0,0.0,0.0,0.0,0.0,0.0,0.0,0.0,0.0,0.0,0.0,0.0,0.0,0.0,0.0,0.0,0.0,0.0,0.0,0.0,0.0,0.0,0.0,0.0,0.0,0.0,0.0,0.0,0.0,0.0,-1.0778,-1.1036,0.0,0.0,0.0,0.0,0.0,0.0,0.0,0.0,0.0,0.0,-1.1484,-1.1531,-1.1497,0.0,0.0,0.0,0.0,0.0,0.0,0.0,0.0,0.0,0.0,-1.1983,-1.2005,-1.2013,-1.1961,-1.1258,-1.0826,-1.088,-1.0833,-1.0806,-1.0806,-1.0806,-1.0806,-1.0799,-1.0772,-1.0717,-1.0717,-1.0717,-1.0717,-1.0717,-1.0717,-1.0717,-1.0717,-1.0717,-1.0717,-1.0717,-1.0717,-1.0717,-1.0717,-1.0717,-1.0717,-1.0717,-1.0717,-1.0717,-1.0717,-1.0717,-1.0717,-1.0717,-1.0717,-1.0717,-1.0313,-0.8501,-0.803,-0.7636,-0.593,-0.4123,-0.2731,-0.2743,-0.1362,0.0,0.0,0.0,0.0,0.0,0.0,0.0,0.0,0.0,0.0,0.0,0.0,0.0,0.0,0.0,0.0,0.0,0.0,0.0,0.0,0.0,0.0,0.0,0.0,0.0,0.0,0.0,0.0,0.0,0.0,0.0,0.0,0.0,0.0,0.0,0.0,0.0,-1.0717,-1.0717,0.0,-1.084,-1.1016,0.0,-1.1348,0.0,-1.1436,0.0,0.0,0.0,0.0,0.0,0.0,-1.1525,-1.1457,0.0,0.0,-1.1572,0.0,0.0,0.0,0.0,0.0,0.0,-1.1185,-1.082,-1.0955,-1.0962,0.0,0.0,-1.0799,-1.0799,-1.0853,-1.088,-1.088,-1.0995,-1.0995,-1.088,-1.0779,-1.0772,-1.0717,-1.0717,-1.0717,-1.0717,-1.0717,-1.0717,-1.0717,-1.0717,-1.0717,-1.0717,-1.0717,-1.0717,-1.0717,-1.0717,-1.0717,-1.0717,-1.0717,-1.0717,-1.0717,-1.0717,-1.0717,-1.0717,-1.0717,-1.0717,-1.0459,-0.9364,-0.9006,-0.8734,-0.7776,-0.5601,-0.3713,-0.3749,-0.187,0.0,0.0,0.0,0.0,0.0,0.0,0.0,0.0,0.0,0.0,0.0,0.0,0.0,0.0,0.0,0.0,0.0,0.0,0.0,0.0,0.0,0.0,0.0,0.0,0.0,0.0,0.0,0.0,0.0,0.0,0.0,0.0,0.0,0.0,0.0,0.0,0.0]}]]